<?xml version="1.0" encoding="UTF-8" standalone="no" ?>
<gpx xmlns="http://www.topografix.com/GPX/1/1" xmlns:xsi="http://www.w3.org/2001/XMLSchema-instance" xsi:schemaLocation="http://www.topografix.com/GPX/1/1 http://www.topografix.com/GPX/1/1/gpx.xsd" version="1.1" creator="VisuGPX - https://www.visugpx.com">
  <metadata>
    <name>rando du 05 novembre 2011</name>
    <desc><![CDATA[rando entre potes dans l\'oise ]]></desc>
  </metadata>
  <wpt lat="49.199" lon="2.28206">
    <ele>87</ele>
  </wpt>
  <wpt lat="49.16067" lon="2.25806">
    <ele>26</ele>
  </wpt>
  <trk>
    <name><![CDATA[rando du 05 novembre 2011_1]]></name>
    <trkseg>
      <trkpt lat="49.199" lon="2.28206">
        <ele>87</ele>
        <time>2011-11-06T08:27:35Z</time>
      </trkpt>
      <trkpt lat="49.1991" lon="2.28204">
        <ele>87</ele>
        <time>2011-11-06T08:27:36Z</time>
      </trkpt>
      <trkpt lat="49.19919" lon="2.28202">
        <ele>87</ele>
        <time>2011-11-06T08:27:37Z</time>
      </trkpt>
      <trkpt lat="49.19929" lon="2.282">
        <ele>87</ele>
        <time>2011-11-06T08:27:38Z</time>
      </trkpt>
      <trkpt lat="49.19946" lon="2.28195">
        <ele>87</ele>
        <time>2011-11-06T08:27:40Z</time>
      </trkpt>
      <trkpt lat="49.19959" lon="2.28194">
        <ele>87</ele>
        <time>2011-11-06T08:27:42Z</time>
      </trkpt>
      <trkpt lat="49.19966" lon="2.28211">
        <ele>87</ele>
        <time>2011-11-06T08:27:45Z</time>
      </trkpt>
      <trkpt lat="49.19962" lon="2.28227">
        <ele>87</ele>
        <time>2011-11-06T08:27:47Z</time>
      </trkpt>
      <trkpt lat="49.19954" lon="2.28246">
        <ele>87</ele>
        <time>2011-11-06T08:27:49Z</time>
      </trkpt>
      <trkpt lat="49.19949" lon="2.28268">
        <ele>87</ele>
        <time>2011-11-06T08:27:51Z</time>
      </trkpt>
      <trkpt lat="49.19945" lon="2.28292">
        <ele>87</ele>
        <time>2011-11-06T08:27:53Z</time>
      </trkpt>
      <trkpt lat="49.1994" lon="2.28315">
        <ele>87</ele>
        <time>2011-11-06T08:27:55Z</time>
      </trkpt>
      <trkpt lat="49.19934" lon="2.28339">
        <ele>87</ele>
        <time>2011-11-06T08:27:57Z</time>
      </trkpt>
      <trkpt lat="49.19928" lon="2.28366">
        <ele>87</ele>
        <time>2011-11-06T08:27:59Z</time>
      </trkpt>
      <trkpt lat="49.19925" lon="2.28381">
        <ele>87</ele>
        <time>2011-11-06T08:28:00Z</time>
      </trkpt>
      <trkpt lat="49.19921" lon="2.28397">
        <ele>93</ele>
        <time>2011-11-06T08:28:01Z</time>
      </trkpt>
      <trkpt lat="49.19917" lon="2.28414">
        <ele>93</ele>
        <time>2011-11-06T08:28:02Z</time>
      </trkpt>
      <trkpt lat="49.19914" lon="2.28431">
        <ele>93</ele>
        <time>2011-11-06T08:28:03Z</time>
      </trkpt>
      <trkpt lat="49.1991" lon="2.2845">
        <ele>93</ele>
        <time>2011-11-06T08:28:04Z</time>
      </trkpt>
      <trkpt lat="49.19906" lon="2.28468">
        <ele>93</ele>
        <time>2011-11-06T08:28:05Z</time>
      </trkpt>
      <trkpt lat="49.19903" lon="2.28487">
        <ele>93</ele>
        <time>2011-11-06T08:28:06Z</time>
      </trkpt>
      <trkpt lat="49.19899" lon="2.28505">
        <ele>93</ele>
        <time>2011-11-06T08:28:07Z</time>
      </trkpt>
      <trkpt lat="49.19896" lon="2.28525">
        <ele>93</ele>
        <time>2011-11-06T08:28:08Z</time>
      </trkpt>
      <trkpt lat="49.19892" lon="2.28544">
        <ele>93</ele>
        <time>2011-11-06T08:28:09Z</time>
      </trkpt>
      <trkpt lat="49.19889" lon="2.28563">
        <ele>93</ele>
        <time>2011-11-06T08:28:10Z</time>
      </trkpt>
      <trkpt lat="49.19886" lon="2.28582">
        <ele>93</ele>
        <time>2011-11-06T08:28:11Z</time>
      </trkpt>
      <trkpt lat="49.19882" lon="2.28602">
        <ele>93</ele>
        <time>2011-11-06T08:28:12Z</time>
      </trkpt>
      <trkpt lat="49.19879" lon="2.28621">
        <ele>93</ele>
        <time>2011-11-06T08:28:13Z</time>
      </trkpt>
      <trkpt lat="49.19875" lon="2.28642">
        <ele>93</ele>
        <time>2011-11-06T08:28:14Z</time>
      </trkpt>
      <trkpt lat="49.19871" lon="2.28663">
        <ele>93</ele>
        <time>2011-11-06T08:28:15Z</time>
      </trkpt>
      <trkpt lat="49.19866" lon="2.28683">
        <ele>93</ele>
        <time>2011-11-06T08:28:16Z</time>
      </trkpt>
      <trkpt lat="49.19862" lon="2.28703">
        <ele>93</ele>
        <time>2011-11-06T08:28:17Z</time>
      </trkpt>
      <trkpt lat="49.19856" lon="2.28723">
        <ele>93</ele>
        <time>2011-11-06T08:28:18Z</time>
      </trkpt>
      <trkpt lat="49.1985" lon="2.28741">
        <ele>93</ele>
        <time>2011-11-06T08:28:19Z</time>
      </trkpt>
      <trkpt lat="49.19843" lon="2.28758">
        <ele>93</ele>
        <time>2011-11-06T08:28:20Z</time>
      </trkpt>
      <trkpt lat="49.19834" lon="2.28775">
        <ele>93</ele>
        <time>2011-11-06T08:28:21Z</time>
      </trkpt>
      <trkpt lat="49.19825" lon="2.28791">
        <ele>93</ele>
        <time>2011-11-06T08:28:22Z</time>
      </trkpt>
      <trkpt lat="49.19815" lon="2.28806">
        <ele>93</ele>
        <time>2011-11-06T08:28:23Z</time>
      </trkpt>
      <trkpt lat="49.19804" lon="2.28823">
        <ele>93</ele>
        <time>2011-11-06T08:28:24Z</time>
      </trkpt>
      <trkpt lat="49.19793" lon="2.28838">
        <ele>93</ele>
        <time>2011-11-06T08:28:25Z</time>
      </trkpt>
      <trkpt lat="49.19782" lon="2.28854">
        <ele>93</ele>
        <time>2011-11-06T08:28:26Z</time>
      </trkpt>
      <trkpt lat="49.19771" lon="2.2887">
        <ele>93</ele>
        <time>2011-11-06T08:28:27Z</time>
      </trkpt>
      <trkpt lat="49.1976" lon="2.28885">
        <ele>93</ele>
        <time>2011-11-06T08:28:28Z</time>
      </trkpt>
      <trkpt lat="49.19749" lon="2.28901">
        <ele>93</ele>
        <time>2011-11-06T08:28:29Z</time>
      </trkpt>
      <trkpt lat="49.19739" lon="2.28916">
        <ele>93</ele>
        <time>2011-11-06T08:28:30Z</time>
      </trkpt>
      <trkpt lat="49.19729" lon="2.28931">
        <ele>93</ele>
        <time>2011-11-06T08:28:31Z</time>
      </trkpt>
      <trkpt lat="49.19718" lon="2.28946">
        <ele>93</ele>
        <time>2011-11-06T08:28:32Z</time>
      </trkpt>
      <trkpt lat="49.19708" lon="2.28962">
        <ele>93</ele>
        <time>2011-11-06T08:28:33Z</time>
      </trkpt>
      <trkpt lat="49.19698" lon="2.28976">
        <ele>93</ele>
        <time>2011-11-06T08:28:34Z</time>
      </trkpt>
      <trkpt lat="49.19688" lon="2.2899">
        <ele>93</ele>
        <time>2011-11-06T08:28:35Z</time>
      </trkpt>
      <trkpt lat="49.19678" lon="2.29005">
        <ele>93</ele>
        <time>2011-11-06T08:28:36Z</time>
      </trkpt>
      <trkpt lat="49.1967" lon="2.29019">
        <ele>93</ele>
        <time>2011-11-06T08:28:37Z</time>
      </trkpt>
      <trkpt lat="49.19663" lon="2.29034">
        <ele>93</ele>
        <time>2011-11-06T08:28:38Z</time>
      </trkpt>
      <trkpt lat="49.19657" lon="2.2905">
        <ele>93</ele>
        <time>2011-11-06T08:28:39Z</time>
      </trkpt>
      <trkpt lat="49.19653" lon="2.29066">
        <ele>93</ele>
        <time>2011-11-06T08:28:40Z</time>
      </trkpt>
      <trkpt lat="49.1965" lon="2.29084">
        <ele>93</ele>
        <time>2011-11-06T08:28:41Z</time>
      </trkpt>
      <trkpt lat="49.19646" lon="2.29103">
        <ele>93</ele>
        <time>2011-11-06T08:28:42Z</time>
      </trkpt>
      <trkpt lat="49.19643" lon="2.29122">
        <ele>93</ele>
        <time>2011-11-06T08:28:43Z</time>
      </trkpt>
      <trkpt lat="49.19639" lon="2.29141">
        <ele>93</ele>
        <time>2011-11-06T08:28:44Z</time>
      </trkpt>
      <trkpt lat="49.19635" lon="2.29158">
        <ele>93</ele>
        <time>2011-11-06T08:28:45Z</time>
      </trkpt>
      <trkpt lat="49.1963" lon="2.29174">
        <ele>93</ele>
        <time>2011-11-06T08:28:46Z</time>
      </trkpt>
      <trkpt lat="49.19625" lon="2.29188">
        <ele>93</ele>
        <time>2011-11-06T08:28:47Z</time>
      </trkpt>
      <trkpt lat="49.19617" lon="2.29198">
        <ele>93</ele>
        <time>2011-11-06T08:28:48Z</time>
      </trkpt>
      <trkpt lat="49.19609" lon="2.29207">
        <ele>93</ele>
        <time>2011-11-06T08:28:49Z</time>
      </trkpt>
      <trkpt lat="49.19599" lon="2.29212">
        <ele>93</ele>
        <time>2011-11-06T08:28:50Z</time>
      </trkpt>
      <trkpt lat="49.19589" lon="2.29218">
        <ele>93</ele>
        <time>2011-11-06T08:28:51Z</time>
      </trkpt>
      <trkpt lat="49.19578" lon="2.29222">
        <ele>93</ele>
        <time>2011-11-06T08:28:52Z</time>
      </trkpt>
      <trkpt lat="49.19567" lon="2.29227">
        <ele>93</ele>
        <time>2011-11-06T08:28:53Z</time>
      </trkpt>
      <trkpt lat="49.19557" lon="2.29231">
        <ele>93</ele>
        <time>2011-11-06T08:28:54Z</time>
      </trkpt>
      <trkpt lat="49.19547" lon="2.29237">
        <ele>93</ele>
        <time>2011-11-06T08:28:55Z</time>
      </trkpt>
      <trkpt lat="49.19537" lon="2.29242">
        <ele>93</ele>
        <time>2011-11-06T08:28:56Z</time>
      </trkpt>
      <trkpt lat="49.19528" lon="2.29247">
        <ele>93</ele>
        <time>2011-11-06T08:28:57Z</time>
      </trkpt>
      <trkpt lat="49.19512" lon="2.29259">
        <ele>93</ele>
        <time>2011-11-06T08:28:59Z</time>
      </trkpt>
      <trkpt lat="49.195" lon="2.2927">
        <ele>93</ele>
        <time>2011-11-06T08:29:01Z</time>
      </trkpt>
      <trkpt lat="49.1949" lon="2.29279">
        <ele>93</ele>
        <time>2011-11-06T08:29:03Z</time>
      </trkpt>
      <trkpt lat="49.19479" lon="2.29289">
        <ele>93</ele>
        <time>2011-11-06T08:29:06Z</time>
      </trkpt>
      <trkpt lat="49.19472" lon="2.29298">
        <ele>93</ele>
        <time>2011-11-06T08:29:10Z</time>
      </trkpt>
      <trkpt lat="49.1947" lon="2.29312">
        <ele>93</ele>
        <time>2011-11-06T08:29:19Z</time>
      </trkpt>
      <trkpt lat="49.19479" lon="2.29319">
        <ele>93</ele>
        <time>2011-11-06T08:29:21Z</time>
      </trkpt>
      <trkpt lat="49.19494" lon="2.29331">
        <ele>93</ele>
        <time>2011-11-06T08:29:23Z</time>
      </trkpt>
      <trkpt lat="49.1951" lon="2.29344">
        <ele>93</ele>
        <time>2011-11-06T08:29:25Z</time>
      </trkpt>
      <trkpt lat="49.19518" lon="2.29351">
        <ele>93</ele>
        <time>2011-11-06T08:29:26Z</time>
      </trkpt>
      <trkpt lat="49.19528" lon="2.29359">
        <ele>93</ele>
        <time>2011-11-06T08:29:27Z</time>
      </trkpt>
      <trkpt lat="49.19537" lon="2.29367">
        <ele>93</ele>
        <time>2011-11-06T08:29:28Z</time>
      </trkpt>
      <trkpt lat="49.19547" lon="2.29375">
        <ele>93</ele>
        <time>2011-11-06T08:29:29Z</time>
      </trkpt>
      <trkpt lat="49.19557" lon="2.29383">
        <ele>93</ele>
        <time>2011-11-06T08:29:30Z</time>
      </trkpt>
      <trkpt lat="49.19565" lon="2.29392">
        <ele>93</ele>
        <time>2011-11-06T08:29:31Z</time>
      </trkpt>
      <trkpt lat="49.19575" lon="2.29403">
        <ele>93</ele>
        <time>2011-11-06T08:29:32Z</time>
      </trkpt>
      <trkpt lat="49.19585" lon="2.29414">
        <ele>93</ele>
        <time>2011-11-06T08:29:33Z</time>
      </trkpt>
      <trkpt lat="49.19594" lon="2.29424">
        <ele>93</ele>
        <time>2011-11-06T08:29:34Z</time>
      </trkpt>
      <trkpt lat="49.19603" lon="2.29434">
        <ele>93</ele>
        <time>2011-11-06T08:29:35Z</time>
      </trkpt>
      <trkpt lat="49.19612" lon="2.29443">
        <ele>93</ele>
        <time>2011-11-06T08:29:36Z</time>
      </trkpt>
      <trkpt lat="49.19628" lon="2.29456">
        <ele>93</ele>
        <time>2011-11-06T08:29:38Z</time>
      </trkpt>
      <trkpt lat="49.19643" lon="2.29463">
        <ele>93</ele>
        <time>2011-11-06T08:29:40Z</time>
      </trkpt>
      <trkpt lat="49.19653" lon="2.29468">
        <ele>93</ele>
        <time>2011-11-06T08:29:42Z</time>
      </trkpt>
      <trkpt lat="49.19663" lon="2.29469">
        <ele>93</ele>
        <time>2011-11-06T08:29:45Z</time>
      </trkpt>
      <trkpt lat="49.19675" lon="2.2947">
        <ele>93</ele>
        <time>2011-11-06T08:29:47Z</time>
      </trkpt>
      <trkpt lat="49.19692" lon="2.29474">
        <ele>93</ele>
        <time>2011-11-06T08:29:49Z</time>
      </trkpt>
      <trkpt lat="49.19707" lon="2.29481">
        <ele>93</ele>
        <time>2011-11-06T08:29:51Z</time>
      </trkpt>
      <trkpt lat="49.19719" lon="2.29496">
        <ele>98</ele>
        <time>2011-11-06T08:29:53Z</time>
      </trkpt>
      <trkpt lat="49.19727" lon="2.2952">
        <ele>98</ele>
        <time>2011-11-06T08:29:55Z</time>
      </trkpt>
      <trkpt lat="49.19736" lon="2.2954">
        <ele>98</ele>
        <time>2011-11-06T08:29:57Z</time>
      </trkpt>
      <trkpt lat="49.19744" lon="2.2955">
        <ele>98</ele>
        <time>2011-11-06T08:29:59Z</time>
      </trkpt>
      <trkpt lat="49.19755" lon="2.29545">
        <ele>98</ele>
        <time>2011-11-06T08:30:01Z</time>
      </trkpt>
      <trkpt lat="49.19764" lon="2.29542">
        <ele>98</ele>
        <time>2011-11-06T08:30:02Z</time>
      </trkpt>
      <trkpt lat="49.19774" lon="2.29538">
        <ele>98</ele>
        <time>2011-11-06T08:30:03Z</time>
      </trkpt>
      <trkpt lat="49.19786" lon="2.29535">
        <ele>98</ele>
        <time>2011-11-06T08:30:04Z</time>
      </trkpt>
      <trkpt lat="49.19794" lon="2.29531">
        <ele>98</ele>
        <time>2011-11-06T08:30:05Z</time>
      </trkpt>
      <trkpt lat="49.1981" lon="2.29529">
        <ele>98</ele>
        <time>2011-11-06T08:30:07Z</time>
      </trkpt>
      <trkpt lat="49.19816" lon="2.29543">
        <ele>98</ele>
        <time>2011-11-06T08:30:09Z</time>
      </trkpt>
      <trkpt lat="49.19818" lon="2.29567">
        <ele>98</ele>
        <time>2011-11-06T08:30:11Z</time>
      </trkpt>
      <trkpt lat="49.19817" lon="2.29583">
        <ele>98</ele>
        <time>2011-11-06T08:30:12Z</time>
      </trkpt>
      <trkpt lat="49.19817" lon="2.296">
        <ele>98</ele>
        <time>2011-11-06T08:30:13Z</time>
      </trkpt>
      <trkpt lat="49.19816" lon="2.29619">
        <ele>98</ele>
        <time>2011-11-06T08:30:14Z</time>
      </trkpt>
      <trkpt lat="49.19815" lon="2.29637">
        <ele>98</ele>
        <time>2011-11-06T08:30:15Z</time>
      </trkpt>
      <trkpt lat="49.19814" lon="2.29655">
        <ele>98</ele>
        <time>2011-11-06T08:30:16Z</time>
      </trkpt>
      <trkpt lat="49.19814" lon="2.29671">
        <ele>98</ele>
        <time>2011-11-06T08:30:17Z</time>
      </trkpt>
      <trkpt lat="49.19813" lon="2.29685">
        <ele>98</ele>
        <time>2011-11-06T08:30:18Z</time>
      </trkpt>
      <trkpt lat="49.19812" lon="2.29708">
        <ele>98</ele>
        <time>2011-11-06T08:30:20Z</time>
      </trkpt>
      <trkpt lat="49.19814" lon="2.29729">
        <ele>98</ele>
        <time>2011-11-06T08:30:22Z</time>
      </trkpt>
      <trkpt lat="49.19816" lon="2.29752">
        <ele>98</ele>
        <time>2011-11-06T08:30:24Z</time>
      </trkpt>
      <trkpt lat="49.19816" lon="2.29774">
        <ele>98</ele>
        <time>2011-11-06T08:30:26Z</time>
      </trkpt>
      <trkpt lat="49.19816" lon="2.29794">
        <ele>98</ele>
        <time>2011-11-06T08:30:28Z</time>
      </trkpt>
      <trkpt lat="49.19816" lon="2.29813">
        <ele>98</ele>
        <time>2011-11-06T08:30:30Z</time>
      </trkpt>
      <trkpt lat="49.19816" lon="2.29834">
        <ele>98</ele>
        <time>2011-11-06T08:30:32Z</time>
      </trkpt>
      <trkpt lat="49.19816" lon="2.29854">
        <ele>98</ele>
        <time>2011-11-06T08:30:34Z</time>
      </trkpt>
      <trkpt lat="49.19816" lon="2.29873">
        <ele>98</ele>
        <time>2011-11-06T08:30:36Z</time>
      </trkpt>
      <trkpt lat="49.19816" lon="2.29896">
        <ele>98</ele>
        <time>2011-11-06T08:30:38Z</time>
      </trkpt>
      <trkpt lat="49.19816" lon="2.29923">
        <ele>98</ele>
        <time>2011-11-06T08:30:40Z</time>
      </trkpt>
      <trkpt lat="49.19816" lon="2.29937">
        <ele>98</ele>
        <time>2011-11-06T08:30:41Z</time>
      </trkpt>
      <trkpt lat="49.19816" lon="2.29953">
        <ele>98</ele>
        <time>2011-11-06T08:30:42Z</time>
      </trkpt>
      <trkpt lat="49.19816" lon="2.2997">
        <ele>98</ele>
        <time>2011-11-06T08:30:43Z</time>
      </trkpt>
      <trkpt lat="49.19816" lon="2.29988">
        <ele>98</ele>
        <time>2011-11-06T08:30:44Z</time>
      </trkpt>
      <trkpt lat="49.19817" lon="2.30005">
        <ele>98</ele>
        <time>2011-11-06T08:30:45Z</time>
      </trkpt>
      <trkpt lat="49.19817" lon="2.30023">
        <ele>98</ele>
        <time>2011-11-06T08:30:46Z</time>
      </trkpt>
      <trkpt lat="49.19817" lon="2.30041">
        <ele>98</ele>
        <time>2011-11-06T08:30:47Z</time>
      </trkpt>
      <trkpt lat="49.19818" lon="2.30058">
        <ele>98</ele>
        <time>2011-11-06T08:30:48Z</time>
      </trkpt>
      <trkpt lat="49.19818" lon="2.30074">
        <ele>98</ele>
        <time>2011-11-06T08:30:49Z</time>
      </trkpt>
      <trkpt lat="49.19819" lon="2.30089">
        <ele>98</ele>
        <time>2011-11-06T08:30:50Z</time>
      </trkpt>
      <trkpt lat="49.19819" lon="2.30104">
        <ele>98</ele>
        <time>2011-11-06T08:30:51Z</time>
      </trkpt>
      <trkpt lat="49.19819" lon="2.30119">
        <ele>98</ele>
        <time>2011-11-06T08:30:52Z</time>
      </trkpt>
      <trkpt lat="49.1982" lon="2.30133">
        <ele>98</ele>
        <time>2011-11-06T08:30:53Z</time>
      </trkpt>
      <trkpt lat="49.1982" lon="2.30148">
        <ele>98</ele>
        <time>2011-11-06T08:30:54Z</time>
      </trkpt>
      <trkpt lat="49.19821" lon="2.30162">
        <ele>98</ele>
        <time>2011-11-06T08:30:55Z</time>
      </trkpt>
      <trkpt lat="49.19821" lon="2.30177">
        <ele>98</ele>
        <time>2011-11-06T08:30:56Z</time>
      </trkpt>
      <trkpt lat="49.19821" lon="2.30193">
        <ele>98</ele>
        <time>2011-11-06T08:30:57Z</time>
      </trkpt>
      <trkpt lat="49.19821" lon="2.3021">
        <ele>98</ele>
        <time>2011-11-06T08:30:58Z</time>
      </trkpt>
      <trkpt lat="49.19821" lon="2.30226">
        <ele>98</ele>
        <time>2011-11-06T08:30:59Z</time>
      </trkpt>
      <trkpt lat="49.19821" lon="2.30242">
        <ele>98</ele>
        <time>2011-11-06T08:31:00Z</time>
      </trkpt>
      <trkpt lat="49.1982" lon="2.30258">
        <ele>98</ele>
        <time>2011-11-06T08:31:01Z</time>
      </trkpt>
      <trkpt lat="49.19819" lon="2.30273">
        <ele>98</ele>
        <time>2011-11-06T08:31:02Z</time>
      </trkpt>
      <trkpt lat="49.19817" lon="2.30289">
        <ele>98</ele>
        <time>2011-11-06T08:31:03Z</time>
      </trkpt>
      <trkpt lat="49.19815" lon="2.30304">
        <ele>98</ele>
        <time>2011-11-06T08:31:04Z</time>
      </trkpt>
      <trkpt lat="49.19813" lon="2.30319">
        <ele>98</ele>
        <time>2011-11-06T08:31:05Z</time>
      </trkpt>
      <trkpt lat="49.1981" lon="2.30333">
        <ele>98</ele>
        <time>2011-11-06T08:31:06Z</time>
      </trkpt>
      <trkpt lat="49.19808" lon="2.30348">
        <ele>98</ele>
        <time>2011-11-06T08:31:07Z</time>
      </trkpt>
      <trkpt lat="49.19806" lon="2.30362">
        <ele>98</ele>
        <time>2011-11-06T08:31:08Z</time>
      </trkpt>
      <trkpt lat="49.19803" lon="2.30377">
        <ele>98</ele>
        <time>2011-11-06T08:31:09Z</time>
      </trkpt>
      <trkpt lat="49.19802" lon="2.30391">
        <ele>98</ele>
        <time>2011-11-06T08:31:10Z</time>
      </trkpt>
      <trkpt lat="49.198" lon="2.30405">
        <ele>98</ele>
        <time>2011-11-06T08:31:11Z</time>
      </trkpt>
      <trkpt lat="49.19796" lon="2.30432">
        <ele>98</ele>
        <time>2011-11-06T08:31:13Z</time>
      </trkpt>
      <trkpt lat="49.19793" lon="2.30457">
        <ele>98</ele>
        <time>2011-11-06T08:31:15Z</time>
      </trkpt>
      <trkpt lat="49.19792" lon="2.30481">
        <ele>98</ele>
        <time>2011-11-06T08:31:17Z</time>
      </trkpt>
      <trkpt lat="49.19794" lon="2.30506">
        <ele>98</ele>
        <time>2011-11-06T08:31:19Z</time>
      </trkpt>
      <trkpt lat="49.19799" lon="2.30533">
        <ele>98</ele>
        <time>2011-11-06T08:31:21Z</time>
      </trkpt>
      <trkpt lat="49.19801" lon="2.30546">
        <ele>98</ele>
        <time>2011-11-06T08:31:22Z</time>
      </trkpt>
      <trkpt lat="49.19803" lon="2.3056">
        <ele>98</ele>
        <time>2011-11-06T08:31:23Z</time>
      </trkpt>
      <trkpt lat="49.19806" lon="2.30573">
        <ele>98</ele>
        <time>2011-11-06T08:31:24Z</time>
      </trkpt>
      <trkpt lat="49.19809" lon="2.30588">
        <ele>98</ele>
        <time>2011-11-06T08:31:25Z</time>
      </trkpt>
      <trkpt lat="49.19812" lon="2.30602">
        <ele>98</ele>
        <time>2011-11-06T08:31:26Z</time>
      </trkpt>
      <trkpt lat="49.19814" lon="2.30616">
        <ele>98</ele>
        <time>2011-11-06T08:31:27Z</time>
      </trkpt>
      <trkpt lat="49.19817" lon="2.30631">
        <ele>98</ele>
        <time>2011-11-06T08:31:28Z</time>
      </trkpt>
      <trkpt lat="49.19821" lon="2.30645">
        <ele>98</ele>
        <time>2011-11-06T08:31:29Z</time>
      </trkpt>
      <trkpt lat="49.19824" lon="2.3066">
        <ele>98</ele>
        <time>2011-11-06T08:31:30Z</time>
      </trkpt>
      <trkpt lat="49.19827" lon="2.30674">
        <ele>98</ele>
        <time>2011-11-06T08:31:31Z</time>
      </trkpt>
      <trkpt lat="49.1983" lon="2.30688">
        <ele>98</ele>
        <time>2011-11-06T08:31:32Z</time>
      </trkpt>
      <trkpt lat="49.19832" lon="2.30704">
        <ele>98</ele>
        <time>2011-11-06T08:31:33Z</time>
      </trkpt>
      <trkpt lat="49.19834" lon="2.30719">
        <ele>98</ele>
        <time>2011-11-06T08:31:34Z</time>
      </trkpt>
      <trkpt lat="49.19835" lon="2.30734">
        <ele>98</ele>
        <time>2011-11-06T08:31:35Z</time>
      </trkpt>
      <trkpt lat="49.19836" lon="2.3075">
        <ele>98</ele>
        <time>2011-11-06T08:31:36Z</time>
      </trkpt>
      <trkpt lat="49.19836" lon="2.30767">
        <ele>98</ele>
        <time>2011-11-06T08:31:37Z</time>
      </trkpt>
      <trkpt lat="49.19836" lon="2.30784">
        <ele>98</ele>
        <time>2011-11-06T08:31:38Z</time>
      </trkpt>
      <trkpt lat="49.19836" lon="2.30799">
        <ele>98</ele>
        <time>2011-11-06T08:31:39Z</time>
      </trkpt>
      <trkpt lat="49.19836" lon="2.30814">
        <ele>98</ele>
        <time>2011-11-06T08:31:40Z</time>
      </trkpt>
      <trkpt lat="49.19835" lon="2.30838">
        <ele>98</ele>
        <time>2011-11-06T08:31:42Z</time>
      </trkpt>
      <trkpt lat="49.19834" lon="2.30856">
        <ele>98</ele>
        <time>2011-11-06T08:31:44Z</time>
      </trkpt>
      <trkpt lat="49.19841" lon="2.30866">
        <ele>98</ele>
        <time>2011-11-06T08:31:47Z</time>
      </trkpt>
      <trkpt lat="49.1985" lon="2.30863">
        <ele>98</ele>
        <time>2011-11-06T08:31:49Z</time>
      </trkpt>
      <trkpt lat="49.19862" lon="2.30859">
        <ele>98</ele>
        <time>2011-11-06T08:31:51Z</time>
      </trkpt>
      <trkpt lat="49.19877" lon="2.30854">
        <ele>98</ele>
        <time>2011-11-06T08:31:53Z</time>
      </trkpt>
      <trkpt lat="49.19894" lon="2.30847">
        <ele>98</ele>
        <time>2011-11-06T08:31:55Z</time>
      </trkpt>
      <trkpt lat="49.19904" lon="2.30845">
        <ele>98</ele>
        <time>2011-11-06T08:31:56Z</time>
      </trkpt>
      <trkpt lat="49.19913" lon="2.30841">
        <ele>98</ele>
        <time>2011-11-06T08:31:57Z</time>
      </trkpt>
      <trkpt lat="49.19923" lon="2.30837">
        <ele>98</ele>
        <time>2011-11-06T08:31:58Z</time>
      </trkpt>
      <trkpt lat="49.19933" lon="2.30834">
        <ele>98</ele>
        <time>2011-11-06T08:31:59Z</time>
      </trkpt>
      <trkpt lat="49.19943" lon="2.30831">
        <ele>98</ele>
        <time>2011-11-06T08:32:00Z</time>
      </trkpt>
      <trkpt lat="49.19952" lon="2.30828">
        <ele>98</ele>
        <time>2011-11-06T08:32:01Z</time>
      </trkpt>
      <trkpt lat="49.19962" lon="2.30824">
        <ele>93</ele>
        <time>2011-11-06T08:32:02Z</time>
      </trkpt>
      <trkpt lat="49.19972" lon="2.3082">
        <ele>93</ele>
        <time>2011-11-06T08:32:03Z</time>
      </trkpt>
      <trkpt lat="49.1998" lon="2.30816">
        <ele>93</ele>
        <time>2011-11-06T08:32:04Z</time>
      </trkpt>
      <trkpt lat="49.1999" lon="2.30812">
        <ele>93</ele>
        <time>2011-11-06T08:32:05Z</time>
      </trkpt>
      <trkpt lat="49.19999" lon="2.30809">
        <ele>93</ele>
        <time>2011-11-06T08:32:06Z</time>
      </trkpt>
      <trkpt lat="49.20008" lon="2.30805">
        <ele>93</ele>
        <time>2011-11-06T08:32:07Z</time>
      </trkpt>
      <trkpt lat="49.20023" lon="2.30798">
        <ele>93</ele>
        <time>2011-11-06T08:32:09Z</time>
      </trkpt>
      <trkpt lat="49.20036" lon="2.30792">
        <ele>93</ele>
        <time>2011-11-06T08:32:11Z</time>
      </trkpt>
      <trkpt lat="49.20047" lon="2.3079">
        <ele>93</ele>
        <time>2011-11-06T08:32:13Z</time>
      </trkpt>
      <trkpt lat="49.20055" lon="2.30798">
        <ele>93</ele>
        <time>2011-11-06T08:32:15Z</time>
      </trkpt>
      <trkpt lat="49.20061" lon="2.30814">
        <ele>93</ele>
        <time>2011-11-06T08:32:17Z</time>
      </trkpt>
      <trkpt lat="49.20068" lon="2.30835">
        <ele>93</ele>
        <time>2011-11-06T08:32:19Z</time>
      </trkpt>
      <trkpt lat="49.20075" lon="2.30858">
        <ele>93</ele>
        <time>2011-11-06T08:32:21Z</time>
      </trkpt>
      <trkpt lat="49.20082" lon="2.30881">
        <ele>93</ele>
        <time>2011-11-06T08:32:23Z</time>
      </trkpt>
      <trkpt lat="49.20089" lon="2.30901">
        <ele>93</ele>
        <time>2011-11-06T08:32:25Z</time>
      </trkpt>
      <trkpt lat="49.20095" lon="2.30919">
        <ele>93</ele>
        <time>2011-11-06T08:32:27Z</time>
      </trkpt>
      <trkpt lat="49.20101" lon="2.30937">
        <ele>93</ele>
        <time>2011-11-06T08:32:29Z</time>
      </trkpt>
      <trkpt lat="49.20108" lon="2.30958">
        <ele>93</ele>
        <time>2011-11-06T08:32:31Z</time>
      </trkpt>
      <trkpt lat="49.20116" lon="2.30979">
        <ele>93</ele>
        <time>2011-11-06T08:32:33Z</time>
      </trkpt>
      <trkpt lat="49.20125" lon="2.31002">
        <ele>93</ele>
        <time>2011-11-06T08:32:35Z</time>
      </trkpt>
      <trkpt lat="49.20134" lon="2.31022">
        <ele>93</ele>
        <time>2011-11-06T08:32:37Z</time>
      </trkpt>
      <trkpt lat="49.20143" lon="2.31037">
        <ele>93</ele>
        <time>2011-11-06T08:32:39Z</time>
      </trkpt>
      <trkpt lat="49.20153" lon="2.31052">
        <ele>93</ele>
        <time>2011-11-06T08:32:41Z</time>
      </trkpt>
      <trkpt lat="49.20164" lon="2.31067">
        <ele>93</ele>
        <time>2011-11-06T08:32:43Z</time>
      </trkpt>
      <trkpt lat="49.20175" lon="2.31084">
        <ele>93</ele>
        <time>2011-11-06T08:32:45Z</time>
      </trkpt>
      <trkpt lat="49.20185" lon="2.31101">
        <ele>93</ele>
        <time>2011-11-06T08:32:47Z</time>
      </trkpt>
      <trkpt lat="49.20196" lon="2.31117">
        <ele>93</ele>
        <time>2011-11-06T08:32:49Z</time>
      </trkpt>
      <trkpt lat="49.20207" lon="2.31131">
        <ele>93</ele>
        <time>2011-11-06T08:32:51Z</time>
      </trkpt>
      <trkpt lat="49.20216" lon="2.31146">
        <ele>93</ele>
        <time>2011-11-06T08:32:53Z</time>
      </trkpt>
      <trkpt lat="49.20225" lon="2.31159">
        <ele>93</ele>
        <time>2011-11-06T08:32:55Z</time>
      </trkpt>
      <trkpt lat="49.20234" lon="2.31173">
        <ele>93</ele>
        <time>2011-11-06T08:32:57Z</time>
      </trkpt>
      <trkpt lat="49.20244" lon="2.31186">
        <ele>93</ele>
        <time>2011-11-06T08:32:59Z</time>
      </trkpt>
      <trkpt lat="49.20254" lon="2.31199">
        <ele>93</ele>
        <time>2011-11-06T08:33:01Z</time>
      </trkpt>
      <trkpt lat="49.20262" lon="2.31211">
        <ele>93</ele>
        <time>2011-11-06T08:33:03Z</time>
      </trkpt>
      <trkpt lat="49.2027" lon="2.31222">
        <ele>93</ele>
        <time>2011-11-06T08:33:05Z</time>
      </trkpt>
      <trkpt lat="49.20278" lon="2.31234">
        <ele>93</ele>
        <time>2011-11-06T08:33:08Z</time>
      </trkpt>
      <trkpt lat="49.20285" lon="2.31245">
        <ele>93</ele>
        <time>2011-11-06T08:33:11Z</time>
      </trkpt>
      <trkpt lat="49.20292" lon="2.31255">
        <ele>93</ele>
        <time>2011-11-06T08:33:15Z</time>
      </trkpt>
      <trkpt lat="49.20301" lon="2.31265">
        <ele>93</ele>
        <time>2011-11-06T08:33:21Z</time>
      </trkpt>
      <trkpt lat="49.20309" lon="2.31274">
        <ele>93</ele>
        <time>2011-11-06T08:33:36Z</time>
      </trkpt>
      <trkpt lat="49.20313" lon="2.31287">
        <ele>93</ele>
        <time>2011-11-06T08:33:43Z</time>
      </trkpt>
      <trkpt lat="49.20305" lon="2.31275">
        <ele>93</ele>
        <time>2011-11-06T08:34:08Z</time>
      </trkpt>
      <trkpt lat="49.20299" lon="2.31263">
        <ele>93</ele>
        <time>2011-11-06T08:34:11Z</time>
      </trkpt>
      <trkpt lat="49.20292" lon="2.31253">
        <ele>93</ele>
        <time>2011-11-06T08:34:13Z</time>
      </trkpt>
      <trkpt lat="49.20285" lon="2.31243">
        <ele>93</ele>
        <time>2011-11-06T08:34:16Z</time>
      </trkpt>
      <trkpt lat="49.20278" lon="2.31234">
        <ele>93</ele>
        <time>2011-11-06T08:34:18Z</time>
      </trkpt>
      <trkpt lat="49.2027" lon="2.31221">
        <ele>93</ele>
        <time>2011-11-06T08:34:20Z</time>
      </trkpt>
      <trkpt lat="49.20261" lon="2.31208">
        <ele>93</ele>
        <time>2011-11-06T08:34:22Z</time>
      </trkpt>
      <trkpt lat="49.20251" lon="2.31195">
        <ele>93</ele>
        <time>2011-11-06T08:34:24Z</time>
      </trkpt>
      <trkpt lat="49.20241" lon="2.3118">
        <ele>93</ele>
        <time>2011-11-06T08:34:26Z</time>
      </trkpt>
      <trkpt lat="49.20229" lon="2.31164">
        <ele>93</ele>
        <time>2011-11-06T08:34:28Z</time>
      </trkpt>
      <trkpt lat="49.20218" lon="2.31148">
        <ele>93</ele>
        <time>2011-11-06T08:34:30Z</time>
      </trkpt>
      <trkpt lat="49.20208" lon="2.31134">
        <ele>93</ele>
        <time>2011-11-06T08:34:32Z</time>
      </trkpt>
      <trkpt lat="49.20199" lon="2.3112">
        <ele>93</ele>
        <time>2011-11-06T08:34:34Z</time>
      </trkpt>
      <trkpt lat="49.20188" lon="2.31104">
        <ele>93</ele>
        <time>2011-11-06T08:34:36Z</time>
      </trkpt>
      <trkpt lat="49.20177" lon="2.31089">
        <ele>93</ele>
        <time>2011-11-06T08:34:38Z</time>
      </trkpt>
      <trkpt lat="49.20166" lon="2.31071">
        <ele>93</ele>
        <time>2011-11-06T08:34:40Z</time>
      </trkpt>
      <trkpt lat="49.20154" lon="2.31053">
        <ele>93</ele>
        <time>2011-11-06T08:34:42Z</time>
      </trkpt>
      <trkpt lat="49.20142" lon="2.31034">
        <ele>93</ele>
        <time>2011-11-06T08:34:44Z</time>
      </trkpt>
      <trkpt lat="49.20132" lon="2.31015">
        <ele>93</ele>
        <time>2011-11-06T08:34:46Z</time>
      </trkpt>
      <trkpt lat="49.20121" lon="2.30996">
        <ele>93</ele>
        <time>2011-11-06T08:34:48Z</time>
      </trkpt>
      <trkpt lat="49.20113" lon="2.30974">
        <ele>93</ele>
        <time>2011-11-06T08:34:50Z</time>
      </trkpt>
      <trkpt lat="49.20105" lon="2.30952">
        <ele>93</ele>
        <time>2011-11-06T08:34:52Z</time>
      </trkpt>
      <trkpt lat="49.20097" lon="2.30929">
        <ele>93</ele>
        <time>2011-11-06T08:34:54Z</time>
      </trkpt>
      <trkpt lat="49.20089" lon="2.30907">
        <ele>93</ele>
        <time>2011-11-06T08:34:56Z</time>
      </trkpt>
      <trkpt lat="49.20082" lon="2.30887">
        <ele>93</ele>
        <time>2011-11-06T08:34:58Z</time>
      </trkpt>
      <trkpt lat="49.20076" lon="2.30868">
        <ele>93</ele>
        <time>2011-11-06T08:35:00Z</time>
      </trkpt>
      <trkpt lat="49.20071" lon="2.30847">
        <ele>93</ele>
        <time>2011-11-06T08:35:02Z</time>
      </trkpt>
      <trkpt lat="49.20063" lon="2.30826">
        <ele>93</ele>
        <time>2011-11-06T08:35:04Z</time>
      </trkpt>
      <trkpt lat="49.20056" lon="2.30806">
        <ele>93</ele>
        <time>2011-11-06T08:35:06Z</time>
      </trkpt>
      <trkpt lat="49.2005" lon="2.3079">
        <ele>93</ele>
        <time>2011-11-06T08:35:08Z</time>
      </trkpt>
      <trkpt lat="49.20041" lon="2.30784">
        <ele>93</ele>
        <time>2011-11-06T08:35:10Z</time>
      </trkpt>
      <trkpt lat="49.2003" lon="2.30788">
        <ele>93</ele>
        <time>2011-11-06T08:35:12Z</time>
      </trkpt>
      <trkpt lat="49.20016" lon="2.30795">
        <ele>93</ele>
        <time>2011-11-06T08:35:14Z</time>
      </trkpt>
      <trkpt lat="49.2" lon="2.30802">
        <ele>93</ele>
        <time>2011-11-06T08:35:16Z</time>
      </trkpt>
      <trkpt lat="49.19991" lon="2.30806">
        <ele>93</ele>
        <time>2011-11-06T08:35:17Z</time>
      </trkpt>
      <trkpt lat="49.19982" lon="2.3081">
        <ele>93</ele>
        <time>2011-11-06T08:35:18Z</time>
      </trkpt>
      <trkpt lat="49.19972" lon="2.30814">
        <ele>93</ele>
        <time>2011-11-06T08:35:19Z</time>
      </trkpt>
      <trkpt lat="49.19955" lon="2.3082">
        <ele>93</ele>
        <time>2011-11-06T08:35:21Z</time>
      </trkpt>
      <trkpt lat="49.19946" lon="2.30824">
        <ele>93</ele>
        <time>2011-11-06T08:35:22Z</time>
      </trkpt>
      <trkpt lat="49.19929" lon="2.30829">
        <ele>93</ele>
        <time>2011-11-06T08:35:24Z</time>
      </trkpt>
      <trkpt lat="49.19912" lon="2.30836">
        <ele>93</ele>
        <time>2011-11-06T08:35:26Z</time>
      </trkpt>
      <trkpt lat="49.19895" lon="2.30841">
        <ele>93</ele>
        <time>2011-11-06T08:35:28Z</time>
      </trkpt>
      <trkpt lat="49.19879" lon="2.30846">
        <ele>93</ele>
        <time>2011-11-06T08:35:30Z</time>
      </trkpt>
      <trkpt lat="49.19862" lon="2.30851">
        <ele>93</ele>
        <time>2011-11-06T08:35:32Z</time>
      </trkpt>
      <trkpt lat="49.19849" lon="2.30856">
        <ele>93</ele>
        <time>2011-11-06T08:35:34Z</time>
      </trkpt>
      <trkpt lat="49.19837" lon="2.30859">
        <ele>93</ele>
        <time>2011-11-06T08:35:36Z</time>
      </trkpt>
      <trkpt lat="49.19831" lon="2.30873">
        <ele>93</ele>
        <time>2011-11-06T08:35:39Z</time>
      </trkpt>
      <trkpt lat="49.1983" lon="2.30891">
        <ele>93</ele>
        <time>2011-11-06T08:35:41Z</time>
      </trkpt>
      <trkpt lat="49.1983" lon="2.30916">
        <ele>93</ele>
        <time>2011-11-06T08:35:43Z</time>
      </trkpt>
      <trkpt lat="49.1983" lon="2.30931">
        <ele>93</ele>
        <time>2011-11-06T08:35:44Z</time>
      </trkpt>
      <trkpt lat="49.1983" lon="2.30946">
        <ele>93</ele>
        <time>2011-11-06T08:35:45Z</time>
      </trkpt>
      <trkpt lat="49.1983" lon="2.30961">
        <ele>93</ele>
        <time>2011-11-06T08:35:46Z</time>
      </trkpt>
      <trkpt lat="49.19829" lon="2.30976">
        <ele>93</ele>
        <time>2011-11-06T08:35:47Z</time>
      </trkpt>
      <trkpt lat="49.19829" lon="2.30991">
        <ele>93</ele>
        <time>2011-11-06T08:35:48Z</time>
      </trkpt>
      <trkpt lat="49.19829" lon="2.31007">
        <ele>93</ele>
        <time>2011-11-06T08:35:49Z</time>
      </trkpt>
      <trkpt lat="49.19829" lon="2.31024">
        <ele>93</ele>
        <time>2011-11-06T08:35:50Z</time>
      </trkpt>
      <trkpt lat="49.19828" lon="2.31041">
        <ele>93</ele>
        <time>2011-11-06T08:35:51Z</time>
      </trkpt>
      <trkpt lat="49.19827" lon="2.31058">
        <ele>93</ele>
        <time>2011-11-06T08:35:52Z</time>
      </trkpt>
      <trkpt lat="49.19826" lon="2.31075">
        <ele>93</ele>
        <time>2011-11-06T08:35:53Z</time>
      </trkpt>
      <trkpt lat="49.19823" lon="2.31093">
        <ele>93</ele>
        <time>2011-11-06T08:35:54Z</time>
      </trkpt>
      <trkpt lat="49.19821" lon="2.3111">
        <ele>93</ele>
        <time>2011-11-06T08:35:55Z</time>
      </trkpt>
      <trkpt lat="49.19817" lon="2.31127">
        <ele>93</ele>
        <time>2011-11-06T08:35:56Z</time>
      </trkpt>
      <trkpt lat="49.19813" lon="2.31142">
        <ele>93</ele>
        <time>2011-11-06T08:35:57Z</time>
      </trkpt>
      <trkpt lat="49.19809" lon="2.31156">
        <ele>93</ele>
        <time>2011-11-06T08:35:58Z</time>
      </trkpt>
      <trkpt lat="49.19804" lon="2.31172">
        <ele>93</ele>
        <time>2011-11-06T08:35:59Z</time>
      </trkpt>
      <trkpt lat="49.198" lon="2.31186">
        <ele>93</ele>
        <time>2011-11-06T08:36:00Z</time>
      </trkpt>
      <trkpt lat="49.19795" lon="2.31201">
        <ele>93</ele>
        <time>2011-11-06T08:36:01Z</time>
      </trkpt>
      <trkpt lat="49.19791" lon="2.31217">
        <ele>93</ele>
        <time>2011-11-06T08:36:02Z</time>
      </trkpt>
      <trkpt lat="49.19786" lon="2.31232">
        <ele>93</ele>
        <time>2011-11-06T08:36:03Z</time>
      </trkpt>
      <trkpt lat="49.19782" lon="2.31245">
        <ele>93</ele>
        <time>2011-11-06T08:36:04Z</time>
      </trkpt>
      <trkpt lat="49.19777" lon="2.3126">
        <ele>93</ele>
        <time>2011-11-06T08:36:05Z</time>
      </trkpt>
      <trkpt lat="49.19773" lon="2.31274">
        <ele>93</ele>
        <time>2011-11-06T08:36:06Z</time>
      </trkpt>
      <trkpt lat="49.19769" lon="2.31288">
        <ele>93</ele>
        <time>2011-11-06T08:36:07Z</time>
      </trkpt>
      <trkpt lat="49.19764" lon="2.31303">
        <ele>93</ele>
        <time>2011-11-06T08:36:08Z</time>
      </trkpt>
      <trkpt lat="49.1976" lon="2.31317">
        <ele>93</ele>
        <time>2011-11-06T08:36:09Z</time>
      </trkpt>
      <trkpt lat="49.19756" lon="2.31331">
        <ele>93</ele>
        <time>2011-11-06T08:36:10Z</time>
      </trkpt>
      <trkpt lat="49.19749" lon="2.31354">
        <ele>93</ele>
        <time>2011-11-06T08:36:12Z</time>
      </trkpt>
      <trkpt lat="49.19743" lon="2.31376">
        <ele>93</ele>
        <time>2011-11-06T08:36:14Z</time>
      </trkpt>
      <trkpt lat="49.19737" lon="2.31393">
        <ele>93</ele>
        <time>2011-11-06T08:36:16Z</time>
      </trkpt>
      <trkpt lat="49.19728" lon="2.31405">
        <ele>93</ele>
        <time>2011-11-06T08:36:19Z</time>
      </trkpt>
      <trkpt lat="49.19717" lon="2.31405">
        <ele>93</ele>
        <time>2011-11-06T08:36:21Z</time>
      </trkpt>
      <trkpt lat="49.19703" lon="2.31402">
        <ele>93</ele>
        <time>2011-11-06T08:36:23Z</time>
      </trkpt>
      <trkpt lat="49.19686" lon="2.31398">
        <ele>93</ele>
        <time>2011-11-06T08:36:25Z</time>
      </trkpt>
      <trkpt lat="49.19676" lon="2.31396">
        <ele>93</ele>
        <time>2011-11-06T08:36:26Z</time>
      </trkpt>
      <trkpt lat="49.19666" lon="2.31394">
        <ele>93</ele>
        <time>2011-11-06T08:36:27Z</time>
      </trkpt>
      <trkpt lat="49.19656" lon="2.31392">
        <ele>93</ele>
        <time>2011-11-06T08:36:28Z</time>
      </trkpt>
      <trkpt lat="49.19646" lon="2.3139">
        <ele>93</ele>
        <time>2011-11-06T08:36:29Z</time>
      </trkpt>
      <trkpt lat="49.19636" lon="2.31387">
        <ele>93</ele>
        <time>2011-11-06T08:36:30Z</time>
      </trkpt>
      <trkpt lat="49.19626" lon="2.31385">
        <ele>93</ele>
        <time>2011-11-06T08:36:31Z</time>
      </trkpt>
      <trkpt lat="49.19615" lon="2.31382">
        <ele>93</ele>
        <time>2011-11-06T08:36:32Z</time>
      </trkpt>
      <trkpt lat="49.19604" lon="2.31379">
        <ele>93</ele>
        <time>2011-11-06T08:36:33Z</time>
      </trkpt>
      <trkpt lat="49.19594" lon="2.31377">
        <ele>93</ele>
        <time>2011-11-06T08:36:34Z</time>
      </trkpt>
      <trkpt lat="49.19577" lon="2.31374">
        <ele>93</ele>
        <time>2011-11-06T08:36:36Z</time>
      </trkpt>
      <trkpt lat="49.1956" lon="2.3137">
        <ele>93</ele>
        <time>2011-11-06T08:36:38Z</time>
      </trkpt>
      <trkpt lat="49.19541" lon="2.31367">
        <ele>93</ele>
        <time>2011-11-06T08:36:40Z</time>
      </trkpt>
      <trkpt lat="49.19531" lon="2.31365">
        <ele>93</ele>
        <time>2011-11-06T08:36:41Z</time>
      </trkpt>
      <trkpt lat="49.19521" lon="2.31363">
        <ele>93</ele>
        <time>2011-11-06T08:36:42Z</time>
      </trkpt>
      <trkpt lat="49.1951" lon="2.31361">
        <ele>93</ele>
        <time>2011-11-06T08:36:43Z</time>
      </trkpt>
      <trkpt lat="49.19498" lon="2.31359">
        <ele>93</ele>
        <time>2011-11-06T08:36:44Z</time>
      </trkpt>
      <trkpt lat="49.19488" lon="2.31358">
        <ele>93</ele>
        <time>2011-11-06T08:36:45Z</time>
      </trkpt>
      <trkpt lat="49.19477" lon="2.31355">
        <ele>93</ele>
        <time>2011-11-06T08:36:46Z</time>
      </trkpt>
      <trkpt lat="49.19466" lon="2.31353">
        <ele>93</ele>
        <time>2011-11-06T08:36:47Z</time>
      </trkpt>
      <trkpt lat="49.19456" lon="2.31351">
        <ele>93</ele>
        <time>2011-11-06T08:36:48Z</time>
      </trkpt>
      <trkpt lat="49.19445" lon="2.31349">
        <ele>93</ele>
        <time>2011-11-06T08:36:49Z</time>
      </trkpt>
      <trkpt lat="49.19436" lon="2.31348">
        <ele>93</ele>
        <time>2011-11-06T08:36:50Z</time>
      </trkpt>
      <trkpt lat="49.19427" lon="2.31346">
        <ele>93</ele>
        <time>2011-11-06T08:36:51Z</time>
      </trkpt>
      <trkpt lat="49.19409" lon="2.31342">
        <ele>93</ele>
        <time>2011-11-06T08:36:53Z</time>
      </trkpt>
      <trkpt lat="49.19393" lon="2.3134">
        <ele>93</ele>
        <time>2011-11-06T08:36:55Z</time>
      </trkpt>
      <trkpt lat="49.19379" lon="2.31338">
        <ele>93</ele>
        <time>2011-11-06T08:36:57Z</time>
      </trkpt>
      <trkpt lat="49.19368" lon="2.31336">
        <ele>93</ele>
        <time>2011-11-06T08:36:59Z</time>
      </trkpt>
      <trkpt lat="49.19358" lon="2.31334">
        <ele>93</ele>
        <time>2011-11-06T08:37:01Z</time>
      </trkpt>
      <trkpt lat="49.19346" lon="2.31332">
        <ele>93</ele>
        <time>2011-11-06T08:37:04Z</time>
      </trkpt>
      <trkpt lat="49.19336" lon="2.31337">
        <ele>93</ele>
        <time>2011-11-06T08:37:08Z</time>
      </trkpt>
      <trkpt lat="49.19334" lon="2.3135">
        <ele>93</ele>
        <time>2011-11-06T08:37:10Z</time>
      </trkpt>
      <trkpt lat="49.19333" lon="2.31373">
        <ele>93</ele>
        <time>2011-11-06T08:37:12Z</time>
      </trkpt>
      <trkpt lat="49.19331" lon="2.31402">
        <ele>88</ele>
        <time>2011-11-06T08:37:14Z</time>
      </trkpt>
      <trkpt lat="49.19329" lon="2.31419">
        <ele>88</ele>
        <time>2011-11-06T08:37:15Z</time>
      </trkpt>
      <trkpt lat="49.19329" lon="2.31436">
        <ele>88</ele>
        <time>2011-11-06T08:37:16Z</time>
      </trkpt>
      <trkpt lat="49.19328" lon="2.31454">
        <ele>88</ele>
        <time>2011-11-06T08:37:17Z</time>
      </trkpt>
      <trkpt lat="49.19326" lon="2.31472">
        <ele>88</ele>
        <time>2011-11-06T08:37:18Z</time>
      </trkpt>
      <trkpt lat="49.19325" lon="2.3149">
        <ele>88</ele>
        <time>2011-11-06T08:37:19Z</time>
      </trkpt>
      <trkpt lat="49.19323" lon="2.31509">
        <ele>88</ele>
        <time>2011-11-06T08:37:20Z</time>
      </trkpt>
      <trkpt lat="49.19322" lon="2.31529">
        <ele>88</ele>
        <time>2011-11-06T08:37:21Z</time>
      </trkpt>
      <trkpt lat="49.1932" lon="2.3155">
        <ele>88</ele>
        <time>2011-11-06T08:37:22Z</time>
      </trkpt>
      <trkpt lat="49.19319" lon="2.3157">
        <ele>88</ele>
        <time>2011-11-06T08:37:23Z</time>
      </trkpt>
      <trkpt lat="49.19318" lon="2.31591">
        <ele>88</ele>
        <time>2011-11-06T08:37:24Z</time>
      </trkpt>
      <trkpt lat="49.19316" lon="2.31611">
        <ele>88</ele>
        <time>2011-11-06T08:37:25Z</time>
      </trkpt>
      <trkpt lat="49.19314" lon="2.31632">
        <ele>88</ele>
        <time>2011-11-06T08:37:26Z</time>
      </trkpt>
      <trkpt lat="49.19312" lon="2.31652">
        <ele>88</ele>
        <time>2011-11-06T08:37:27Z</time>
      </trkpt>
      <trkpt lat="49.19311" lon="2.31674">
        <ele>88</ele>
        <time>2011-11-06T08:37:28Z</time>
      </trkpt>
      <trkpt lat="49.19309" lon="2.31694">
        <ele>88</ele>
        <time>2011-11-06T08:37:29Z</time>
      </trkpt>
      <trkpt lat="49.19307" lon="2.31717">
        <ele>88</ele>
        <time>2011-11-06T08:37:30Z</time>
      </trkpt>
      <trkpt lat="49.19305" lon="2.31739">
        <ele>88</ele>
        <time>2011-11-06T08:37:31Z</time>
      </trkpt>
      <trkpt lat="49.19303" lon="2.31762">
        <ele>88</ele>
        <time>2011-11-06T08:37:32Z</time>
      </trkpt>
      <trkpt lat="49.19302" lon="2.31783">
        <ele>88</ele>
        <time>2011-11-06T08:37:33Z</time>
      </trkpt>
      <trkpt lat="49.19302" lon="2.31804">
        <ele>88</ele>
        <time>2011-11-06T08:37:34Z</time>
      </trkpt>
      <trkpt lat="49.19302" lon="2.31826">
        <ele>88</ele>
        <time>2011-11-06T08:37:35Z</time>
      </trkpt>
      <trkpt lat="49.19303" lon="2.31849">
        <ele>88</ele>
        <time>2011-11-06T08:37:36Z</time>
      </trkpt>
      <trkpt lat="49.19306" lon="2.31871">
        <ele>88</ele>
        <time>2011-11-06T08:37:37Z</time>
      </trkpt>
      <trkpt lat="49.19309" lon="2.31895">
        <ele>82</ele>
        <time>2011-11-06T08:37:38Z</time>
      </trkpt>
      <trkpt lat="49.19313" lon="2.31918">
        <ele>82</ele>
        <time>2011-11-06T08:37:39Z</time>
      </trkpt>
      <trkpt lat="49.19318" lon="2.31942">
        <ele>82</ele>
        <time>2011-11-06T08:37:40Z</time>
      </trkpt>
      <trkpt lat="49.19321" lon="2.31967">
        <ele>82</ele>
        <time>2011-11-06T08:37:41Z</time>
      </trkpt>
      <trkpt lat="49.19325" lon="2.31992">
        <ele>82</ele>
        <time>2011-11-06T08:37:42Z</time>
      </trkpt>
      <trkpt lat="49.19329" lon="2.32016">
        <ele>82</ele>
        <time>2011-11-06T08:37:43Z</time>
      </trkpt>
      <trkpt lat="49.19332" lon="2.32039">
        <ele>82</ele>
        <time>2011-11-06T08:37:44Z</time>
      </trkpt>
      <trkpt lat="49.19336" lon="2.32063">
        <ele>82</ele>
        <time>2011-11-06T08:37:45Z</time>
      </trkpt>
      <trkpt lat="49.19339" lon="2.32084">
        <ele>82</ele>
        <time>2011-11-06T08:37:46Z</time>
      </trkpt>
      <trkpt lat="49.19343" lon="2.32106">
        <ele>82</ele>
        <time>2011-11-06T08:37:47Z</time>
      </trkpt>
      <trkpt lat="49.19346" lon="2.32127">
        <ele>82</ele>
        <time>2011-11-06T08:37:48Z</time>
      </trkpt>
      <trkpt lat="49.19349" lon="2.32147">
        <ele>77</ele>
        <time>2011-11-06T08:37:49Z</time>
      </trkpt>
      <trkpt lat="49.19353" lon="2.32169">
        <ele>77</ele>
        <time>2011-11-06T08:37:50Z</time>
      </trkpt>
      <trkpt lat="49.19356" lon="2.32191">
        <ele>77</ele>
        <time>2011-11-06T08:37:51Z</time>
      </trkpt>
      <trkpt lat="49.1936" lon="2.32214">
        <ele>77</ele>
        <time>2011-11-06T08:37:52Z</time>
      </trkpt>
      <trkpt lat="49.19364" lon="2.32237">
        <ele>77</ele>
        <time>2011-11-06T08:37:53Z</time>
      </trkpt>
      <trkpt lat="49.19367" lon="2.32259">
        <ele>77</ele>
        <time>2011-11-06T08:37:54Z</time>
      </trkpt>
      <trkpt lat="49.1937" lon="2.32282">
        <ele>77</ele>
        <time>2011-11-06T08:37:55Z</time>
      </trkpt>
      <trkpt lat="49.19373" lon="2.32303">
        <ele>77</ele>
        <time>2011-11-06T08:37:56Z</time>
      </trkpt>
      <trkpt lat="49.19376" lon="2.32326">
        <ele>77</ele>
        <time>2011-11-06T08:37:57Z</time>
      </trkpt>
      <trkpt lat="49.19378" lon="2.32348">
        <ele>72</ele>
        <time>2011-11-06T08:37:58Z</time>
      </trkpt>
      <trkpt lat="49.19379" lon="2.32371">
        <ele>72</ele>
        <time>2011-11-06T08:37:59Z</time>
      </trkpt>
      <trkpt lat="49.19381" lon="2.32394">
        <ele>72</ele>
        <time>2011-11-06T08:38:00Z</time>
      </trkpt>
      <trkpt lat="49.19382" lon="2.32416">
        <ele>72</ele>
        <time>2011-11-06T08:38:01Z</time>
      </trkpt>
      <trkpt lat="49.19384" lon="2.32437">
        <ele>72</ele>
        <time>2011-11-06T08:38:02Z</time>
      </trkpt>
      <trkpt lat="49.19384" lon="2.32458">
        <ele>72</ele>
        <time>2011-11-06T08:38:03Z</time>
      </trkpt>
      <trkpt lat="49.19385" lon="2.32479">
        <ele>72</ele>
        <time>2011-11-06T08:38:04Z</time>
      </trkpt>
      <trkpt lat="49.19386" lon="2.32498">
        <ele>72</ele>
        <time>2011-11-06T08:38:05Z</time>
      </trkpt>
      <trkpt lat="49.19388" lon="2.32516">
        <ele>72</ele>
        <time>2011-11-06T08:38:06Z</time>
      </trkpt>
      <trkpt lat="49.19388" lon="2.32534">
        <ele>72</ele>
        <time>2011-11-06T08:38:07Z</time>
      </trkpt>
      <trkpt lat="49.19388" lon="2.32553">
        <ele>67</ele>
        <time>2011-11-06T08:38:08Z</time>
      </trkpt>
      <trkpt lat="49.19388" lon="2.32572">
        <ele>67</ele>
        <time>2011-11-06T08:38:09Z</time>
      </trkpt>
      <trkpt lat="49.19385" lon="2.32591">
        <ele>67</ele>
        <time>2011-11-06T08:38:10Z</time>
      </trkpt>
      <trkpt lat="49.19384" lon="2.32611">
        <ele>67</ele>
        <time>2011-11-06T08:38:11Z</time>
      </trkpt>
      <trkpt lat="49.19381" lon="2.3263">
        <ele>67</ele>
        <time>2011-11-06T08:38:12Z</time>
      </trkpt>
      <trkpt lat="49.19379" lon="2.32648">
        <ele>67</ele>
        <time>2011-11-06T08:38:13Z</time>
      </trkpt>
      <trkpt lat="49.19376" lon="2.32665">
        <ele>67</ele>
        <time>2011-11-06T08:38:14Z</time>
      </trkpt>
      <trkpt lat="49.19375" lon="2.3268">
        <ele>67</ele>
        <time>2011-11-06T08:38:15Z</time>
      </trkpt>
      <trkpt lat="49.19372" lon="2.32696">
        <ele>67</ele>
        <time>2011-11-06T08:38:16Z</time>
      </trkpt>
      <trkpt lat="49.1937" lon="2.32711">
        <ele>67</ele>
        <time>2011-11-06T08:38:17Z</time>
      </trkpt>
      <trkpt lat="49.19368" lon="2.32725">
        <ele>67</ele>
        <time>2011-11-06T08:38:18Z</time>
      </trkpt>
      <trkpt lat="49.19364" lon="2.32751">
        <ele>62</ele>
        <time>2011-11-06T08:38:20Z</time>
      </trkpt>
      <trkpt lat="49.19362" lon="2.32772">
        <ele>62</ele>
        <time>2011-11-06T08:38:22Z</time>
      </trkpt>
      <trkpt lat="49.1936" lon="2.3279">
        <ele>62</ele>
        <time>2011-11-06T08:38:24Z</time>
      </trkpt>
      <trkpt lat="49.19358" lon="2.32804">
        <ele>62</ele>
        <time>2011-11-06T08:38:26Z</time>
      </trkpt>
      <trkpt lat="49.19359" lon="2.3282">
        <ele>62</ele>
        <time>2011-11-06T08:38:31Z</time>
      </trkpt>
      <trkpt lat="49.19369" lon="2.32823">
        <ele>62</ele>
        <time>2011-11-06T08:38:33Z</time>
      </trkpt>
      <trkpt lat="49.19384" lon="2.32822">
        <ele>62</ele>
        <time>2011-11-06T08:38:35Z</time>
      </trkpt>
      <trkpt lat="49.19402" lon="2.32822">
        <ele>62</ele>
        <time>2011-11-06T08:38:37Z</time>
      </trkpt>
      <trkpt lat="49.19412" lon="2.32822">
        <ele>62</ele>
        <time>2011-11-06T08:38:38Z</time>
      </trkpt>
      <trkpt lat="49.19423" lon="2.32822">
        <ele>62</ele>
        <time>2011-11-06T08:38:39Z</time>
      </trkpt>
      <trkpt lat="49.19435" lon="2.32822">
        <ele>62</ele>
        <time>2011-11-06T08:38:40Z</time>
      </trkpt>
      <trkpt lat="49.19447" lon="2.32821">
        <ele>62</ele>
        <time>2011-11-06T08:38:41Z</time>
      </trkpt>
      <trkpt lat="49.19459" lon="2.32821">
        <ele>62</ele>
        <time>2011-11-06T08:38:42Z</time>
      </trkpt>
      <trkpt lat="49.19472" lon="2.32821">
        <ele>62</ele>
        <time>2011-11-06T08:38:43Z</time>
      </trkpt>
      <trkpt lat="49.19486" lon="2.32821">
        <ele>62</ele>
        <time>2011-11-06T08:38:44Z</time>
      </trkpt>
      <trkpt lat="49.195" lon="2.3282">
        <ele>62</ele>
        <time>2011-11-06T08:38:45Z</time>
      </trkpt>
      <trkpt lat="49.19514" lon="2.32819">
        <ele>62</ele>
        <time>2011-11-06T08:38:46Z</time>
      </trkpt>
      <trkpt lat="49.19528" lon="2.32816">
        <ele>62</ele>
        <time>2011-11-06T08:38:47Z</time>
      </trkpt>
      <trkpt lat="49.19542" lon="2.32813">
        <ele>62</ele>
        <time>2011-11-06T08:38:48Z</time>
      </trkpt>
      <trkpt lat="49.19557" lon="2.32809">
        <ele>62</ele>
        <time>2011-11-06T08:38:49Z</time>
      </trkpt>
      <trkpt lat="49.19572" lon="2.32804">
        <ele>62</ele>
        <time>2011-11-06T08:38:50Z</time>
      </trkpt>
      <trkpt lat="49.19586" lon="2.32798">
        <ele>62</ele>
        <time>2011-11-06T08:38:51Z</time>
      </trkpt>
      <trkpt lat="49.196" lon="2.32792">
        <ele>62</ele>
        <time>2011-11-06T08:38:52Z</time>
      </trkpt>
      <trkpt lat="49.19614" lon="2.32785">
        <ele>62</ele>
        <time>2011-11-06T08:38:53Z</time>
      </trkpt>
      <trkpt lat="49.19628" lon="2.32776">
        <ele>62</ele>
        <time>2011-11-06T08:38:54Z</time>
      </trkpt>
      <trkpt lat="49.19643" lon="2.32767">
        <ele>62</ele>
        <time>2011-11-06T08:38:55Z</time>
      </trkpt>
      <trkpt lat="49.19657" lon="2.32757">
        <ele>62</ele>
        <time>2011-11-06T08:38:56Z</time>
      </trkpt>
      <trkpt lat="49.19671" lon="2.32746">
        <ele>62</ele>
        <time>2011-11-06T08:38:57Z</time>
      </trkpt>
      <trkpt lat="49.19686" lon="2.32736">
        <ele>62</ele>
        <time>2011-11-06T08:38:58Z</time>
      </trkpt>
      <trkpt lat="49.197" lon="2.32726">
        <ele>62</ele>
        <time>2011-11-06T08:38:59Z</time>
      </trkpt>
      <trkpt lat="49.19713" lon="2.32716">
        <ele>62</ele>
        <time>2011-11-06T08:39:00Z</time>
      </trkpt>
      <trkpt lat="49.19726" lon="2.32706">
        <ele>62</ele>
        <time>2011-11-06T08:39:01Z</time>
      </trkpt>
      <trkpt lat="49.19738" lon="2.32695">
        <ele>62</ele>
        <time>2011-11-06T08:39:02Z</time>
      </trkpt>
      <trkpt lat="49.19749" lon="2.32683">
        <ele>62</ele>
        <time>2011-11-06T08:39:03Z</time>
      </trkpt>
      <trkpt lat="49.1976" lon="2.32668">
        <ele>62</ele>
        <time>2011-11-06T08:39:04Z</time>
      </trkpt>
      <trkpt lat="49.19769" lon="2.32653">
        <ele>62</ele>
        <time>2011-11-06T08:39:05Z</time>
      </trkpt>
      <trkpt lat="49.19779" lon="2.32637">
        <ele>62</ele>
        <time>2011-11-06T08:39:06Z</time>
      </trkpt>
      <trkpt lat="49.19789" lon="2.32621">
        <ele>62</ele>
        <time>2011-11-06T08:39:07Z</time>
      </trkpt>
      <trkpt lat="49.19799" lon="2.32604">
        <ele>62</ele>
        <time>2011-11-06T08:39:08Z</time>
      </trkpt>
      <trkpt lat="49.19809" lon="2.32587">
        <ele>62</ele>
        <time>2011-11-06T08:39:09Z</time>
      </trkpt>
      <trkpt lat="49.19819" lon="2.32571">
        <ele>67</ele>
        <time>2011-11-06T08:39:10Z</time>
      </trkpt>
      <trkpt lat="49.19829" lon="2.32556">
        <ele>67</ele>
        <time>2011-11-06T08:39:11Z</time>
      </trkpt>
      <trkpt lat="49.19839" lon="2.3254">
        <ele>67</ele>
        <time>2011-11-06T08:39:12Z</time>
      </trkpt>
      <trkpt lat="49.1985" lon="2.32524">
        <ele>67</ele>
        <time>2011-11-06T08:39:13Z</time>
      </trkpt>
      <trkpt lat="49.19861" lon="2.32511">
        <ele>67</ele>
        <time>2011-11-06T08:39:14Z</time>
      </trkpt>
      <trkpt lat="49.19873" lon="2.32499">
        <ele>67</ele>
        <time>2011-11-06T08:39:15Z</time>
      </trkpt>
      <trkpt lat="49.19885" lon="2.32488">
        <ele>67</ele>
        <time>2011-11-06T08:39:16Z</time>
      </trkpt>
      <trkpt lat="49.19897" lon="2.32478">
        <ele>67</ele>
        <time>2011-11-06T08:39:17Z</time>
      </trkpt>
      <trkpt lat="49.1991" lon="2.32469">
        <ele>67</ele>
        <time>2011-11-06T08:39:18Z</time>
      </trkpt>
      <trkpt lat="49.19923" lon="2.3246">
        <ele>67</ele>
        <time>2011-11-06T08:39:19Z</time>
      </trkpt>
      <trkpt lat="49.19936" lon="2.32453">
        <ele>67</ele>
        <time>2011-11-06T08:39:20Z</time>
      </trkpt>
      <trkpt lat="49.19948" lon="2.32445">
        <ele>72</ele>
        <time>2011-11-06T08:39:21Z</time>
      </trkpt>
      <trkpt lat="49.19959" lon="2.32438">
        <ele>72</ele>
        <time>2011-11-06T08:39:22Z</time>
      </trkpt>
      <trkpt lat="49.1997" lon="2.32431">
        <ele>72</ele>
        <time>2011-11-06T08:39:23Z</time>
      </trkpt>
      <trkpt lat="49.19981" lon="2.32425">
        <ele>72</ele>
        <time>2011-11-06T08:39:24Z</time>
      </trkpt>
      <trkpt lat="49.19992" lon="2.32418">
        <ele>72</ele>
        <time>2011-11-06T08:39:25Z</time>
      </trkpt>
      <trkpt lat="49.2" lon="2.32414">
        <ele>72</ele>
        <time>2011-11-06T08:39:26Z</time>
      </trkpt>
      <trkpt lat="49.20015" lon="2.32408">
        <ele>72</ele>
        <time>2011-11-06T08:39:28Z</time>
      </trkpt>
      <trkpt lat="49.20023" lon="2.32402">
        <ele>72</ele>
        <time>2011-11-06T08:39:30Z</time>
      </trkpt>
      <trkpt lat="49.2003" lon="2.32388">
        <ele>72</ele>
        <time>2011-11-06T08:39:33Z</time>
      </trkpt>
      <trkpt lat="49.20029" lon="2.3237">
        <ele>72</ele>
        <time>2011-11-06T08:39:35Z</time>
      </trkpt>
      <trkpt lat="49.2003" lon="2.32349">
        <ele>72</ele>
        <time>2011-11-06T08:39:37Z</time>
      </trkpt>
      <trkpt lat="49.20031" lon="2.32326">
        <ele>77</ele>
        <time>2011-11-06T08:39:39Z</time>
      </trkpt>
      <trkpt lat="49.20032" lon="2.32305">
        <ele>77</ele>
        <time>2011-11-06T08:39:41Z</time>
      </trkpt>
      <trkpt lat="49.20032" lon="2.32284">
        <ele>77</ele>
        <time>2011-11-06T08:39:43Z</time>
      </trkpt>
      <trkpt lat="49.20034" lon="2.32262">
        <ele>77</ele>
        <time>2011-11-06T08:39:45Z</time>
      </trkpt>
      <trkpt lat="49.20036" lon="2.32237">
        <ele>83</ele>
        <time>2011-11-06T08:39:47Z</time>
      </trkpt>
      <trkpt lat="49.20038" lon="2.32211">
        <ele>83</ele>
        <time>2011-11-06T08:39:49Z</time>
      </trkpt>
      <trkpt lat="49.2004" lon="2.32184">
        <ele>83</ele>
        <time>2011-11-06T08:39:51Z</time>
      </trkpt>
      <trkpt lat="49.20041" lon="2.3217">
        <ele>83</ele>
        <time>2011-11-06T08:39:52Z</time>
      </trkpt>
      <trkpt lat="49.20043" lon="2.32144">
        <ele>83</ele>
        <time>2011-11-06T08:39:54Z</time>
      </trkpt>
      <trkpt lat="49.20042" lon="2.3212">
        <ele>83</ele>
        <time>2011-11-06T08:39:56Z</time>
      </trkpt>
      <trkpt lat="49.20042" lon="2.32101">
        <ele>83</ele>
        <time>2011-11-06T08:39:58Z</time>
      </trkpt>
      <trkpt lat="49.20044" lon="2.32084">
        <ele>83</ele>
        <time>2011-11-06T08:40:00Z</time>
      </trkpt>
      <trkpt lat="49.20048" lon="2.3207">
        <ele>83</ele>
        <time>2011-11-06T08:40:02Z</time>
      </trkpt>
      <trkpt lat="49.20057" lon="2.32057">
        <ele>88</ele>
        <time>2011-11-06T08:40:04Z</time>
      </trkpt>
      <trkpt lat="49.20068" lon="2.32047">
        <ele>88</ele>
        <time>2011-11-06T08:40:06Z</time>
      </trkpt>
      <trkpt lat="49.2008" lon="2.32036">
        <ele>88</ele>
        <time>2011-11-06T08:40:08Z</time>
      </trkpt>
      <trkpt lat="49.20091" lon="2.32024">
        <ele>88</ele>
        <time>2011-11-06T08:40:10Z</time>
      </trkpt>
      <trkpt lat="49.20098" lon="2.32015">
        <ele>88</ele>
        <time>2011-11-06T08:40:12Z</time>
      </trkpt>
      <trkpt lat="49.20106" lon="2.32008">
        <ele>88</ele>
        <time>2011-11-06T08:40:14Z</time>
      </trkpt>
      <trkpt lat="49.20113" lon="2.31994">
        <ele>94</ele>
        <time>2011-11-06T08:40:17Z</time>
      </trkpt>
      <trkpt lat="49.20121" lon="2.31982">
        <ele>94</ele>
        <time>2011-11-06T08:40:20Z</time>
      </trkpt>
      <trkpt lat="49.20128" lon="2.31969">
        <ele>94</ele>
        <time>2011-11-06T08:40:23Z</time>
      </trkpt>
      <trkpt lat="49.20135" lon="2.31958">
        <ele>94</ele>
        <time>2011-11-06T08:40:26Z</time>
      </trkpt>
      <trkpt lat="49.20144" lon="2.3195">
        <ele>99</ele>
        <time>2011-11-06T08:40:29Z</time>
      </trkpt>
      <trkpt lat="49.20154" lon="2.3194">
        <ele>99</ele>
        <time>2011-11-06T08:40:32Z</time>
      </trkpt>
      <trkpt lat="49.20164" lon="2.31929">
        <ele>105</ele>
        <time>2011-11-06T08:40:35Z</time>
      </trkpt>
      <trkpt lat="49.20172" lon="2.31917">
        <ele>105</ele>
        <time>2011-11-06T08:40:37Z</time>
      </trkpt>
      <trkpt lat="49.20178" lon="2.31905">
        <ele>105</ele>
        <time>2011-11-06T08:40:39Z</time>
      </trkpt>
      <trkpt lat="49.20187" lon="2.31893">
        <ele>105</ele>
        <time>2011-11-06T08:40:41Z</time>
      </trkpt>
      <trkpt lat="49.20195" lon="2.31884">
        <ele>105</ele>
        <time>2011-11-06T08:40:43Z</time>
      </trkpt>
      <trkpt lat="49.20204" lon="2.31879">
        <ele>105</ele>
        <time>2011-11-06T08:40:45Z</time>
      </trkpt>
      <trkpt lat="49.20215" lon="2.31891">
        <ele>100</ele>
        <time>2011-11-06T08:40:48Z</time>
      </trkpt>
      <trkpt lat="49.20221" lon="2.31907">
        <ele>100</ele>
        <time>2011-11-06T08:40:50Z</time>
      </trkpt>
      <trkpt lat="49.20228" lon="2.31927">
        <ele>100</ele>
        <time>2011-11-06T08:40:52Z</time>
      </trkpt>
      <trkpt lat="49.20234" lon="2.31948">
        <ele>100</ele>
        <time>2011-11-06T08:40:54Z</time>
      </trkpt>
      <trkpt lat="49.20239" lon="2.3197">
        <ele>95</ele>
        <time>2011-11-06T08:40:56Z</time>
      </trkpt>
      <trkpt lat="49.20242" lon="2.31994">
        <ele>95</ele>
        <time>2011-11-06T08:40:58Z</time>
      </trkpt>
      <trkpt lat="49.20246" lon="2.32016">
        <ele>95</ele>
        <time>2011-11-06T08:41:00Z</time>
      </trkpt>
      <trkpt lat="49.20252" lon="2.32036">
        <ele>95</ele>
        <time>2011-11-06T08:41:02Z</time>
      </trkpt>
      <trkpt lat="49.20261" lon="2.32055">
        <ele>95</ele>
        <time>2011-11-06T08:41:04Z</time>
      </trkpt>
      <trkpt lat="49.20269" lon="2.32071">
        <ele>95</ele>
        <time>2011-11-06T08:41:06Z</time>
      </trkpt>
      <trkpt lat="49.20276" lon="2.32085">
        <ele>95</ele>
        <time>2011-11-06T08:41:08Z</time>
      </trkpt>
      <trkpt lat="49.20283" lon="2.32095">
        <ele>95</ele>
        <time>2011-11-06T08:41:10Z</time>
      </trkpt>
      <trkpt lat="49.20292" lon="2.32087">
        <ele>95</ele>
        <time>2011-11-06T08:41:13Z</time>
      </trkpt>
      <trkpt lat="49.20297" lon="2.3207">
        <ele>95</ele>
        <time>2011-11-06T08:41:15Z</time>
      </trkpt>
      <trkpt lat="49.20304" lon="2.32046">
        <ele>95</ele>
        <time>2011-11-06T08:41:17Z</time>
      </trkpt>
      <trkpt lat="49.20308" lon="2.32032">
        <ele>95</ele>
        <time>2011-11-06T08:41:18Z</time>
      </trkpt>
      <trkpt lat="49.20314" lon="2.32017">
        <ele>95</ele>
        <time>2011-11-06T08:41:19Z</time>
      </trkpt>
      <trkpt lat="49.20318" lon="2.32002">
        <ele>95</ele>
        <time>2011-11-06T08:41:20Z</time>
      </trkpt>
      <trkpt lat="49.20324" lon="2.31985">
        <ele>95</ele>
        <time>2011-11-06T08:41:21Z</time>
      </trkpt>
      <trkpt lat="49.20329" lon="2.31968">
        <ele>95</ele>
        <time>2011-11-06T08:41:22Z</time>
      </trkpt>
      <trkpt lat="49.20334" lon="2.3195">
        <ele>95</ele>
        <time>2011-11-06T08:41:23Z</time>
      </trkpt>
      <trkpt lat="49.2034" lon="2.31933">
        <ele>95</ele>
        <time>2011-11-06T08:41:24Z</time>
      </trkpt>
      <trkpt lat="49.20345" lon="2.31917">
        <ele>95</ele>
        <time>2011-11-06T08:41:25Z</time>
      </trkpt>
      <trkpt lat="49.20351" lon="2.31901">
        <ele>95</ele>
        <time>2011-11-06T08:41:26Z</time>
      </trkpt>
      <trkpt lat="49.20357" lon="2.31884">
        <ele>95</ele>
        <time>2011-11-06T08:41:27Z</time>
      </trkpt>
      <trkpt lat="49.20362" lon="2.31867">
        <ele>95</ele>
        <time>2011-11-06T08:41:28Z</time>
      </trkpt>
      <trkpt lat="49.20368" lon="2.31849">
        <ele>95</ele>
        <time>2011-11-06T08:41:29Z</time>
      </trkpt>
      <trkpt lat="49.20373" lon="2.31832">
        <ele>95</ele>
        <time>2011-11-06T08:41:30Z</time>
      </trkpt>
      <trkpt lat="49.20378" lon="2.31815">
        <ele>95</ele>
        <time>2011-11-06T08:41:31Z</time>
      </trkpt>
      <trkpt lat="49.20384" lon="2.31798">
        <ele>95</ele>
        <time>2011-11-06T08:41:32Z</time>
      </trkpt>
      <trkpt lat="49.2039" lon="2.31782">
        <ele>95</ele>
        <time>2011-11-06T08:41:33Z</time>
      </trkpt>
      <trkpt lat="49.20394" lon="2.31765">
        <ele>95</ele>
        <time>2011-11-06T08:41:34Z</time>
      </trkpt>
      <trkpt lat="49.204" lon="2.3175">
        <ele>95</ele>
        <time>2011-11-06T08:41:35Z</time>
      </trkpt>
      <trkpt lat="49.20404" lon="2.31735">
        <ele>95</ele>
        <time>2011-11-06T08:41:36Z</time>
      </trkpt>
      <trkpt lat="49.2041" lon="2.3172">
        <ele>95</ele>
        <time>2011-11-06T08:41:37Z</time>
      </trkpt>
      <trkpt lat="49.20414" lon="2.31704">
        <ele>95</ele>
        <time>2011-11-06T08:41:38Z</time>
      </trkpt>
      <trkpt lat="49.20419" lon="2.31689">
        <ele>95</ele>
        <time>2011-11-06T08:41:39Z</time>
      </trkpt>
      <trkpt lat="49.20424" lon="2.31673">
        <ele>95</ele>
        <time>2011-11-06T08:41:40Z</time>
      </trkpt>
      <trkpt lat="49.20428" lon="2.31657">
        <ele>95</ele>
        <time>2011-11-06T08:41:41Z</time>
      </trkpt>
      <trkpt lat="49.20433" lon="2.31641">
        <ele>95</ele>
        <time>2011-11-06T08:41:42Z</time>
      </trkpt>
      <trkpt lat="49.20438" lon="2.31626">
        <ele>95</ele>
        <time>2011-11-06T08:41:43Z</time>
      </trkpt>
      <trkpt lat="49.20443" lon="2.31613">
        <ele>95</ele>
        <time>2011-11-06T08:41:44Z</time>
      </trkpt>
      <trkpt lat="49.20452" lon="2.31593">
        <ele>95</ele>
        <time>2011-11-06T08:41:46Z</time>
      </trkpt>
      <trkpt lat="49.2046" lon="2.31585">
        <ele>95</ele>
        <time>2011-11-06T08:41:48Z</time>
      </trkpt>
      <trkpt lat="49.2047" lon="2.31584">
        <ele>95</ele>
        <time>2011-11-06T08:41:50Z</time>
      </trkpt>
      <trkpt lat="49.20481" lon="2.31587">
        <ele>95</ele>
        <time>2011-11-06T08:41:52Z</time>
      </trkpt>
      <trkpt lat="49.20494" lon="2.3159">
        <ele>95</ele>
        <time>2011-11-06T08:41:54Z</time>
      </trkpt>
      <trkpt lat="49.20509" lon="2.31596">
        <ele>95</ele>
        <time>2011-11-06T08:41:56Z</time>
      </trkpt>
      <trkpt lat="49.20527" lon="2.31599">
        <ele>95</ele>
        <time>2011-11-06T08:41:58Z</time>
      </trkpt>
      <trkpt lat="49.20536" lon="2.31601">
        <ele>95</ele>
        <time>2011-11-06T08:41:59Z</time>
      </trkpt>
      <trkpt lat="49.20546" lon="2.31604">
        <ele>95</ele>
        <time>2011-11-06T08:42:00Z</time>
      </trkpt>
      <trkpt lat="49.20557" lon="2.31606">
        <ele>95</ele>
        <time>2011-11-06T08:42:01Z</time>
      </trkpt>
      <trkpt lat="49.20567" lon="2.3161">
        <ele>95</ele>
        <time>2011-11-06T08:42:02Z</time>
      </trkpt>
      <trkpt lat="49.20577" lon="2.31614">
        <ele>95</ele>
        <time>2011-11-06T08:42:03Z</time>
      </trkpt>
      <trkpt lat="49.20588" lon="2.31617">
        <ele>100</ele>
        <time>2011-11-06T08:42:04Z</time>
      </trkpt>
      <trkpt lat="49.20599" lon="2.31621">
        <ele>100</ele>
        <time>2011-11-06T08:42:05Z</time>
      </trkpt>
      <trkpt lat="49.2061" lon="2.31624">
        <ele>100</ele>
        <time>2011-11-06T08:42:06Z</time>
      </trkpt>
      <trkpt lat="49.2062" lon="2.31628">
        <ele>100</ele>
        <time>2011-11-06T08:42:07Z</time>
      </trkpt>
      <trkpt lat="49.2063" lon="2.31632">
        <ele>100</ele>
        <time>2011-11-06T08:42:08Z</time>
      </trkpt>
      <trkpt lat="49.2064" lon="2.31635">
        <ele>100</ele>
        <time>2011-11-06T08:42:09Z</time>
      </trkpt>
      <trkpt lat="49.20651" lon="2.31639">
        <ele>100</ele>
        <time>2011-11-06T08:42:10Z</time>
      </trkpt>
      <trkpt lat="49.20661" lon="2.31642">
        <ele>100</ele>
        <time>2011-11-06T08:42:11Z</time>
      </trkpt>
      <trkpt lat="49.20672" lon="2.31647">
        <ele>100</ele>
        <time>2011-11-06T08:42:12Z</time>
      </trkpt>
      <trkpt lat="49.20682" lon="2.31651">
        <ele>100</ele>
        <time>2011-11-06T08:42:13Z</time>
      </trkpt>
      <trkpt lat="49.20693" lon="2.31656">
        <ele>100</ele>
        <time>2011-11-06T08:42:14Z</time>
      </trkpt>
      <trkpt lat="49.20703" lon="2.3166">
        <ele>100</ele>
        <time>2011-11-06T08:42:15Z</time>
      </trkpt>
      <trkpt lat="49.20714" lon="2.31666">
        <ele>100</ele>
        <time>2011-11-06T08:42:16Z</time>
      </trkpt>
      <trkpt lat="49.20726" lon="2.3167">
        <ele>100</ele>
        <time>2011-11-06T08:42:17Z</time>
      </trkpt>
      <trkpt lat="49.20737" lon="2.31675">
        <ele>100</ele>
        <time>2011-11-06T08:42:18Z</time>
      </trkpt>
      <trkpt lat="49.20748" lon="2.31679">
        <ele>100</ele>
        <time>2011-11-06T08:42:19Z</time>
      </trkpt>
      <trkpt lat="49.20759" lon="2.31684">
        <ele>100</ele>
        <time>2011-11-06T08:42:20Z</time>
      </trkpt>
      <trkpt lat="49.20769" lon="2.31688">
        <ele>100</ele>
        <time>2011-11-06T08:42:21Z</time>
      </trkpt>
      <trkpt lat="49.20779" lon="2.31693">
        <ele>100</ele>
        <time>2011-11-06T08:42:22Z</time>
      </trkpt>
      <trkpt lat="49.20789" lon="2.31697">
        <ele>105</ele>
        <time>2011-11-06T08:42:23Z</time>
      </trkpt>
      <trkpt lat="49.20799" lon="2.31701">
        <ele>105</ele>
        <time>2011-11-06T08:42:24Z</time>
      </trkpt>
      <trkpt lat="49.20809" lon="2.31705">
        <ele>105</ele>
        <time>2011-11-06T08:42:25Z</time>
      </trkpt>
      <trkpt lat="49.20819" lon="2.3171">
        <ele>105</ele>
        <time>2011-11-06T08:42:26Z</time>
      </trkpt>
      <trkpt lat="49.20829" lon="2.31713">
        <ele>105</ele>
        <time>2011-11-06T08:42:27Z</time>
      </trkpt>
      <trkpt lat="49.20839" lon="2.31718">
        <ele>105</ele>
        <time>2011-11-06T08:42:28Z</time>
      </trkpt>
      <trkpt lat="49.20849" lon="2.31721">
        <ele>105</ele>
        <time>2011-11-06T08:42:29Z</time>
      </trkpt>
      <trkpt lat="49.20859" lon="2.31726">
        <ele>105</ele>
        <time>2011-11-06T08:42:30Z</time>
      </trkpt>
      <trkpt lat="49.20869" lon="2.31731">
        <ele>105</ele>
        <time>2011-11-06T08:42:31Z</time>
      </trkpt>
      <trkpt lat="49.2088" lon="2.31736">
        <ele>105</ele>
        <time>2011-11-06T08:42:32Z</time>
      </trkpt>
      <trkpt lat="49.20892" lon="2.31741">
        <ele>105</ele>
        <time>2011-11-06T08:42:33Z</time>
      </trkpt>
      <trkpt lat="49.20905" lon="2.31746">
        <ele>105</ele>
        <time>2011-11-06T08:42:34Z</time>
      </trkpt>
      <trkpt lat="49.20916" lon="2.31751">
        <ele>105</ele>
        <time>2011-11-06T08:42:35Z</time>
      </trkpt>
      <trkpt lat="49.20929" lon="2.31756">
        <ele>105</ele>
        <time>2011-11-06T08:42:36Z</time>
      </trkpt>
      <trkpt lat="49.20941" lon="2.31761">
        <ele>105</ele>
        <time>2011-11-06T08:42:37Z</time>
      </trkpt>
      <trkpt lat="49.20952" lon="2.31766">
        <ele>105</ele>
        <time>2011-11-06T08:42:38Z</time>
      </trkpt>
      <trkpt lat="49.20963" lon="2.31771">
        <ele>105</ele>
        <time>2011-11-06T08:42:39Z</time>
      </trkpt>
      <trkpt lat="49.20973" lon="2.31775">
        <ele>105</ele>
        <time>2011-11-06T08:42:40Z</time>
      </trkpt>
      <trkpt lat="49.20984" lon="2.3178">
        <ele>105</ele>
        <time>2011-11-06T08:42:41Z</time>
      </trkpt>
      <trkpt lat="49.20994" lon="2.31784">
        <ele>105</ele>
        <time>2011-11-06T08:42:42Z</time>
      </trkpt>
      <trkpt lat="49.21003" lon="2.31788">
        <ele>105</ele>
        <time>2011-11-06T08:42:43Z</time>
      </trkpt>
      <trkpt lat="49.21013" lon="2.31792">
        <ele>105</ele>
        <time>2011-11-06T08:42:44Z</time>
      </trkpt>
      <trkpt lat="49.21023" lon="2.31797">
        <ele>105</ele>
        <time>2011-11-06T08:42:45Z</time>
      </trkpt>
      <trkpt lat="49.21032" lon="2.318">
        <ele>105</ele>
        <time>2011-11-06T08:42:46Z</time>
      </trkpt>
      <trkpt lat="49.21042" lon="2.31803">
        <ele>105</ele>
        <time>2011-11-06T08:42:47Z</time>
      </trkpt>
      <trkpt lat="49.21052" lon="2.31805">
        <ele>105</ele>
        <time>2011-11-06T08:42:48Z</time>
      </trkpt>
      <trkpt lat="49.21062" lon="2.31805">
        <ele>105</ele>
        <time>2011-11-06T08:42:49Z</time>
      </trkpt>
      <trkpt lat="49.21072" lon="2.31804">
        <ele>105</ele>
        <time>2011-11-06T08:42:50Z</time>
      </trkpt>
      <trkpt lat="49.21081" lon="2.31803">
        <ele>105</ele>
        <time>2011-11-06T08:42:51Z</time>
      </trkpt>
      <trkpt lat="49.21091" lon="2.31801">
        <ele>105</ele>
        <time>2011-11-06T08:42:52Z</time>
      </trkpt>
      <trkpt lat="49.211" lon="2.31801">
        <ele>105</ele>
        <time>2011-11-06T08:42:53Z</time>
      </trkpt>
      <trkpt lat="49.21116" lon="2.31809">
        <ele>110</ele>
        <time>2011-11-06T08:42:55Z</time>
      </trkpt>
      <trkpt lat="49.21125" lon="2.31815">
        <ele>110</ele>
        <time>2011-11-06T08:42:56Z</time>
      </trkpt>
      <trkpt lat="49.21134" lon="2.31821">
        <ele>110</ele>
        <time>2011-11-06T08:42:57Z</time>
      </trkpt>
      <trkpt lat="49.21144" lon="2.31826">
        <ele>110</ele>
        <time>2011-11-06T08:42:58Z</time>
      </trkpt>
      <trkpt lat="49.21154" lon="2.31832">
        <ele>110</ele>
        <time>2011-11-06T08:42:59Z</time>
      </trkpt>
      <trkpt lat="49.21164" lon="2.31837">
        <ele>110</ele>
        <time>2011-11-06T08:43:00Z</time>
      </trkpt>
      <trkpt lat="49.21174" lon="2.31843">
        <ele>110</ele>
        <time>2011-11-06T08:43:01Z</time>
      </trkpt>
      <trkpt lat="49.21183" lon="2.31848">
        <ele>110</ele>
        <time>2011-11-06T08:43:02Z</time>
      </trkpt>
      <trkpt lat="49.21192" lon="2.31855">
        <ele>110</ele>
        <time>2011-11-06T08:43:03Z</time>
      </trkpt>
      <trkpt lat="49.21202" lon="2.31861">
        <ele>110</ele>
        <time>2011-11-06T08:43:04Z</time>
      </trkpt>
      <trkpt lat="49.21211" lon="2.31868">
        <ele>110</ele>
        <time>2011-11-06T08:43:05Z</time>
      </trkpt>
      <trkpt lat="49.21221" lon="2.31874">
        <ele>110</ele>
        <time>2011-11-06T08:43:06Z</time>
      </trkpt>
      <trkpt lat="49.2123" lon="2.31882">
        <ele>110</ele>
        <time>2011-11-06T08:43:07Z</time>
      </trkpt>
      <trkpt lat="49.21238" lon="2.3189">
        <ele>110</ele>
        <time>2011-11-06T08:43:08Z</time>
      </trkpt>
      <trkpt lat="49.21246" lon="2.31899">
        <ele>110</ele>
        <time>2011-11-06T08:43:09Z</time>
      </trkpt>
      <trkpt lat="49.21257" lon="2.31914">
        <ele>110</ele>
        <time>2011-11-06T08:43:11Z</time>
      </trkpt>
      <trkpt lat="49.21265" lon="2.31923">
        <ele>110</ele>
        <time>2011-11-06T08:43:13Z</time>
      </trkpt>
      <trkpt lat="49.21274" lon="2.31937">
        <ele>110</ele>
        <time>2011-11-06T08:43:20Z</time>
      </trkpt>
      <trkpt lat="49.21283" lon="2.3195">
        <ele>110</ele>
        <time>2011-11-06T08:43:22Z</time>
      </trkpt>
      <trkpt lat="49.21295" lon="2.31962">
        <ele>110</ele>
        <time>2011-11-06T08:43:24Z</time>
      </trkpt>
      <trkpt lat="49.21307" lon="2.31973">
        <ele>110</ele>
        <time>2011-11-06T08:43:26Z</time>
      </trkpt>
      <trkpt lat="49.21321" lon="2.31984">
        <ele>110</ele>
        <time>2011-11-06T08:43:28Z</time>
      </trkpt>
      <trkpt lat="49.21335" lon="2.31995">
        <ele>110</ele>
        <time>2011-11-06T08:43:30Z</time>
      </trkpt>
      <trkpt lat="49.21346" lon="2.32008">
        <ele>110</ele>
        <time>2011-11-06T08:43:32Z</time>
      </trkpt>
      <trkpt lat="49.21353" lon="2.32018">
        <ele>115</ele>
        <time>2011-11-06T08:43:34Z</time>
      </trkpt>
      <trkpt lat="49.21363" lon="2.32022">
        <ele>115</ele>
        <time>2011-11-06T08:43:37Z</time>
      </trkpt>
      <trkpt lat="49.21372" lon="2.32016">
        <ele>115</ele>
        <time>2011-11-06T08:43:40Z</time>
      </trkpt>
      <trkpt lat="49.2138" lon="2.3201">
        <ele>115</ele>
        <time>2011-11-06T08:43:46Z</time>
      </trkpt>
      <trkpt lat="49.2139" lon="2.31993">
        <ele>115</ele>
        <time>2011-11-06T08:43:49Z</time>
      </trkpt>
      <trkpt lat="49.21396" lon="2.3197">
        <ele>115</ele>
        <time>2011-11-06T08:43:51Z</time>
      </trkpt>
      <trkpt lat="49.214" lon="2.31957">
        <ele>115</ele>
        <time>2011-11-06T08:43:52Z</time>
      </trkpt>
      <trkpt lat="49.21404" lon="2.31942">
        <ele>115</ele>
        <time>2011-11-06T08:43:53Z</time>
      </trkpt>
      <trkpt lat="49.21408" lon="2.31928">
        <ele>115</ele>
        <time>2011-11-06T08:43:54Z</time>
      </trkpt>
      <trkpt lat="49.21412" lon="2.31915">
        <ele>115</ele>
        <time>2011-11-06T08:43:55Z</time>
      </trkpt>
      <trkpt lat="49.21416" lon="2.31902">
        <ele>115</ele>
        <time>2011-11-06T08:43:56Z</time>
      </trkpt>
      <trkpt lat="49.21422" lon="2.31881">
        <ele>115</ele>
        <time>2011-11-06T08:43:58Z</time>
      </trkpt>
      <trkpt lat="49.21427" lon="2.31862">
        <ele>115</ele>
        <time>2011-11-06T08:44:00Z</time>
      </trkpt>
      <trkpt lat="49.21433" lon="2.31841">
        <ele>121</ele>
        <time>2011-11-06T08:44:02Z</time>
      </trkpt>
      <trkpt lat="49.21439" lon="2.31821">
        <ele>121</ele>
        <time>2011-11-06T08:44:04Z</time>
      </trkpt>
      <trkpt lat="49.21445" lon="2.31804">
        <ele>121</ele>
        <time>2011-11-06T08:44:06Z</time>
      </trkpt>
      <trkpt lat="49.21451" lon="2.31786">
        <ele>121</ele>
        <time>2011-11-06T08:44:08Z</time>
      </trkpt>
      <trkpt lat="49.21458" lon="2.31765">
        <ele>121</ele>
        <time>2011-11-06T08:44:10Z</time>
      </trkpt>
      <trkpt lat="49.21466" lon="2.31741">
        <ele>121</ele>
        <time>2011-11-06T08:44:12Z</time>
      </trkpt>
      <trkpt lat="49.2147" lon="2.31728">
        <ele>121</ele>
        <time>2011-11-06T08:44:13Z</time>
      </trkpt>
      <trkpt lat="49.21475" lon="2.31713">
        <ele>121</ele>
        <time>2011-11-06T08:44:14Z</time>
      </trkpt>
      <trkpt lat="49.2148" lon="2.31699">
        <ele>121</ele>
        <time>2011-11-06T08:44:15Z</time>
      </trkpt>
      <trkpt lat="49.21485" lon="2.31685">
        <ele>121</ele>
        <time>2011-11-06T08:44:16Z</time>
      </trkpt>
      <trkpt lat="49.21491" lon="2.3167">
        <ele>121</ele>
        <time>2011-11-06T08:44:17Z</time>
      </trkpt>
      <trkpt lat="49.21497" lon="2.31657">
        <ele>121</ele>
        <time>2011-11-06T08:44:18Z</time>
      </trkpt>
      <trkpt lat="49.21503" lon="2.31642">
        <ele>121</ele>
        <time>2011-11-06T08:44:19Z</time>
      </trkpt>
      <trkpt lat="49.2151" lon="2.31627">
        <ele>121</ele>
        <time>2011-11-06T08:44:20Z</time>
      </trkpt>
      <trkpt lat="49.21517" lon="2.31612">
        <ele>121</ele>
        <time>2011-11-06T08:44:21Z</time>
      </trkpt>
      <trkpt lat="49.21524" lon="2.31596">
        <ele>121</ele>
        <time>2011-11-06T08:44:22Z</time>
      </trkpt>
      <trkpt lat="49.21531" lon="2.31579">
        <ele>121</ele>
        <time>2011-11-06T08:44:23Z</time>
      </trkpt>
      <trkpt lat="49.21538" lon="2.31563">
        <ele>121</ele>
        <time>2011-11-06T08:44:24Z</time>
      </trkpt>
      <trkpt lat="49.21546" lon="2.31547">
        <ele>121</ele>
        <time>2011-11-06T08:44:25Z</time>
      </trkpt>
      <trkpt lat="49.21554" lon="2.3153">
        <ele>121</ele>
        <time>2011-11-06T08:44:26Z</time>
      </trkpt>
      <trkpt lat="49.21563" lon="2.31514">
        <ele>121</ele>
        <time>2011-11-06T08:44:27Z</time>
      </trkpt>
      <trkpt lat="49.21571" lon="2.31498">
        <ele>121</ele>
        <time>2011-11-06T08:44:28Z</time>
      </trkpt>
      <trkpt lat="49.2158" lon="2.31482">
        <ele>121</ele>
        <time>2011-11-06T08:44:29Z</time>
      </trkpt>
      <trkpt lat="49.21588" lon="2.31466">
        <ele>121</ele>
        <time>2011-11-06T08:44:30Z</time>
      </trkpt>
      <trkpt lat="49.21597" lon="2.31451">
        <ele>121</ele>
        <time>2011-11-06T08:44:31Z</time>
      </trkpt>
      <trkpt lat="49.21606" lon="2.31435">
        <ele>121</ele>
        <time>2011-11-06T08:44:32Z</time>
      </trkpt>
      <trkpt lat="49.21615" lon="2.3142">
        <ele>121</ele>
        <time>2011-11-06T08:44:33Z</time>
      </trkpt>
      <trkpt lat="49.21625" lon="2.31404">
        <ele>121</ele>
        <time>2011-11-06T08:44:34Z</time>
      </trkpt>
      <trkpt lat="49.21634" lon="2.3139">
        <ele>121</ele>
        <time>2011-11-06T08:44:35Z</time>
      </trkpt>
      <trkpt lat="49.21645" lon="2.31376">
        <ele>121</ele>
        <time>2011-11-06T08:44:36Z</time>
      </trkpt>
      <trkpt lat="49.21655" lon="2.31361">
        <ele>121</ele>
        <time>2011-11-06T08:44:37Z</time>
      </trkpt>
      <trkpt lat="49.21666" lon="2.31347">
        <ele>121</ele>
        <time>2011-11-06T08:44:38Z</time>
      </trkpt>
      <trkpt lat="49.21676" lon="2.31332">
        <ele>121</ele>
        <time>2011-11-06T08:44:39Z</time>
      </trkpt>
      <trkpt lat="49.21687" lon="2.31315">
        <ele>121</ele>
        <time>2011-11-06T08:44:40Z</time>
      </trkpt>
      <trkpt lat="49.21697" lon="2.31298">
        <ele>121</ele>
        <time>2011-11-06T08:44:41Z</time>
      </trkpt>
      <trkpt lat="49.21707" lon="2.3128">
        <ele>121</ele>
        <time>2011-11-06T08:44:42Z</time>
      </trkpt>
      <trkpt lat="49.21716" lon="2.31262">
        <ele>121</ele>
        <time>2011-11-06T08:44:43Z</time>
      </trkpt>
      <trkpt lat="49.21725" lon="2.31243">
        <ele>121</ele>
        <time>2011-11-06T08:44:44Z</time>
      </trkpt>
      <trkpt lat="49.21734" lon="2.31225">
        <ele>121</ele>
        <time>2011-11-06T08:44:45Z</time>
      </trkpt>
      <trkpt lat="49.21743" lon="2.31206">
        <ele>121</ele>
        <time>2011-11-06T08:44:46Z</time>
      </trkpt>
      <trkpt lat="49.21751" lon="2.31187">
        <ele>121</ele>
        <time>2011-11-06T08:44:47Z</time>
      </trkpt>
      <trkpt lat="49.2176" lon="2.31168">
        <ele>121</ele>
        <time>2011-11-06T08:44:48Z</time>
      </trkpt>
      <trkpt lat="49.21769" lon="2.3115">
        <ele>121</ele>
        <time>2011-11-06T08:44:49Z</time>
      </trkpt>
      <trkpt lat="49.21779" lon="2.31131">
        <ele>121</ele>
        <time>2011-11-06T08:44:50Z</time>
      </trkpt>
      <trkpt lat="49.21787" lon="2.31112">
        <ele>121</ele>
        <time>2011-11-06T08:44:51Z</time>
      </trkpt>
      <trkpt lat="49.21797" lon="2.31094">
        <ele>121</ele>
        <time>2011-11-06T08:44:52Z</time>
      </trkpt>
      <trkpt lat="49.21806" lon="2.31076">
        <ele>121</ele>
        <time>2011-11-06T08:44:53Z</time>
      </trkpt>
      <trkpt lat="49.21814" lon="2.31058">
        <ele>121</ele>
        <time>2011-11-06T08:44:54Z</time>
      </trkpt>
      <trkpt lat="49.21823" lon="2.3104">
        <ele>121</ele>
        <time>2011-11-06T08:44:55Z</time>
      </trkpt>
      <trkpt lat="49.21831" lon="2.31021">
        <ele>121</ele>
        <time>2011-11-06T08:44:56Z</time>
      </trkpt>
      <trkpt lat="49.2184" lon="2.31002">
        <ele>121</ele>
        <time>2011-11-06T08:44:57Z</time>
      </trkpt>
      <trkpt lat="49.21849" lon="2.30983">
        <ele>121</ele>
        <time>2011-11-06T08:44:58Z</time>
      </trkpt>
      <trkpt lat="49.21856" lon="2.30963">
        <ele>121</ele>
        <time>2011-11-06T08:44:59Z</time>
      </trkpt>
      <trkpt lat="49.21864" lon="2.30944">
        <ele>121</ele>
        <time>2011-11-06T08:45:00Z</time>
      </trkpt>
      <trkpt lat="49.2187" lon="2.30925">
        <ele>121</ele>
        <time>2011-11-06T08:45:01Z</time>
      </trkpt>
      <trkpt lat="49.21877" lon="2.30907">
        <ele>121</ele>
        <time>2011-11-06T08:45:02Z</time>
      </trkpt>
      <trkpt lat="49.21883" lon="2.30888">
        <ele>121</ele>
        <time>2011-11-06T08:45:03Z</time>
      </trkpt>
      <trkpt lat="49.21889" lon="2.3087">
        <ele>121</ele>
        <time>2011-11-06T08:45:04Z</time>
      </trkpt>
      <trkpt lat="49.21895" lon="2.30852">
        <ele>121</ele>
        <time>2011-11-06T08:45:05Z</time>
      </trkpt>
      <trkpt lat="49.21901" lon="2.30834">
        <ele>121</ele>
        <time>2011-11-06T08:45:06Z</time>
      </trkpt>
      <trkpt lat="49.21906" lon="2.30817">
        <ele>121</ele>
        <time>2011-11-06T08:45:07Z</time>
      </trkpt>
      <trkpt lat="49.21912" lon="2.30801">
        <ele>121</ele>
        <time>2011-11-06T08:45:08Z</time>
      </trkpt>
      <trkpt lat="49.21916" lon="2.30785">
        <ele>121</ele>
        <time>2011-11-06T08:45:09Z</time>
      </trkpt>
      <trkpt lat="49.2192" lon="2.30772">
        <ele>121</ele>
        <time>2011-11-06T08:45:10Z</time>
      </trkpt>
      <trkpt lat="49.21927" lon="2.30753">
        <ele>121</ele>
        <time>2011-11-06T08:45:12Z</time>
      </trkpt>
      <trkpt lat="49.21932" lon="2.3074">
        <ele>121</ele>
        <time>2011-11-06T08:45:14Z</time>
      </trkpt>
      <trkpt lat="49.21937" lon="2.30726">
        <ele>126</ele>
        <time>2011-11-06T08:45:17Z</time>
      </trkpt>
      <trkpt lat="49.21942" lon="2.3071">
        <ele>126</ele>
        <time>2011-11-06T08:45:21Z</time>
      </trkpt>
      <trkpt lat="49.21947" lon="2.30696">
        <ele>126</ele>
        <time>2011-11-06T08:45:25Z</time>
      </trkpt>
      <trkpt lat="49.21948" lon="2.30681">
        <ele>126</ele>
        <time>2011-11-06T08:45:29Z</time>
      </trkpt>
      <trkpt lat="49.2194" lon="2.3069">
        <ele>126</ele>
        <time>2011-11-06T08:45:34Z</time>
      </trkpt>
      <trkpt lat="49.21937" lon="2.30704">
        <ele>126</ele>
        <time>2011-11-06T08:53:35Z</time>
      </trkpt>
      <trkpt lat="49.2193" lon="2.30718">
        <ele>126</ele>
        <time>2011-11-06T08:53:48Z</time>
      </trkpt>
      <trkpt lat="49.21936" lon="2.3073">
        <ele>126</ele>
        <time>2011-11-06T08:53:58Z</time>
      </trkpt>
      <trkpt lat="49.21941" lon="2.30718">
        <ele>126</ele>
        <time>2011-11-06T08:54:03Z</time>
      </trkpt>
      <trkpt lat="49.21946" lon="2.30704">
        <ele>126</ele>
        <time>2011-11-06T08:54:09Z</time>
      </trkpt>
      <trkpt lat="49.21952" lon="2.3069">
        <ele>126</ele>
        <time>2011-11-06T08:54:20Z</time>
      </trkpt>
      <trkpt lat="49.21957" lon="2.30677">
        <ele>126</ele>
        <time>2011-11-06T08:54:28Z</time>
      </trkpt>
      <trkpt lat="49.21962" lon="2.30663">
        <ele>126</ele>
        <time>2011-11-06T08:54:34Z</time>
      </trkpt>
      <trkpt lat="49.21967" lon="2.3065">
        <ele>126</ele>
        <time>2011-11-06T08:54:38Z</time>
      </trkpt>
      <trkpt lat="49.21973" lon="2.30635">
        <ele>126</ele>
        <time>2011-11-06T08:54:42Z</time>
      </trkpt>
      <trkpt lat="49.21979" lon="2.30622">
        <ele>126</ele>
        <time>2011-11-06T08:54:45Z</time>
      </trkpt>
      <trkpt lat="49.21984" lon="2.30609">
        <ele>126</ele>
        <time>2011-11-06T08:54:48Z</time>
      </trkpt>
      <trkpt lat="49.2199" lon="2.30598">
        <ele>126</ele>
        <time>2011-11-06T08:54:51Z</time>
      </trkpt>
      <trkpt lat="49.21996" lon="2.30584">
        <ele>126</ele>
        <time>2011-11-06T08:54:55Z</time>
      </trkpt>
      <trkpt lat="49.22002" lon="2.3057">
        <ele>126</ele>
        <time>2011-11-06T08:55:00Z</time>
      </trkpt>
      <trkpt lat="49.22009" lon="2.30555">
        <ele>126</ele>
        <time>2011-11-06T08:55:05Z</time>
      </trkpt>
      <trkpt lat="49.22016" lon="2.30541">
        <ele>126</ele>
        <time>2011-11-06T08:55:09Z</time>
      </trkpt>
      <trkpt lat="49.22022" lon="2.30529">
        <ele>126</ele>
        <time>2011-11-06T08:55:12Z</time>
      </trkpt>
      <trkpt lat="49.22029" lon="2.30512">
        <ele>126</ele>
        <time>2011-11-06T08:55:15Z</time>
      </trkpt>
      <trkpt lat="49.22035" lon="2.30499">
        <ele>126</ele>
        <time>2011-11-06T08:55:17Z</time>
      </trkpt>
      <trkpt lat="49.22043" lon="2.30482">
        <ele>126</ele>
        <time>2011-11-06T08:55:19Z</time>
      </trkpt>
      <trkpt lat="49.22051" lon="2.30464">
        <ele>126</ele>
        <time>2011-11-06T08:55:21Z</time>
      </trkpt>
      <trkpt lat="49.2206" lon="2.30444">
        <ele>126</ele>
        <time>2011-11-06T08:55:23Z</time>
      </trkpt>
      <trkpt lat="49.2207" lon="2.30424">
        <ele>131</ele>
        <time>2011-11-06T08:55:25Z</time>
      </trkpt>
      <trkpt lat="49.2208" lon="2.30403">
        <ele>131</ele>
        <time>2011-11-06T08:55:27Z</time>
      </trkpt>
      <trkpt lat="49.2209" lon="2.30382">
        <ele>131</ele>
        <time>2011-11-06T08:55:29Z</time>
      </trkpt>
      <trkpt lat="49.22099" lon="2.3036">
        <ele>131</ele>
        <time>2011-11-06T08:55:31Z</time>
      </trkpt>
      <trkpt lat="49.22109" lon="2.30337">
        <ele>131</ele>
        <time>2011-11-06T08:55:33Z</time>
      </trkpt>
      <trkpt lat="49.22114" lon="2.30324">
        <ele>131</ele>
        <time>2011-11-06T08:55:34Z</time>
      </trkpt>
      <trkpt lat="49.2212" lon="2.30312">
        <ele>131</ele>
        <time>2011-11-06T08:55:35Z</time>
      </trkpt>
      <trkpt lat="49.22125" lon="2.30298">
        <ele>131</ele>
        <time>2011-11-06T08:55:36Z</time>
      </trkpt>
      <trkpt lat="49.2213" lon="2.30285">
        <ele>131</ele>
        <time>2011-11-06T08:55:37Z</time>
      </trkpt>
      <trkpt lat="49.22135" lon="2.30271">
        <ele>131</ele>
        <time>2011-11-06T08:55:38Z</time>
      </trkpt>
      <trkpt lat="49.22141" lon="2.30257">
        <ele>131</ele>
        <time>2011-11-06T08:55:39Z</time>
      </trkpt>
      <trkpt lat="49.22146" lon="2.30243">
        <ele>131</ele>
        <time>2011-11-06T08:55:40Z</time>
      </trkpt>
      <trkpt lat="49.2215" lon="2.30229">
        <ele>131</ele>
        <time>2011-11-06T08:55:41Z</time>
      </trkpt>
      <trkpt lat="49.22156" lon="2.30216">
        <ele>131</ele>
        <time>2011-11-06T08:55:42Z</time>
      </trkpt>
      <trkpt lat="49.2216" lon="2.30202">
        <ele>131</ele>
        <time>2011-11-06T08:55:43Z</time>
      </trkpt>
      <trkpt lat="49.22164" lon="2.3019">
        <ele>131</ele>
        <time>2011-11-06T08:55:44Z</time>
      </trkpt>
      <trkpt lat="49.22168" lon="2.30177">
        <ele>131</ele>
        <time>2011-11-06T08:55:45Z</time>
      </trkpt>
      <trkpt lat="49.22174" lon="2.30156">
        <ele>131</ele>
        <time>2011-11-06T08:55:47Z</time>
      </trkpt>
      <trkpt lat="49.22179" lon="2.30141">
        <ele>131</ele>
        <time>2011-11-06T08:55:49Z</time>
      </trkpt>
      <trkpt lat="49.22189" lon="2.30139">
        <ele>131</ele>
        <time>2011-11-06T08:55:53Z</time>
      </trkpt>
      <trkpt lat="49.22199" lon="2.30141">
        <ele>131</ele>
        <time>2011-11-06T08:55:56Z</time>
      </trkpt>
      <trkpt lat="49.22209" lon="2.30145">
        <ele>131</ele>
        <time>2011-11-06T08:55:58Z</time>
      </trkpt>
      <trkpt lat="49.22222" lon="2.30148">
        <ele>131</ele>
        <time>2011-11-06T08:56:00Z</time>
      </trkpt>
      <trkpt lat="49.22236" lon="2.30151">
        <ele>131</ele>
        <time>2011-11-06T08:56:02Z</time>
      </trkpt>
      <trkpt lat="49.2225" lon="2.30154">
        <ele>131</ele>
        <time>2011-11-06T08:56:04Z</time>
      </trkpt>
      <trkpt lat="49.22262" lon="2.30157">
        <ele>131</ele>
        <time>2011-11-06T08:56:06Z</time>
      </trkpt>
      <trkpt lat="49.22272" lon="2.30159">
        <ele>131</ele>
        <time>2011-11-06T08:56:14Z</time>
      </trkpt>
      <trkpt lat="49.22285" lon="2.30161">
        <ele>131</ele>
        <time>2011-11-06T08:56:18Z</time>
      </trkpt>
      <trkpt lat="49.22296" lon="2.30163">
        <ele>131</ele>
        <time>2011-11-06T08:56:20Z</time>
      </trkpt>
      <trkpt lat="49.22309" lon="2.30165">
        <ele>131</ele>
        <time>2011-11-06T08:56:22Z</time>
      </trkpt>
      <trkpt lat="49.22326" lon="2.30166">
        <ele>131</ele>
        <time>2011-11-06T08:56:24Z</time>
      </trkpt>
      <trkpt lat="49.22344" lon="2.30168">
        <ele>131</ele>
        <time>2011-11-06T08:56:26Z</time>
      </trkpt>
      <trkpt lat="49.2236" lon="2.3017">
        <ele>131</ele>
        <time>2011-11-06T08:56:28Z</time>
      </trkpt>
      <trkpt lat="49.22378" lon="2.30167">
        <ele>131</ele>
        <time>2011-11-06T08:56:30Z</time>
      </trkpt>
      <trkpt lat="49.22396" lon="2.30163">
        <ele>131</ele>
        <time>2011-11-06T08:56:32Z</time>
      </trkpt>
      <trkpt lat="49.22406" lon="2.30161">
        <ele>131</ele>
        <time>2011-11-06T08:56:33Z</time>
      </trkpt>
      <trkpt lat="49.22416" lon="2.30159">
        <ele>131</ele>
        <time>2011-11-06T08:56:34Z</time>
      </trkpt>
      <trkpt lat="49.22426" lon="2.30158">
        <ele>131</ele>
        <time>2011-11-06T08:56:35Z</time>
      </trkpt>
      <trkpt lat="49.22435" lon="2.30157">
        <ele>131</ele>
        <time>2011-11-06T08:56:36Z</time>
      </trkpt>
      <trkpt lat="49.22445" lon="2.30155">
        <ele>131</ele>
        <time>2011-11-06T08:56:37Z</time>
      </trkpt>
      <trkpt lat="49.22455" lon="2.30153">
        <ele>131</ele>
        <time>2011-11-06T08:56:38Z</time>
      </trkpt>
      <trkpt lat="49.22464" lon="2.30151">
        <ele>131</ele>
        <time>2011-11-06T08:56:39Z</time>
      </trkpt>
      <trkpt lat="49.2248" lon="2.30151">
        <ele>131</ele>
        <time>2011-11-06T08:56:41Z</time>
      </trkpt>
      <trkpt lat="49.22495" lon="2.30152">
        <ele>131</ele>
        <time>2011-11-06T08:56:43Z</time>
      </trkpt>
      <trkpt lat="49.22511" lon="2.30152">
        <ele>131</ele>
        <time>2011-11-06T08:56:45Z</time>
      </trkpt>
      <trkpt lat="49.22529" lon="2.30153">
        <ele>131</ele>
        <time>2011-11-06T08:56:47Z</time>
      </trkpt>
      <trkpt lat="49.22547" lon="2.30154">
        <ele>126</ele>
        <time>2011-11-06T08:56:49Z</time>
      </trkpt>
      <trkpt lat="49.22564" lon="2.30155">
        <ele>126</ele>
        <time>2011-11-06T08:56:51Z</time>
      </trkpt>
      <trkpt lat="49.2258" lon="2.30157">
        <ele>126</ele>
        <time>2011-11-06T08:56:53Z</time>
      </trkpt>
      <trkpt lat="49.22596" lon="2.30158">
        <ele>126</ele>
        <time>2011-11-06T08:56:55Z</time>
      </trkpt>
      <trkpt lat="49.2261" lon="2.30161">
        <ele>126</ele>
        <time>2011-11-06T08:56:57Z</time>
      </trkpt>
      <trkpt lat="49.22623" lon="2.30164">
        <ele>126</ele>
        <time>2011-11-06T08:56:59Z</time>
      </trkpt>
      <trkpt lat="49.22636" lon="2.30167">
        <ele>120</ele>
        <time>2011-11-06T08:57:01Z</time>
      </trkpt>
      <trkpt lat="49.22651" lon="2.30169">
        <ele>120</ele>
        <time>2011-11-06T08:57:03Z</time>
      </trkpt>
      <trkpt lat="49.22667" lon="2.30172">
        <ele>120</ele>
        <time>2011-11-06T08:57:05Z</time>
      </trkpt>
      <trkpt lat="49.22685" lon="2.30174">
        <ele>120</ele>
        <time>2011-11-06T08:57:07Z</time>
      </trkpt>
      <trkpt lat="49.22694" lon="2.30175">
        <ele>120</ele>
        <time>2011-11-06T08:57:08Z</time>
      </trkpt>
      <trkpt lat="49.22704" lon="2.30176">
        <ele>120</ele>
        <time>2011-11-06T08:57:09Z</time>
      </trkpt>
      <trkpt lat="49.22715" lon="2.30177">
        <ele>120</ele>
        <time>2011-11-06T08:57:10Z</time>
      </trkpt>
      <trkpt lat="49.22725" lon="2.30178">
        <ele>120</ele>
        <time>2011-11-06T08:57:11Z</time>
      </trkpt>
      <trkpt lat="49.22735" lon="2.30179">
        <ele>120</ele>
        <time>2011-11-06T08:57:12Z</time>
      </trkpt>
      <trkpt lat="49.22746" lon="2.30179">
        <ele>120</ele>
        <time>2011-11-06T08:57:13Z</time>
      </trkpt>
      <trkpt lat="49.22756" lon="2.3018">
        <ele>120</ele>
        <time>2011-11-06T08:57:14Z</time>
      </trkpt>
      <trkpt lat="49.22766" lon="2.30182">
        <ele>120</ele>
        <time>2011-11-06T08:57:15Z</time>
      </trkpt>
      <trkpt lat="49.22776" lon="2.30182">
        <ele>120</ele>
        <time>2011-11-06T08:57:16Z</time>
      </trkpt>
      <trkpt lat="49.22787" lon="2.30183">
        <ele>120</ele>
        <time>2011-11-06T08:57:17Z</time>
      </trkpt>
      <trkpt lat="49.22798" lon="2.30183">
        <ele>120</ele>
        <time>2011-11-06T08:57:18Z</time>
      </trkpt>
      <trkpt lat="49.22809" lon="2.30184">
        <ele>120</ele>
        <time>2011-11-06T08:57:19Z</time>
      </trkpt>
      <trkpt lat="49.22821" lon="2.30186">
        <ele>120</ele>
        <time>2011-11-06T08:57:20Z</time>
      </trkpt>
      <trkpt lat="49.22832" lon="2.30187">
        <ele>120</ele>
        <time>2011-11-06T08:57:21Z</time>
      </trkpt>
      <trkpt lat="49.22844" lon="2.30189">
        <ele>120</ele>
        <time>2011-11-06T08:57:22Z</time>
      </trkpt>
      <trkpt lat="49.22856" lon="2.30192">
        <ele>120</ele>
        <time>2011-11-06T08:57:23Z</time>
      </trkpt>
      <trkpt lat="49.22868" lon="2.30194">
        <ele>120</ele>
        <time>2011-11-06T08:57:24Z</time>
      </trkpt>
      <trkpt lat="49.22879" lon="2.30197">
        <ele>120</ele>
        <time>2011-11-06T08:57:25Z</time>
      </trkpt>
      <trkpt lat="49.22891" lon="2.302">
        <ele>120</ele>
        <time>2011-11-06T08:57:26Z</time>
      </trkpt>
      <trkpt lat="49.22902" lon="2.30202">
        <ele>120</ele>
        <time>2011-11-06T08:57:27Z</time>
      </trkpt>
      <trkpt lat="49.22914" lon="2.30204">
        <ele>120</ele>
        <time>2011-11-06T08:57:28Z</time>
      </trkpt>
      <trkpt lat="49.22924" lon="2.30206">
        <ele>125</ele>
        <time>2011-11-06T08:57:29Z</time>
      </trkpt>
      <trkpt lat="49.22934" lon="2.30207">
        <ele>125</ele>
        <time>2011-11-06T08:57:30Z</time>
      </trkpt>
      <trkpt lat="49.22944" lon="2.30209">
        <ele>125</ele>
        <time>2011-11-06T08:57:31Z</time>
      </trkpt>
      <trkpt lat="49.22954" lon="2.30209">
        <ele>125</ele>
        <time>2011-11-06T08:57:32Z</time>
      </trkpt>
      <trkpt lat="49.22964" lon="2.30208">
        <ele>125</ele>
        <time>2011-11-06T08:57:33Z</time>
      </trkpt>
      <trkpt lat="49.22975" lon="2.30208">
        <ele>125</ele>
        <time>2011-11-06T08:57:34Z</time>
      </trkpt>
      <trkpt lat="49.22985" lon="2.30208">
        <ele>130</ele>
        <time>2011-11-06T08:57:35Z</time>
      </trkpt>
      <trkpt lat="49.22994" lon="2.30208">
        <ele>130</ele>
        <time>2011-11-06T08:57:36Z</time>
      </trkpt>
      <trkpt lat="49.23011" lon="2.30211">
        <ele>130</ele>
        <time>2011-11-06T08:57:38Z</time>
      </trkpt>
      <trkpt lat="49.23026" lon="2.30218">
        <ele>130</ele>
        <time>2011-11-06T08:57:40Z</time>
      </trkpt>
      <trkpt lat="49.23041" lon="2.30228">
        <ele>130</ele>
        <time>2011-11-06T08:57:42Z</time>
      </trkpt>
      <trkpt lat="49.23056" lon="2.30241">
        <ele>130</ele>
        <time>2011-11-06T08:57:44Z</time>
      </trkpt>
      <trkpt lat="49.23071" lon="2.30255">
        <ele>130</ele>
        <time>2011-11-06T08:57:46Z</time>
      </trkpt>
      <trkpt lat="49.23078" lon="2.30264">
        <ele>130</ele>
        <time>2011-11-06T08:57:47Z</time>
      </trkpt>
      <trkpt lat="49.23085" lon="2.30273">
        <ele>130</ele>
        <time>2011-11-06T08:57:48Z</time>
      </trkpt>
      <trkpt lat="49.23093" lon="2.30283">
        <ele>130</ele>
        <time>2011-11-06T08:57:49Z</time>
      </trkpt>
      <trkpt lat="49.23101" lon="2.30294">
        <ele>130</ele>
        <time>2011-11-06T08:57:50Z</time>
      </trkpt>
      <trkpt lat="49.2311" lon="2.30306">
        <ele>130</ele>
        <time>2011-11-06T08:57:51Z</time>
      </trkpt>
      <trkpt lat="49.23119" lon="2.30316">
        <ele>130</ele>
        <time>2011-11-06T08:57:52Z</time>
      </trkpt>
      <trkpt lat="49.23129" lon="2.30328">
        <ele>130</ele>
        <time>2011-11-06T08:57:53Z</time>
      </trkpt>
      <trkpt lat="49.23138" lon="2.3034">
        <ele>130</ele>
        <time>2011-11-06T08:57:54Z</time>
      </trkpt>
      <trkpt lat="49.23148" lon="2.30351">
        <ele>136</ele>
        <time>2011-11-06T08:57:55Z</time>
      </trkpt>
      <trkpt lat="49.23158" lon="2.30363">
        <ele>136</ele>
        <time>2011-11-06T08:57:56Z</time>
      </trkpt>
      <trkpt lat="49.23167" lon="2.30374">
        <ele>136</ele>
        <time>2011-11-06T08:57:57Z</time>
      </trkpt>
      <trkpt lat="49.23175" lon="2.30385">
        <ele>136</ele>
        <time>2011-11-06T08:57:58Z</time>
      </trkpt>
      <trkpt lat="49.23183" lon="2.30395">
        <ele>136</ele>
        <time>2011-11-06T08:57:59Z</time>
      </trkpt>
      <trkpt lat="49.23191" lon="2.30404">
        <ele>136</ele>
        <time>2011-11-06T08:58:00Z</time>
      </trkpt>
      <trkpt lat="49.23198" lon="2.30413">
        <ele>136</ele>
        <time>2011-11-06T08:58:01Z</time>
      </trkpt>
      <trkpt lat="49.23206" lon="2.30422">
        <ele>136</ele>
        <time>2011-11-06T08:58:02Z</time>
      </trkpt>
      <trkpt lat="49.23213" lon="2.30432">
        <ele>136</ele>
        <time>2011-11-06T08:58:03Z</time>
      </trkpt>
      <trkpt lat="49.23219" lon="2.30443">
        <ele>136</ele>
        <time>2011-11-06T08:58:04Z</time>
      </trkpt>
      <trkpt lat="49.23231" lon="2.30462">
        <ele>136</ele>
        <time>2011-11-06T08:58:06Z</time>
      </trkpt>
      <trkpt lat="49.23238" lon="2.30481">
        <ele>136</ele>
        <time>2011-11-06T08:58:08Z</time>
      </trkpt>
      <trkpt lat="49.23239" lon="2.30497">
        <ele>136</ele>
        <time>2011-11-06T08:58:10Z</time>
      </trkpt>
      <trkpt lat="49.23245" lon="2.30509">
        <ele>136</ele>
        <time>2011-11-06T08:58:12Z</time>
      </trkpt>
      <trkpt lat="49.23253" lon="2.30523">
        <ele>136</ele>
        <time>2011-11-06T08:58:14Z</time>
      </trkpt>
      <trkpt lat="49.23262" lon="2.30545">
        <ele>136</ele>
        <time>2011-11-06T08:58:16Z</time>
      </trkpt>
      <trkpt lat="49.23268" lon="2.30557">
        <ele>136</ele>
        <time>2011-11-06T08:58:17Z</time>
      </trkpt>
      <trkpt lat="49.23275" lon="2.30571">
        <ele>136</ele>
        <time>2011-11-06T08:58:18Z</time>
      </trkpt>
      <trkpt lat="49.23283" lon="2.30583">
        <ele>136</ele>
        <time>2011-11-06T08:58:19Z</time>
      </trkpt>
      <trkpt lat="49.23291" lon="2.30598">
        <ele>136</ele>
        <time>2011-11-06T08:58:20Z</time>
      </trkpt>
      <trkpt lat="49.23298" lon="2.30612">
        <ele>136</ele>
        <time>2011-11-06T08:58:21Z</time>
      </trkpt>
      <trkpt lat="49.23305" lon="2.30626">
        <ele>136</ele>
        <time>2011-11-06T08:58:22Z</time>
      </trkpt>
      <trkpt lat="49.23311" lon="2.30642">
        <ele>136</ele>
        <time>2011-11-06T08:58:23Z</time>
      </trkpt>
      <trkpt lat="49.23318" lon="2.30656">
        <ele>136</ele>
        <time>2011-11-06T08:58:24Z</time>
      </trkpt>
      <trkpt lat="49.23324" lon="2.3067">
        <ele>136</ele>
        <time>2011-11-06T08:58:25Z</time>
      </trkpt>
      <trkpt lat="49.2333" lon="2.30684">
        <ele>136</ele>
        <time>2011-11-06T08:58:26Z</time>
      </trkpt>
      <trkpt lat="49.23335" lon="2.30697">
        <ele>136</ele>
        <time>2011-11-06T08:58:27Z</time>
      </trkpt>
      <trkpt lat="49.23344" lon="2.30717">
        <ele>136</ele>
        <time>2011-11-06T08:58:29Z</time>
      </trkpt>
      <trkpt lat="49.23351" lon="2.30731">
        <ele>136</ele>
        <time>2011-11-06T08:58:32Z</time>
      </trkpt>
      <trkpt lat="49.23359" lon="2.30748">
        <ele>136</ele>
        <time>2011-11-06T08:58:38Z</time>
      </trkpt>
      <trkpt lat="49.23369" lon="2.30765">
        <ele>136</ele>
        <time>2011-11-06T08:58:40Z</time>
      </trkpt>
      <trkpt lat="49.23374" lon="2.30776">
        <ele>136</ele>
        <time>2011-11-06T08:58:41Z</time>
      </trkpt>
      <trkpt lat="49.23379" lon="2.30789">
        <ele>136</ele>
        <time>2011-11-06T08:58:42Z</time>
      </trkpt>
      <trkpt lat="49.23387" lon="2.30802">
        <ele>136</ele>
        <time>2011-11-06T08:58:43Z</time>
      </trkpt>
      <trkpt lat="49.23393" lon="2.30815">
        <ele>136</ele>
        <time>2011-11-06T08:58:44Z</time>
      </trkpt>
      <trkpt lat="49.234" lon="2.30828">
        <ele>136</ele>
        <time>2011-11-06T08:58:45Z</time>
      </trkpt>
      <trkpt lat="49.23407" lon="2.30843">
        <ele>136</ele>
        <time>2011-11-06T08:58:46Z</time>
      </trkpt>
      <trkpt lat="49.23414" lon="2.30857">
        <ele>136</ele>
        <time>2011-11-06T08:58:47Z</time>
      </trkpt>
      <trkpt lat="49.23421" lon="2.30871">
        <ele>136</ele>
        <time>2011-11-06T08:58:48Z</time>
      </trkpt>
      <trkpt lat="49.23428" lon="2.30886">
        <ele>136</ele>
        <time>2011-11-06T08:58:49Z</time>
      </trkpt>
      <trkpt lat="49.23435" lon="2.309">
        <ele>136</ele>
        <time>2011-11-06T08:58:50Z</time>
      </trkpt>
      <trkpt lat="49.23444" lon="2.30916">
        <ele>136</ele>
        <time>2011-11-06T08:58:51Z</time>
      </trkpt>
      <trkpt lat="49.23451" lon="2.30931">
        <ele>136</ele>
        <time>2011-11-06T08:58:52Z</time>
      </trkpt>
      <trkpt lat="49.23459" lon="2.30945">
        <ele>136</ele>
        <time>2011-11-06T08:58:53Z</time>
      </trkpt>
      <trkpt lat="49.23467" lon="2.30959">
        <ele>136</ele>
        <time>2011-11-06T08:58:54Z</time>
      </trkpt>
      <trkpt lat="49.23474" lon="2.30971">
        <ele>136</ele>
        <time>2011-11-06T08:58:55Z</time>
      </trkpt>
      <trkpt lat="49.23481" lon="2.30983">
        <ele>136</ele>
        <time>2011-11-06T08:58:56Z</time>
      </trkpt>
      <trkpt lat="49.23488" lon="2.30993">
        <ele>136</ele>
        <time>2011-11-06T08:58:57Z</time>
      </trkpt>
      <trkpt lat="49.23503" lon="2.31007">
        <ele>136</ele>
        <time>2011-11-06T08:58:59Z</time>
      </trkpt>
      <trkpt lat="49.23521" lon="2.31016">
        <ele>130</ele>
        <time>2011-11-06T08:59:01Z</time>
      </trkpt>
      <trkpt lat="49.23531" lon="2.31019">
        <ele>130</ele>
        <time>2011-11-06T08:59:02Z</time>
      </trkpt>
      <trkpt lat="49.23542" lon="2.31021">
        <ele>130</ele>
        <time>2011-11-06T08:59:03Z</time>
      </trkpt>
      <trkpt lat="49.23552" lon="2.31023">
        <ele>130</ele>
        <time>2011-11-06T08:59:04Z</time>
      </trkpt>
      <trkpt lat="49.23563" lon="2.31026">
        <ele>130</ele>
        <time>2011-11-06T08:59:05Z</time>
      </trkpt>
      <trkpt lat="49.23572" lon="2.31029">
        <ele>130</ele>
        <time>2011-11-06T08:59:06Z</time>
      </trkpt>
      <trkpt lat="49.23588" lon="2.31031">
        <ele>130</ele>
        <time>2011-11-06T08:59:08Z</time>
      </trkpt>
      <trkpt lat="49.23601" lon="2.31031">
        <ele>130</ele>
        <time>2011-11-06T08:59:10Z</time>
      </trkpt>
      <trkpt lat="49.23612" lon="2.31032">
        <ele>130</ele>
        <time>2011-11-06T08:59:13Z</time>
      </trkpt>
      <trkpt lat="49.23622" lon="2.31033">
        <ele>130</ele>
        <time>2011-11-06T08:59:16Z</time>
      </trkpt>
      <trkpt lat="49.23633" lon="2.31036">
        <ele>130</ele>
        <time>2011-11-06T08:59:18Z</time>
      </trkpt>
      <trkpt lat="49.23647" lon="2.31045">
        <ele>130</ele>
        <time>2011-11-06T08:59:20Z</time>
      </trkpt>
      <trkpt lat="49.23664" lon="2.31058">
        <ele>130</ele>
        <time>2011-11-06T08:59:22Z</time>
      </trkpt>
      <trkpt lat="49.23673" lon="2.31065">
        <ele>130</ele>
        <time>2011-11-06T08:59:23Z</time>
      </trkpt>
      <trkpt lat="49.23683" lon="2.31072">
        <ele>130</ele>
        <time>2011-11-06T08:59:24Z</time>
      </trkpt>
      <trkpt lat="49.23693" lon="2.3108">
        <ele>130</ele>
        <time>2011-11-06T08:59:25Z</time>
      </trkpt>
      <trkpt lat="49.23704" lon="2.31089">
        <ele>130</ele>
        <time>2011-11-06T08:59:26Z</time>
      </trkpt>
      <trkpt lat="49.23714" lon="2.31097">
        <ele>130</ele>
        <time>2011-11-06T08:59:27Z</time>
      </trkpt>
      <trkpt lat="49.23725" lon="2.31107">
        <ele>130</ele>
        <time>2011-11-06T08:59:28Z</time>
      </trkpt>
      <trkpt lat="49.23735" lon="2.31118">
        <ele>135</ele>
        <time>2011-11-06T08:59:29Z</time>
      </trkpt>
      <trkpt lat="49.23746" lon="2.31128">
        <ele>135</ele>
        <time>2011-11-06T08:59:30Z</time>
      </trkpt>
      <trkpt lat="49.23756" lon="2.31141">
        <ele>135</ele>
        <time>2011-11-06T08:59:31Z</time>
      </trkpt>
      <trkpt lat="49.23766" lon="2.31154">
        <ele>135</ele>
        <time>2011-11-06T08:59:32Z</time>
      </trkpt>
      <trkpt lat="49.23776" lon="2.31167">
        <ele>135</ele>
        <time>2011-11-06T08:59:33Z</time>
      </trkpt>
      <trkpt lat="49.23786" lon="2.31181">
        <ele>135</ele>
        <time>2011-11-06T08:59:34Z</time>
      </trkpt>
      <trkpt lat="49.23796" lon="2.31195">
        <ele>135</ele>
        <time>2011-11-06T08:59:35Z</time>
      </trkpt>
      <trkpt lat="49.23806" lon="2.31209">
        <ele>135</ele>
        <time>2011-11-06T08:59:36Z</time>
      </trkpt>
      <trkpt lat="49.23817" lon="2.31222">
        <ele>135</ele>
        <time>2011-11-06T08:59:37Z</time>
      </trkpt>
      <trkpt lat="49.23825" lon="2.31234">
        <ele>140</ele>
        <time>2011-11-06T08:59:38Z</time>
      </trkpt>
      <trkpt lat="49.23833" lon="2.31243">
        <ele>140</ele>
        <time>2011-11-06T08:59:39Z</time>
      </trkpt>
      <trkpt lat="49.23845" lon="2.31259">
        <ele>140</ele>
        <time>2011-11-06T08:59:41Z</time>
      </trkpt>
      <trkpt lat="49.23854" lon="2.31271">
        <ele>140</ele>
        <time>2011-11-06T08:59:43Z</time>
      </trkpt>
      <trkpt lat="49.23864" lon="2.31285">
        <ele>140</ele>
        <time>2011-11-06T08:59:45Z</time>
      </trkpt>
      <trkpt lat="49.23875" lon="2.313">
        <ele>140</ele>
        <time>2011-11-06T08:59:47Z</time>
      </trkpt>
      <trkpt lat="49.23891" lon="2.31315">
        <ele>140</ele>
        <time>2011-11-06T08:59:49Z</time>
      </trkpt>
      <trkpt lat="49.23899" lon="2.31323">
        <ele>140</ele>
        <time>2011-11-06T08:59:50Z</time>
      </trkpt>
      <trkpt lat="49.23908" lon="2.3133">
        <ele>140</ele>
        <time>2011-11-06T08:59:51Z</time>
      </trkpt>
      <trkpt lat="49.23916" lon="2.31336">
        <ele>140</ele>
        <time>2011-11-06T08:59:52Z</time>
      </trkpt>
      <trkpt lat="49.23924" lon="2.31343">
        <ele>140</ele>
        <time>2011-11-06T08:59:53Z</time>
      </trkpt>
      <trkpt lat="49.23933" lon="2.3135">
        <ele>140</ele>
        <time>2011-11-06T08:59:54Z</time>
      </trkpt>
      <trkpt lat="49.23941" lon="2.31358">
        <ele>140</ele>
        <time>2011-11-06T08:59:55Z</time>
      </trkpt>
      <trkpt lat="49.23951" lon="2.31367">
        <ele>140</ele>
        <time>2011-11-06T08:59:56Z</time>
      </trkpt>
      <trkpt lat="49.2396" lon="2.31376">
        <ele>140</ele>
        <time>2011-11-06T08:59:57Z</time>
      </trkpt>
      <trkpt lat="49.23969" lon="2.31384">
        <ele>140</ele>
        <time>2011-11-06T08:59:58Z</time>
      </trkpt>
      <trkpt lat="49.23978" lon="2.31391">
        <ele>140</ele>
        <time>2011-11-06T08:59:59Z</time>
      </trkpt>
      <trkpt lat="49.23988" lon="2.31399">
        <ele>140</ele>
        <time>2011-11-06T09:00:00Z</time>
      </trkpt>
      <trkpt lat="49.23997" lon="2.31407">
        <ele>140</ele>
        <time>2011-11-06T09:00:01Z</time>
      </trkpt>
      <trkpt lat="49.24005" lon="2.31414">
        <ele>140</ele>
        <time>2011-11-06T09:00:02Z</time>
      </trkpt>
      <trkpt lat="49.24014" lon="2.31422">
        <ele>140</ele>
        <time>2011-11-06T09:00:03Z</time>
      </trkpt>
      <trkpt lat="49.24023" lon="2.31429">
        <ele>140</ele>
        <time>2011-11-06T09:00:04Z</time>
      </trkpt>
      <trkpt lat="49.24031" lon="2.31437">
        <ele>140</ele>
        <time>2011-11-06T09:00:05Z</time>
      </trkpt>
      <trkpt lat="49.24039" lon="2.31444">
        <ele>140</ele>
        <time>2011-11-06T09:00:06Z</time>
      </trkpt>
      <trkpt lat="49.24055" lon="2.31456">
        <ele>140</ele>
        <time>2011-11-06T09:00:08Z</time>
      </trkpt>
      <trkpt lat="49.24068" lon="2.31469">
        <ele>140</ele>
        <time>2011-11-06T09:00:10Z</time>
      </trkpt>
      <trkpt lat="49.24082" lon="2.31481">
        <ele>140</ele>
        <time>2011-11-06T09:00:12Z</time>
      </trkpt>
      <trkpt lat="49.24096" lon="2.31492">
        <ele>140</ele>
        <time>2011-11-06T09:00:14Z</time>
      </trkpt>
      <trkpt lat="49.2411" lon="2.31504">
        <ele>135</ele>
        <time>2011-11-06T09:00:16Z</time>
      </trkpt>
      <trkpt lat="49.24124" lon="2.31517">
        <ele>135</ele>
        <time>2011-11-06T09:00:18Z</time>
      </trkpt>
      <trkpt lat="49.24139" lon="2.3153">
        <ele>135</ele>
        <time>2011-11-06T09:00:20Z</time>
      </trkpt>
      <trkpt lat="49.24154" lon="2.31543">
        <ele>135</ele>
        <time>2011-11-06T09:00:22Z</time>
      </trkpt>
      <trkpt lat="49.24168" lon="2.31555">
        <ele>135</ele>
        <time>2011-11-06T09:00:24Z</time>
      </trkpt>
      <trkpt lat="49.24182" lon="2.31568">
        <ele>135</ele>
        <time>2011-11-06T09:00:26Z</time>
      </trkpt>
      <trkpt lat="49.24197" lon="2.3158">
        <ele>128</ele>
        <time>2011-11-06T09:00:28Z</time>
      </trkpt>
      <trkpt lat="49.24212" lon="2.31594">
        <ele>128</ele>
        <time>2011-11-06T09:00:30Z</time>
      </trkpt>
      <trkpt lat="49.24228" lon="2.31607">
        <ele>128</ele>
        <time>2011-11-06T09:00:32Z</time>
      </trkpt>
      <trkpt lat="49.24236" lon="2.31614">
        <ele>128</ele>
        <time>2011-11-06T09:00:33Z</time>
      </trkpt>
      <trkpt lat="49.24244" lon="2.31621">
        <ele>128</ele>
        <time>2011-11-06T09:00:34Z</time>
      </trkpt>
      <trkpt lat="49.24252" lon="2.31628">
        <ele>128</ele>
        <time>2011-11-06T09:00:35Z</time>
      </trkpt>
      <trkpt lat="49.24261" lon="2.31635">
        <ele>128</ele>
        <time>2011-11-06T09:00:36Z</time>
      </trkpt>
      <trkpt lat="49.24269" lon="2.31642">
        <ele>123</ele>
        <time>2011-11-06T09:00:37Z</time>
      </trkpt>
      <trkpt lat="49.24278" lon="2.3165">
        <ele>123</ele>
        <time>2011-11-06T09:00:38Z</time>
      </trkpt>
      <trkpt lat="49.24286" lon="2.31657">
        <ele>123</ele>
        <time>2011-11-06T09:00:39Z</time>
      </trkpt>
      <trkpt lat="49.24295" lon="2.31664">
        <ele>123</ele>
        <time>2011-11-06T09:00:40Z</time>
      </trkpt>
      <trkpt lat="49.24303" lon="2.3167">
        <ele>123</ele>
        <time>2011-11-06T09:00:41Z</time>
      </trkpt>
      <trkpt lat="49.24318" lon="2.31684">
        <ele>123</ele>
        <time>2011-11-06T09:00:43Z</time>
      </trkpt>
      <trkpt lat="49.24332" lon="2.31696">
        <ele>123</ele>
        <time>2011-11-06T09:00:45Z</time>
      </trkpt>
      <trkpt lat="49.24346" lon="2.31709">
        <ele>118</ele>
        <time>2011-11-06T09:00:47Z</time>
      </trkpt>
      <trkpt lat="49.24358" lon="2.3172">
        <ele>118</ele>
        <time>2011-11-06T09:00:49Z</time>
      </trkpt>
      <trkpt lat="49.24371" lon="2.3173">
        <ele>118</ele>
        <time>2011-11-06T09:00:51Z</time>
      </trkpt>
      <trkpt lat="49.24381" lon="2.31741">
        <ele>118</ele>
        <time>2011-11-06T09:00:53Z</time>
      </trkpt>
      <trkpt lat="49.24384" lon="2.31759">
        <ele>118</ele>
        <time>2011-11-06T09:00:56Z</time>
      </trkpt>
      <trkpt lat="49.24377" lon="2.31773">
        <ele>118</ele>
        <time>2011-11-06T09:00:58Z</time>
      </trkpt>
      <trkpt lat="49.24368" lon="2.31791">
        <ele>112</ele>
        <time>2011-11-06T09:01:00Z</time>
      </trkpt>
      <trkpt lat="49.24356" lon="2.31811">
        <ele>112</ele>
        <time>2011-11-06T09:01:02Z</time>
      </trkpt>
      <trkpt lat="49.24345" lon="2.31834">
        <ele>112</ele>
        <time>2011-11-06T09:01:04Z</time>
      </trkpt>
      <trkpt lat="49.24338" lon="2.31844">
        <ele>112</ele>
        <time>2011-11-06T09:01:05Z</time>
      </trkpt>
      <trkpt lat="49.24332" lon="2.31856">
        <ele>112</ele>
        <time>2011-11-06T09:01:06Z</time>
      </trkpt>
      <trkpt lat="49.24325" lon="2.31867">
        <ele>112</ele>
        <time>2011-11-06T09:01:07Z</time>
      </trkpt>
      <trkpt lat="49.24319" lon="2.31878">
        <ele>112</ele>
        <time>2011-11-06T09:01:08Z</time>
      </trkpt>
      <trkpt lat="49.24308" lon="2.31897">
        <ele>112</ele>
        <time>2011-11-06T09:01:10Z</time>
      </trkpt>
      <trkpt lat="49.24299" lon="2.31914">
        <ele>112</ele>
        <time>2011-11-06T09:01:12Z</time>
      </trkpt>
      <trkpt lat="49.24291" lon="2.3193">
        <ele>112</ele>
        <time>2011-11-06T09:01:14Z</time>
      </trkpt>
      <trkpt lat="49.24285" lon="2.31944">
        <ele>112</ele>
        <time>2011-11-06T09:01:16Z</time>
      </trkpt>
      <trkpt lat="49.24284" lon="2.31959">
        <ele>112</ele>
        <time>2011-11-06T09:01:18Z</time>
      </trkpt>
      <trkpt lat="49.24289" lon="2.31976">
        <ele>112</ele>
        <time>2011-11-06T09:01:20Z</time>
      </trkpt>
      <trkpt lat="49.24296" lon="2.31992">
        <ele>112</ele>
        <time>2011-11-06T09:01:22Z</time>
      </trkpt>
      <trkpt lat="49.24303" lon="2.32011">
        <ele>107</ele>
        <time>2011-11-06T09:01:24Z</time>
      </trkpt>
      <trkpt lat="49.24311" lon="2.32031">
        <ele>107</ele>
        <time>2011-11-06T09:01:26Z</time>
      </trkpt>
      <trkpt lat="49.24321" lon="2.32054">
        <ele>107</ele>
        <time>2011-11-06T09:01:28Z</time>
      </trkpt>
      <trkpt lat="49.24325" lon="2.32066">
        <ele>107</ele>
        <time>2011-11-06T09:01:29Z</time>
      </trkpt>
      <trkpt lat="49.24334" lon="2.32091">
        <ele>107</ele>
        <time>2011-11-06T09:01:31Z</time>
      </trkpt>
      <trkpt lat="49.24343" lon="2.32114">
        <ele>107</ele>
        <time>2011-11-06T09:01:33Z</time>
      </trkpt>
      <trkpt lat="49.24352" lon="2.32138">
        <ele>107</ele>
        <time>2011-11-06T09:01:35Z</time>
      </trkpt>
      <trkpt lat="49.24357" lon="2.32151">
        <ele>107</ele>
        <time>2011-11-06T09:01:36Z</time>
      </trkpt>
      <trkpt lat="49.24366" lon="2.32175">
        <ele>107</ele>
        <time>2011-11-06T09:01:38Z</time>
      </trkpt>
      <trkpt lat="49.24371" lon="2.32188">
        <ele>107</ele>
        <time>2011-11-06T09:01:39Z</time>
      </trkpt>
      <trkpt lat="49.2438" lon="2.32211">
        <ele>102</ele>
        <time>2011-11-06T09:01:41Z</time>
      </trkpt>
      <trkpt lat="49.24389" lon="2.32234">
        <ele>102</ele>
        <time>2011-11-06T09:01:43Z</time>
      </trkpt>
      <trkpt lat="49.24398" lon="2.32259">
        <ele>102</ele>
        <time>2011-11-06T09:01:45Z</time>
      </trkpt>
      <trkpt lat="49.24403" lon="2.32271">
        <ele>102</ele>
        <time>2011-11-06T09:01:46Z</time>
      </trkpt>
      <trkpt lat="49.24408" lon="2.32283">
        <ele>102</ele>
        <time>2011-11-06T09:01:47Z</time>
      </trkpt>
      <trkpt lat="49.24418" lon="2.32303">
        <ele>102</ele>
        <time>2011-11-06T09:01:49Z</time>
      </trkpt>
      <trkpt lat="49.24425" lon="2.32318">
        <ele>102</ele>
        <time>2011-11-06T09:01:51Z</time>
      </trkpt>
      <trkpt lat="49.24431" lon="2.3233">
        <ele>102</ele>
        <time>2011-11-06T09:01:53Z</time>
      </trkpt>
      <trkpt lat="49.24436" lon="2.32344">
        <ele>102</ele>
        <time>2011-11-06T09:01:56Z</time>
      </trkpt>
      <trkpt lat="49.24429" lon="2.32354">
        <ele>102</ele>
        <time>2011-11-06T09:01:59Z</time>
      </trkpt>
      <trkpt lat="49.24419" lon="2.32365">
        <ele>102</ele>
        <time>2011-11-06T09:02:01Z</time>
      </trkpt>
      <trkpt lat="49.24405" lon="2.32385">
        <ele>102</ele>
        <time>2011-11-06T09:02:03Z</time>
      </trkpt>
      <trkpt lat="49.24398" lon="2.32398">
        <ele>102</ele>
        <time>2011-11-06T09:02:04Z</time>
      </trkpt>
      <trkpt lat="49.24389" lon="2.32412">
        <ele>102</ele>
        <time>2011-11-06T09:02:05Z</time>
      </trkpt>
      <trkpt lat="49.24381" lon="2.32427">
        <ele>102</ele>
        <time>2011-11-06T09:02:06Z</time>
      </trkpt>
      <trkpt lat="49.24371" lon="2.32445">
        <ele>102</ele>
        <time>2011-11-06T09:02:07Z</time>
      </trkpt>
      <trkpt lat="49.24362" lon="2.32462">
        <ele>102</ele>
        <time>2011-11-06T09:02:08Z</time>
      </trkpt>
      <trkpt lat="49.24352" lon="2.32481">
        <ele>102</ele>
        <time>2011-11-06T09:02:09Z</time>
      </trkpt>
      <trkpt lat="49.24342" lon="2.32501">
        <ele>102</ele>
        <time>2011-11-06T09:02:10Z</time>
      </trkpt>
      <trkpt lat="49.24332" lon="2.32522">
        <ele>102</ele>
        <time>2011-11-06T09:02:11Z</time>
      </trkpt>
      <trkpt lat="49.24321" lon="2.32542">
        <ele>102</ele>
        <time>2011-11-06T09:02:12Z</time>
      </trkpt>
      <trkpt lat="49.2431" lon="2.32563">
        <ele>102</ele>
        <time>2011-11-06T09:02:13Z</time>
      </trkpt>
      <trkpt lat="49.24299" lon="2.32585">
        <ele>97</ele>
        <time>2011-11-06T09:02:14Z</time>
      </trkpt>
      <trkpt lat="49.24288" lon="2.32606">
        <ele>97</ele>
        <time>2011-11-06T09:02:15Z</time>
      </trkpt>
      <trkpt lat="49.24276" lon="2.32628">
        <ele>97</ele>
        <time>2011-11-06T09:02:16Z</time>
      </trkpt>
      <trkpt lat="49.24264" lon="2.32651">
        <ele>97</ele>
        <time>2011-11-06T09:02:17Z</time>
      </trkpt>
      <trkpt lat="49.24252" lon="2.32674">
        <ele>97</ele>
        <time>2011-11-06T09:02:18Z</time>
      </trkpt>
      <trkpt lat="49.24241" lon="2.32697">
        <ele>97</ele>
        <time>2011-11-06T09:02:19Z</time>
      </trkpt>
      <trkpt lat="49.24228" lon="2.32721">
        <ele>97</ele>
        <time>2011-11-06T09:02:20Z</time>
      </trkpt>
      <trkpt lat="49.24216" lon="2.32745">
        <ele>97</ele>
        <time>2011-11-06T09:02:21Z</time>
      </trkpt>
      <trkpt lat="49.24204" lon="2.32769">
        <ele>97</ele>
        <time>2011-11-06T09:02:22Z</time>
      </trkpt>
      <trkpt lat="49.24191" lon="2.32791">
        <ele>97</ele>
        <time>2011-11-06T09:02:23Z</time>
      </trkpt>
      <trkpt lat="49.24179" lon="2.32814">
        <ele>97</ele>
        <time>2011-11-06T09:02:24Z</time>
      </trkpt>
      <trkpt lat="49.24166" lon="2.32834">
        <ele>97</ele>
        <time>2011-11-06T09:02:25Z</time>
      </trkpt>
      <trkpt lat="49.24153" lon="2.32855">
        <ele>97</ele>
        <time>2011-11-06T09:02:26Z</time>
      </trkpt>
      <trkpt lat="49.24138" lon="2.32874">
        <ele>97</ele>
        <time>2011-11-06T09:02:27Z</time>
      </trkpt>
      <trkpt lat="49.24124" lon="2.32893">
        <ele>97</ele>
        <time>2011-11-06T09:02:28Z</time>
      </trkpt>
      <trkpt lat="49.24109" lon="2.3291">
        <ele>97</ele>
        <time>2011-11-06T09:02:29Z</time>
      </trkpt>
      <trkpt lat="49.24095" lon="2.32926">
        <ele>97</ele>
        <time>2011-11-06T09:02:30Z</time>
      </trkpt>
      <trkpt lat="49.24081" lon="2.32941">
        <ele>91</ele>
        <time>2011-11-06T09:02:31Z</time>
      </trkpt>
      <trkpt lat="49.24068" lon="2.32956">
        <ele>91</ele>
        <time>2011-11-06T09:02:32Z</time>
      </trkpt>
      <trkpt lat="49.24055" lon="2.32969">
        <ele>91</ele>
        <time>2011-11-06T09:02:33Z</time>
      </trkpt>
      <trkpt lat="49.24042" lon="2.32983">
        <ele>91</ele>
        <time>2011-11-06T09:02:34Z</time>
      </trkpt>
      <trkpt lat="49.24031" lon="2.32996">
        <ele>91</ele>
        <time>2011-11-06T09:02:35Z</time>
      </trkpt>
      <trkpt lat="49.24019" lon="2.33008">
        <ele>91</ele>
        <time>2011-11-06T09:02:36Z</time>
      </trkpt>
      <trkpt lat="49.24009" lon="2.33019">
        <ele>91</ele>
        <time>2011-11-06T09:02:37Z</time>
      </trkpt>
      <trkpt lat="49.24001" lon="2.33028">
        <ele>91</ele>
        <time>2011-11-06T09:02:38Z</time>
      </trkpt>
      <trkpt lat="49.23992" lon="2.33037">
        <ele>91</ele>
        <time>2011-11-06T09:02:39Z</time>
      </trkpt>
      <trkpt lat="49.2398" lon="2.3305">
        <ele>91</ele>
        <time>2011-11-06T09:02:41Z</time>
      </trkpt>
      <trkpt lat="49.23971" lon="2.33061">
        <ele>91</ele>
        <time>2011-11-06T09:02:43Z</time>
      </trkpt>
      <trkpt lat="49.23967" lon="2.33076">
        <ele>91</ele>
        <time>2011-11-06T09:02:46Z</time>
      </trkpt>
      <trkpt lat="49.23971" lon="2.33093">
        <ele>91</ele>
        <time>2011-11-06T09:03:08Z</time>
      </trkpt>
      <trkpt lat="49.23973" lon="2.33109">
        <ele>91</ele>
        <time>2011-11-06T09:03:12Z</time>
      </trkpt>
      <trkpt lat="49.23974" lon="2.33124">
        <ele>91</ele>
        <time>2011-11-06T09:03:15Z</time>
      </trkpt>
      <trkpt lat="49.23979" lon="2.33141">
        <ele>91</ele>
        <time>2011-11-06T09:03:19Z</time>
      </trkpt>
      <trkpt lat="49.23985" lon="2.33153">
        <ele>91</ele>
        <time>2011-11-06T09:03:22Z</time>
      </trkpt>
      <trkpt lat="49.23994" lon="2.33169">
        <ele>91</ele>
        <time>2011-11-06T09:03:25Z</time>
      </trkpt>
      <trkpt lat="49.24002" lon="2.33187">
        <ele>91</ele>
        <time>2011-11-06T09:03:28Z</time>
      </trkpt>
      <trkpt lat="49.24009" lon="2.33201">
        <ele>91</ele>
        <time>2011-11-06T09:03:30Z</time>
      </trkpt>
      <trkpt lat="49.24016" lon="2.33218">
        <ele>91</ele>
        <time>2011-11-06T09:03:32Z</time>
      </trkpt>
      <trkpt lat="49.24019" lon="2.33231">
        <ele>91</ele>
        <time>2011-11-06T09:03:34Z</time>
      </trkpt>
      <trkpt lat="49.24025" lon="2.33246">
        <ele>91</ele>
        <time>2011-11-06T09:03:37Z</time>
      </trkpt>
      <trkpt lat="49.24029" lon="2.33261">
        <ele>91</ele>
        <time>2011-11-06T09:03:40Z</time>
      </trkpt>
      <trkpt lat="49.24033" lon="2.33275">
        <ele>98</ele>
        <time>2011-11-06T09:03:42Z</time>
      </trkpt>
      <trkpt lat="49.24038" lon="2.33291">
        <ele>98</ele>
        <time>2011-11-06T09:03:44Z</time>
      </trkpt>
      <trkpt lat="49.24044" lon="2.33307">
        <ele>98</ele>
        <time>2011-11-06T09:03:46Z</time>
      </trkpt>
      <trkpt lat="49.24046" lon="2.33321">
        <ele>98</ele>
        <time>2011-11-06T09:03:48Z</time>
      </trkpt>
      <trkpt lat="49.24049" lon="2.33337">
        <ele>98</ele>
        <time>2011-11-06T09:03:50Z</time>
      </trkpt>
      <trkpt lat="49.24055" lon="2.33355">
        <ele>98</ele>
        <time>2011-11-06T09:03:52Z</time>
      </trkpt>
      <trkpt lat="49.24058" lon="2.33368">
        <ele>98</ele>
        <time>2011-11-06T09:03:54Z</time>
      </trkpt>
      <trkpt lat="49.24064" lon="2.33382">
        <ele>98</ele>
        <time>2011-11-06T09:03:57Z</time>
      </trkpt>
      <trkpt lat="49.24068" lon="2.33401">
        <ele>98</ele>
        <time>2011-11-06T09:04:01Z</time>
      </trkpt>
      <trkpt lat="49.24072" lon="2.33414">
        <ele>103</ele>
        <time>2011-11-06T09:04:03Z</time>
      </trkpt>
      <trkpt lat="49.24075" lon="2.33429">
        <ele>109</ele>
        <time>2011-11-06T09:04:05Z</time>
      </trkpt>
      <trkpt lat="49.24081" lon="2.33441">
        <ele>109</ele>
        <time>2011-11-06T09:04:07Z</time>
      </trkpt>
      <trkpt lat="49.24089" lon="2.33453">
        <ele>109</ele>
        <time>2011-11-06T09:04:09Z</time>
      </trkpt>
      <trkpt lat="49.24096" lon="2.33467">
        <ele>109</ele>
        <time>2011-11-06T09:04:11Z</time>
      </trkpt>
      <trkpt lat="49.24101" lon="2.33479">
        <ele>109</ele>
        <time>2011-11-06T09:04:13Z</time>
      </trkpt>
      <trkpt lat="49.24109" lon="2.33492">
        <ele>109</ele>
        <time>2011-11-06T09:04:15Z</time>
      </trkpt>
      <trkpt lat="49.24115" lon="2.33503">
        <ele>103</ele>
        <time>2011-11-06T09:04:17Z</time>
      </trkpt>
      <trkpt lat="49.24122" lon="2.33515">
        <ele>103</ele>
        <time>2011-11-06T09:04:20Z</time>
      </trkpt>
      <trkpt lat="49.24128" lon="2.33527">
        <ele>103</ele>
        <time>2011-11-06T09:04:23Z</time>
      </trkpt>
      <trkpt lat="49.24134" lon="2.33538">
        <ele>103</ele>
        <time>2011-11-06T09:04:26Z</time>
      </trkpt>
      <trkpt lat="49.24141" lon="2.33548">
        <ele>103</ele>
        <time>2011-11-06T09:04:30Z</time>
      </trkpt>
      <trkpt lat="49.24148" lon="2.33558">
        <ele>103</ele>
        <time>2011-11-06T09:04:34Z</time>
      </trkpt>
      <trkpt lat="49.24154" lon="2.33568">
        <ele>103</ele>
        <time>2011-11-06T09:04:38Z</time>
      </trkpt>
      <trkpt lat="49.24161" lon="2.33584">
        <ele>103</ele>
        <time>2011-11-06T09:04:42Z</time>
      </trkpt>
      <trkpt lat="49.24168" lon="2.33598">
        <ele>103</ele>
        <time>2011-11-06T09:04:46Z</time>
      </trkpt>
      <trkpt lat="49.24174" lon="2.33614">
        <ele>103</ele>
        <time>2011-11-06T09:04:50Z</time>
      </trkpt>
      <trkpt lat="49.24179" lon="2.33627">
        <ele>103</ele>
        <time>2011-11-06T09:04:52Z</time>
      </trkpt>
      <trkpt lat="49.24186" lon="2.33641">
        <ele>103</ele>
        <time>2011-11-06T09:04:54Z</time>
      </trkpt>
      <trkpt lat="49.24194" lon="2.33658">
        <ele>103</ele>
        <time>2011-11-06T09:04:56Z</time>
      </trkpt>
      <trkpt lat="49.24201" lon="2.33674">
        <ele>103</ele>
        <time>2011-11-06T09:04:58Z</time>
      </trkpt>
      <trkpt lat="49.24208" lon="2.3369">
        <ele>103</ele>
        <time>2011-11-06T09:05:00Z</time>
      </trkpt>
      <trkpt lat="49.24214" lon="2.33708">
        <ele>103</ele>
        <time>2011-11-06T09:05:02Z</time>
      </trkpt>
      <trkpt lat="49.24219" lon="2.33727">
        <ele>103</ele>
        <time>2011-11-06T09:05:04Z</time>
      </trkpt>
      <trkpt lat="49.24223" lon="2.33747">
        <ele>103</ele>
        <time>2011-11-06T09:05:06Z</time>
      </trkpt>
      <trkpt lat="49.24228" lon="2.33767">
        <ele>109</ele>
        <time>2011-11-06T09:05:08Z</time>
      </trkpt>
      <trkpt lat="49.24232" lon="2.33786">
        <ele>109</ele>
        <time>2011-11-06T09:05:10Z</time>
      </trkpt>
      <trkpt lat="49.24237" lon="2.33809">
        <ele>109</ele>
        <time>2011-11-06T09:05:12Z</time>
      </trkpt>
      <trkpt lat="49.24242" lon="2.33834">
        <ele>109</ele>
        <time>2011-11-06T09:05:14Z</time>
      </trkpt>
      <trkpt lat="49.24247" lon="2.33859">
        <ele>115</ele>
        <time>2011-11-06T09:05:16Z</time>
      </trkpt>
      <trkpt lat="49.24251" lon="2.33885">
        <ele>115</ele>
        <time>2011-11-06T09:05:18Z</time>
      </trkpt>
      <trkpt lat="49.24254" lon="2.33898">
        <ele>115</ele>
        <time>2011-11-06T09:05:19Z</time>
      </trkpt>
      <trkpt lat="49.24256" lon="2.33911">
        <ele>115</ele>
        <time>2011-11-06T09:05:20Z</time>
      </trkpt>
      <trkpt lat="49.24259" lon="2.33925">
        <ele>121</ele>
        <time>2011-11-06T09:05:21Z</time>
      </trkpt>
      <trkpt lat="49.24264" lon="2.3395">
        <ele>121</ele>
        <time>2011-11-06T09:05:23Z</time>
      </trkpt>
      <trkpt lat="49.24269" lon="2.33972">
        <ele>121</ele>
        <time>2011-11-06T09:05:25Z</time>
      </trkpt>
      <trkpt lat="49.24274" lon="2.33995">
        <ele>121</ele>
        <time>2011-11-06T09:05:27Z</time>
      </trkpt>
      <trkpt lat="49.24277" lon="2.3402">
        <ele>128</ele>
        <time>2011-11-06T09:05:29Z</time>
      </trkpt>
      <trkpt lat="49.24281" lon="2.34041">
        <ele>128</ele>
        <time>2011-11-06T09:05:31Z</time>
      </trkpt>
      <trkpt lat="49.24284" lon="2.34059">
        <ele>128</ele>
        <time>2011-11-06T09:05:33Z</time>
      </trkpt>
      <trkpt lat="49.24288" lon="2.34074">
        <ele>128</ele>
        <time>2011-11-06T09:05:35Z</time>
      </trkpt>
      <trkpt lat="49.24294" lon="2.34091">
        <ele>128</ele>
        <time>2011-11-06T09:05:37Z</time>
      </trkpt>
      <trkpt lat="49.243" lon="2.34108">
        <ele>128</ele>
        <time>2011-11-06T09:05:39Z</time>
      </trkpt>
      <trkpt lat="49.24306" lon="2.34125">
        <ele>128</ele>
        <time>2011-11-06T09:05:41Z</time>
      </trkpt>
      <trkpt lat="49.24313" lon="2.34143">
        <ele>128</ele>
        <time>2011-11-06T09:05:43Z</time>
      </trkpt>
      <trkpt lat="49.24321" lon="2.3416">
        <ele>128</ele>
        <time>2011-11-06T09:05:45Z</time>
      </trkpt>
      <trkpt lat="49.24329" lon="2.34175">
        <ele>128</ele>
        <time>2011-11-06T09:05:47Z</time>
      </trkpt>
      <trkpt lat="49.24335" lon="2.3419">
        <ele>133</ele>
        <time>2011-11-06T09:05:49Z</time>
      </trkpt>
      <trkpt lat="49.24341" lon="2.34207">
        <ele>133</ele>
        <time>2011-11-06T09:05:51Z</time>
      </trkpt>
      <trkpt lat="49.24347" lon="2.3422">
        <ele>133</ele>
        <time>2011-11-06T09:05:53Z</time>
      </trkpt>
      <trkpt lat="49.24354" lon="2.34236">
        <ele>133</ele>
        <time>2011-11-06T09:05:56Z</time>
      </trkpt>
      <trkpt lat="49.24358" lon="2.34253">
        <ele>133</ele>
        <time>2011-11-06T09:05:59Z</time>
      </trkpt>
      <trkpt lat="49.24358" lon="2.34268">
        <ele>140</ele>
        <time>2011-11-06T09:06:02Z</time>
      </trkpt>
      <trkpt lat="49.24358" lon="2.34282">
        <ele>146</ele>
        <time>2011-11-06T09:06:08Z</time>
      </trkpt>
      <trkpt lat="49.24351" lon="2.34295">
        <ele>146</ele>
        <time>2011-11-06T09:06:13Z</time>
      </trkpt>
      <trkpt lat="49.24344" lon="2.34309">
        <ele>146</ele>
        <time>2011-11-06T09:06:16Z</time>
      </trkpt>
      <trkpt lat="49.24337" lon="2.34325">
        <ele>146</ele>
        <time>2011-11-06T09:06:19Z</time>
      </trkpt>
      <trkpt lat="49.24331" lon="2.34338">
        <ele>140</ele>
        <time>2011-11-06T09:06:22Z</time>
      </trkpt>
      <trkpt lat="49.24325" lon="2.34352">
        <ele>140</ele>
        <time>2011-11-06T09:06:25Z</time>
      </trkpt>
      <trkpt lat="49.24319" lon="2.34368">
        <ele>140</ele>
        <time>2011-11-06T09:06:28Z</time>
      </trkpt>
      <trkpt lat="49.24312" lon="2.3438">
        <ele>140</ele>
        <time>2011-11-06T09:06:31Z</time>
      </trkpt>
      <trkpt lat="49.24305" lon="2.34394">
        <ele>134</ele>
        <time>2011-11-06T09:06:35Z</time>
      </trkpt>
      <trkpt lat="49.24299" lon="2.34406">
        <ele>134</ele>
        <time>2011-11-06T09:06:41Z</time>
      </trkpt>
      <trkpt lat="49.24296" lon="2.3442">
        <ele>134</ele>
        <time>2011-11-06T09:06:57Z</time>
      </trkpt>
      <trkpt lat="49.24291" lon="2.34432">
        <ele>134</ele>
        <time>2011-11-06T09:07:02Z</time>
      </trkpt>
      <trkpt lat="49.24285" lon="2.34442">
        <ele>134</ele>
        <time>2011-11-06T09:07:08Z</time>
      </trkpt>
      <trkpt lat="49.24279" lon="2.34454">
        <ele>124</ele>
        <time>2011-11-06T09:07:16Z</time>
      </trkpt>
      <trkpt lat="49.24274" lon="2.34468">
        <ele>124</ele>
        <time>2011-11-06T09:07:29Z</time>
      </trkpt>
      <trkpt lat="49.24268" lon="2.34486">
        <ele>124</ele>
        <time>2011-11-06T09:07:33Z</time>
      </trkpt>
      <trkpt lat="49.24265" lon="2.34503">
        <ele>124</ele>
        <time>2011-11-06T09:07:36Z</time>
      </trkpt>
      <trkpt lat="49.24263" lon="2.34519">
        <ele>124</ele>
        <time>2011-11-06T09:07:39Z</time>
      </trkpt>
      <trkpt lat="49.24261" lon="2.34534">
        <ele>124</ele>
        <time>2011-11-06T09:07:42Z</time>
      </trkpt>
      <trkpt lat="49.24258" lon="2.34547">
        <ele>124</ele>
        <time>2011-11-06T09:07:45Z</time>
      </trkpt>
      <trkpt lat="49.24255" lon="2.34564">
        <ele>118</ele>
        <time>2011-11-06T09:07:49Z</time>
      </trkpt>
      <trkpt lat="49.24253" lon="2.34577">
        <ele>118</ele>
        <time>2011-11-06T09:07:52Z</time>
      </trkpt>
      <trkpt lat="49.24251" lon="2.34591">
        <ele>118</ele>
        <time>2011-11-06T09:07:55Z</time>
      </trkpt>
      <trkpt lat="49.24246" lon="2.34609">
        <ele>118</ele>
        <time>2011-11-06T09:07:59Z</time>
      </trkpt>
      <trkpt lat="49.24242" lon="2.34627">
        <ele>118</ele>
        <time>2011-11-06T09:08:03Z</time>
      </trkpt>
      <trkpt lat="49.24239" lon="2.34643">
        <ele>118</ele>
        <time>2011-11-06T09:08:06Z</time>
      </trkpt>
      <trkpt lat="49.24236" lon="2.34661">
        <ele>124</ele>
        <time>2011-11-06T09:08:09Z</time>
      </trkpt>
      <trkpt lat="49.24235" lon="2.34675">
        <ele>124</ele>
        <time>2011-11-06T09:08:12Z</time>
      </trkpt>
      <trkpt lat="49.24232" lon="2.34691">
        <ele>124</ele>
        <time>2011-11-06T09:08:16Z</time>
      </trkpt>
      <trkpt lat="49.24229" lon="2.34708">
        <ele>124</ele>
        <time>2011-11-06T09:08:20Z</time>
      </trkpt>
      <trkpt lat="49.24226" lon="2.34727">
        <ele>124</ele>
        <time>2011-11-06T09:08:23Z</time>
      </trkpt>
      <trkpt lat="49.24219" lon="2.34742">
        <ele>130</ele>
        <time>2011-11-06T09:08:26Z</time>
      </trkpt>
      <trkpt lat="49.24212" lon="2.34755">
        <ele>130</ele>
        <time>2011-11-06T09:08:29Z</time>
      </trkpt>
      <trkpt lat="49.24209" lon="2.34768">
        <ele>136</ele>
        <time>2011-11-06T09:08:34Z</time>
      </trkpt>
      <trkpt lat="49.24205" lon="2.34782">
        <ele>136</ele>
        <time>2011-11-06T09:08:38Z</time>
      </trkpt>
      <trkpt lat="49.24201" lon="2.34795">
        <ele>148</ele>
        <time>2011-11-06T09:09:25Z</time>
      </trkpt>
      <trkpt lat="49.24201" lon="2.3481">
        <ele>148</ele>
        <time>2011-11-06T09:10:14Z</time>
      </trkpt>
      <trkpt lat="49.24197" lon="2.34822">
        <ele>142</ele>
        <time>2011-11-06T09:10:27Z</time>
      </trkpt>
      <trkpt lat="49.24195" lon="2.34838">
        <ele>142</ele>
        <time>2011-11-06T09:10:36Z</time>
      </trkpt>
      <trkpt lat="49.24191" lon="2.34851">
        <ele>142</ele>
        <time>2011-11-06T09:10:53Z</time>
      </trkpt>
      <trkpt lat="49.24188" lon="2.34865">
        <ele>142</ele>
        <time>2011-11-06T09:11:08Z</time>
      </trkpt>
      <trkpt lat="49.24188" lon="2.34879">
        <ele>135</ele>
        <time>2011-11-06T09:11:23Z</time>
      </trkpt>
      <trkpt lat="49.24188" lon="2.34893">
        <ele>135</ele>
        <time>2011-11-06T09:11:42Z</time>
      </trkpt>
      <trkpt lat="49.24183" lon="2.34906">
        <ele>135</ele>
        <time>2011-11-06T09:12:03Z</time>
      </trkpt>
      <trkpt lat="49.24179" lon="2.34919">
        <ele>135</ele>
        <time>2011-11-06T09:12:26Z</time>
      </trkpt>
      <trkpt lat="49.24179" lon="2.34934">
        <ele>166</ele>
        <time>2011-11-06T09:12:57Z</time>
      </trkpt>
      <trkpt lat="49.24175" lon="2.34947">
        <ele>146</ele>
        <time>2011-11-06T09:13:11Z</time>
      </trkpt>
      <trkpt lat="49.24172" lon="2.34961">
        <ele>136</ele>
        <time>2011-11-06T09:13:24Z</time>
      </trkpt>
      <trkpt lat="49.24168" lon="2.34973">
        <ele>131</ele>
        <time>2011-11-06T09:13:33Z</time>
      </trkpt>
      <trkpt lat="49.24165" lon="2.34989">
        <ele>124</ele>
        <time>2011-11-06T09:13:44Z</time>
      </trkpt>
      <trkpt lat="49.24168" lon="2.35002">
        <ele>124</ele>
        <time>2011-11-06T09:13:54Z</time>
      </trkpt>
      <trkpt lat="49.24165" lon="2.35015">
        <ele>139</ele>
        <time>2011-11-06T09:14:14Z</time>
      </trkpt>
      <trkpt lat="49.24161" lon="2.35028">
        <ele>147</ele>
        <time>2011-11-06T09:15:46Z</time>
      </trkpt>
      <trkpt lat="49.2417" lon="2.35036">
        <ele>147</ele>
        <time>2011-11-06T09:16:02Z</time>
      </trkpt>
      <trkpt lat="49.24171" lon="2.35051">
        <ele>141</ele>
        <time>2011-11-06T09:16:08Z</time>
      </trkpt>
      <trkpt lat="49.24164" lon="2.3506">
        <ele>141</ele>
        <time>2011-11-06T09:16:22Z</time>
      </trkpt>
      <trkpt lat="49.24159" lon="2.35072">
        <ele>141</ele>
        <time>2011-11-06T09:16:38Z</time>
      </trkpt>
      <trkpt lat="49.24153" lon="2.35084">
        <ele>148</ele>
        <time>2011-11-06T09:17:11Z</time>
      </trkpt>
      <trkpt lat="49.24151" lon="2.35097">
        <ele>139</ele>
        <time>2011-11-06T09:17:19Z</time>
      </trkpt>
      <trkpt lat="49.24151" lon="2.35112">
        <ele>132</ele>
        <time>2011-11-06T09:17:28Z</time>
      </trkpt>
      <trkpt lat="49.2415" lon="2.35126">
        <ele>126</ele>
        <time>2011-11-06T09:17:36Z</time>
      </trkpt>
      <trkpt lat="49.24149" lon="2.3514">
        <ele>120</ele>
        <time>2011-11-06T09:17:41Z</time>
      </trkpt>
      <trkpt lat="49.24144" lon="2.35152">
        <ele>120</ele>
        <time>2011-11-06T09:17:46Z</time>
      </trkpt>
      <trkpt lat="49.24139" lon="2.35165">
        <ele>131</ele>
        <time>2011-11-06T09:18:06Z</time>
      </trkpt>
      <trkpt lat="49.2413" lon="2.3517">
        <ele>131</ele>
        <time>2011-11-06T09:30:17Z</time>
      </trkpt>
      <trkpt lat="49.24129" lon="2.35187">
        <ele>131</ele>
        <time>2011-11-06T09:30:29Z</time>
      </trkpt>
      <trkpt lat="49.24128" lon="2.35201">
        <ele>131</ele>
        <time>2011-11-06T09:30:32Z</time>
      </trkpt>
      <trkpt lat="49.24126" lon="2.35219">
        <ele>131</ele>
        <time>2011-11-06T09:30:36Z</time>
      </trkpt>
      <trkpt lat="49.24122" lon="2.35234">
        <ele>131</ele>
        <time>2011-11-06T09:30:39Z</time>
      </trkpt>
      <trkpt lat="49.24121" lon="2.3525">
        <ele>131</ele>
        <time>2011-11-06T09:30:43Z</time>
      </trkpt>
      <trkpt lat="49.2411" lon="2.35257">
        <ele>131</ele>
        <time>2011-11-06T09:30:48Z</time>
      </trkpt>
      <trkpt lat="49.241" lon="2.35259">
        <ele>131</ele>
        <time>2011-11-06T09:30:51Z</time>
      </trkpt>
      <trkpt lat="49.24091" lon="2.35264">
        <ele>131</ele>
        <time>2011-11-06T09:31:04Z</time>
      </trkpt>
      <trkpt lat="49.24081" lon="2.35267">
        <ele>131</ele>
        <time>2011-11-06T09:31:17Z</time>
      </trkpt>
      <trkpt lat="49.24071" lon="2.35269">
        <ele>131</ele>
        <time>2011-11-06T09:31:24Z</time>
      </trkpt>
      <trkpt lat="49.24059" lon="2.35272">
        <ele>131</ele>
        <time>2011-11-06T09:31:31Z</time>
      </trkpt>
      <trkpt lat="49.2405" lon="2.35274">
        <ele>131</ele>
        <time>2011-11-06T09:31:36Z</time>
      </trkpt>
      <trkpt lat="49.24041" lon="2.35276">
        <ele>131</ele>
        <time>2011-11-06T09:31:45Z</time>
      </trkpt>
      <trkpt lat="49.24031" lon="2.35278">
        <ele>131</ele>
        <time>2011-11-06T09:31:51Z</time>
      </trkpt>
      <trkpt lat="49.24021" lon="2.35281">
        <ele>131</ele>
        <time>2011-11-06T09:31:56Z</time>
      </trkpt>
      <trkpt lat="49.24009" lon="2.35284">
        <ele>131</ele>
        <time>2011-11-06T09:32:00Z</time>
      </trkpt>
      <trkpt lat="49.24" lon="2.35286">
        <ele>131</ele>
        <time>2011-11-06T09:32:05Z</time>
      </trkpt>
      <trkpt lat="49.23991" lon="2.35281">
        <ele>131</ele>
        <time>2011-11-06T09:32:49Z</time>
      </trkpt>
      <trkpt lat="49.23981" lon="2.35279">
        <ele>131</ele>
        <time>2011-11-06T09:32:53Z</time>
      </trkpt>
      <trkpt lat="49.23971" lon="2.35286">
        <ele>131</ele>
        <time>2011-11-06T09:32:56Z</time>
      </trkpt>
      <trkpt lat="49.23961" lon="2.35288">
        <ele>131</ele>
        <time>2011-11-06T09:32:59Z</time>
      </trkpt>
      <trkpt lat="49.23951" lon="2.3529">
        <ele>131</ele>
        <time>2011-11-06T09:33:02Z</time>
      </trkpt>
      <trkpt lat="49.23939" lon="2.35289">
        <ele>131</ele>
        <time>2011-11-06T09:33:05Z</time>
      </trkpt>
      <trkpt lat="49.23928" lon="2.35293">
        <ele>131</ele>
        <time>2011-11-06T09:33:08Z</time>
      </trkpt>
      <trkpt lat="49.23925" lon="2.35307">
        <ele>131</ele>
        <time>2011-11-06T09:33:12Z</time>
      </trkpt>
      <trkpt lat="49.23928" lon="2.35321">
        <ele>131</ele>
        <time>2011-11-06T09:33:17Z</time>
      </trkpt>
      <trkpt lat="49.23915" lon="2.35329">
        <ele>131</ele>
        <time>2011-11-06T09:33:21Z</time>
      </trkpt>
      <trkpt lat="49.23905" lon="2.3534">
        <ele>131</ele>
        <time>2011-11-06T09:33:24Z</time>
      </trkpt>
      <trkpt lat="49.23897" lon="2.35348">
        <ele>131</ele>
        <time>2011-11-06T09:33:27Z</time>
      </trkpt>
      <trkpt lat="49.23888" lon="2.35356">
        <ele>131</ele>
        <time>2011-11-06T09:33:32Z</time>
      </trkpt>
      <trkpt lat="49.23882" lon="2.35366">
        <ele>141</ele>
        <time>2011-11-06T09:34:01Z</time>
      </trkpt>
      <trkpt lat="49.23874" lon="2.35375">
        <ele>141</ele>
        <time>2011-11-06T09:34:21Z</time>
      </trkpt>
      <trkpt lat="49.23868" lon="2.35386">
        <ele>147</ele>
        <time>2011-11-06T09:34:50Z</time>
      </trkpt>
      <trkpt lat="49.23858" lon="2.35384">
        <ele>136</ele>
        <time>2011-11-06T09:35:38Z</time>
      </trkpt>
      <trkpt lat="49.23849" lon="2.35381">
        <ele>136</ele>
        <time>2011-11-06T09:35:54Z</time>
      </trkpt>
      <trkpt lat="49.23839" lon="2.3538">
        <ele>136</ele>
        <time>2011-11-06T09:36:02Z</time>
      </trkpt>
      <trkpt lat="49.23831" lon="2.35376">
        <ele>136</ele>
        <time>2011-11-06T09:37:17Z</time>
      </trkpt>
      <trkpt lat="49.23821" lon="2.35378">
        <ele>136</ele>
        <time>2011-11-06T09:37:31Z</time>
      </trkpt>
      <trkpt lat="49.23818" lon="2.35365">
        <ele>136</ele>
        <time>2011-11-06T09:37:41Z</time>
      </trkpt>
      <trkpt lat="49.23812" lon="2.35353">
        <ele>136</ele>
        <time>2011-11-06T09:37:51Z</time>
      </trkpt>
      <trkpt lat="49.23804" lon="2.35347">
        <ele>136</ele>
        <time>2011-11-06T09:38:49Z</time>
      </trkpt>
      <trkpt lat="49.23795" lon="2.35348">
        <ele>143</ele>
        <time>2011-11-06T09:39:11Z</time>
      </trkpt>
      <trkpt lat="49.23786" lon="2.35351">
        <ele>143</ele>
        <time>2011-11-06T09:39:49Z</time>
      </trkpt>
      <trkpt lat="49.23776" lon="2.35353">
        <ele>143</ele>
        <time>2011-11-06T09:40:00Z</time>
      </trkpt>
      <trkpt lat="49.23765" lon="2.35357">
        <ele>138</ele>
        <time>2011-11-06T09:40:05Z</time>
      </trkpt>
      <trkpt lat="49.23757" lon="2.35363">
        <ele>138</ele>
        <time>2011-11-06T09:40:11Z</time>
      </trkpt>
      <trkpt lat="49.23747" lon="2.35366">
        <ele>138</ele>
        <time>2011-11-06T09:40:17Z</time>
      </trkpt>
      <trkpt lat="49.23738" lon="2.35368">
        <ele>138</ele>
        <time>2011-11-06T09:40:24Z</time>
      </trkpt>
      <trkpt lat="49.23727" lon="2.35371">
        <ele>138</ele>
        <time>2011-11-06T09:40:29Z</time>
      </trkpt>
      <trkpt lat="49.23717" lon="2.35375">
        <ele>138</ele>
        <time>2011-11-06T09:40:34Z</time>
      </trkpt>
      <trkpt lat="49.23708" lon="2.35376">
        <ele>138</ele>
        <time>2011-11-06T09:40:40Z</time>
      </trkpt>
      <trkpt lat="49.23697" lon="2.35378">
        <ele>138</ele>
        <time>2011-11-06T09:40:44Z</time>
      </trkpt>
      <trkpt lat="49.23687" lon="2.35381">
        <ele>138</ele>
        <time>2011-11-06T09:40:49Z</time>
      </trkpt>
      <trkpt lat="49.23678" lon="2.35375">
        <ele>138</ele>
        <time>2011-11-06T09:41:32Z</time>
      </trkpt>
      <trkpt lat="49.23672" lon="2.35363">
        <ele>138</ele>
        <time>2011-11-06T09:41:40Z</time>
      </trkpt>
      <trkpt lat="49.23662" lon="2.35356">
        <ele>138</ele>
        <time>2011-11-06T09:41:44Z</time>
      </trkpt>
      <trkpt lat="49.2365" lon="2.35359">
        <ele>138</ele>
        <time>2011-11-06T09:41:48Z</time>
      </trkpt>
      <trkpt lat="49.23641" lon="2.35365">
        <ele>138</ele>
        <time>2011-11-06T09:41:51Z</time>
      </trkpt>
      <trkpt lat="49.23634" lon="2.35375">
        <ele>132</ele>
        <time>2011-11-06T09:41:54Z</time>
      </trkpt>
      <trkpt lat="49.23625" lon="2.35384">
        <ele>132</ele>
        <time>2011-11-06T09:42:01Z</time>
      </trkpt>
      <trkpt lat="49.23625" lon="2.35398">
        <ele>132</ele>
        <time>2011-11-06T09:53:50Z</time>
      </trkpt>
      <trkpt lat="49.23614" lon="2.35401">
        <ele>132</ele>
        <time>2011-11-06T09:53:55Z</time>
      </trkpt>
      <trkpt lat="49.23604" lon="2.35404">
        <ele>132</ele>
        <time>2011-11-06T09:54:00Z</time>
      </trkpt>
      <trkpt lat="49.23594" lon="2.35404">
        <ele>132</ele>
        <time>2011-11-06T09:54:05Z</time>
      </trkpt>
      <trkpt lat="49.23585" lon="2.3541">
        <ele>132</ele>
        <time>2011-11-06T09:54:17Z</time>
      </trkpt>
      <trkpt lat="49.23579" lon="2.3542">
        <ele>132</ele>
        <time>2011-11-06T09:54:26Z</time>
      </trkpt>
      <trkpt lat="49.23569" lon="2.35422">
        <ele>132</ele>
        <time>2011-11-06T09:54:33Z</time>
      </trkpt>
      <trkpt lat="49.2356" lon="2.35425">
        <ele>132</ele>
        <time>2011-11-06T09:54:47Z</time>
      </trkpt>
      <trkpt lat="49.23552" lon="2.35419">
        <ele>132</ele>
        <time>2011-11-06T09:55:05Z</time>
      </trkpt>
      <trkpt lat="49.23543" lon="2.35415">
        <ele>132</ele>
        <time>2011-11-06T09:55:49Z</time>
      </trkpt>
      <trkpt lat="49.23533" lon="2.35422">
        <ele>132</ele>
        <time>2011-11-06T09:56:05Z</time>
      </trkpt>
      <trkpt lat="49.23523" lon="2.35424">
        <ele>126</ele>
        <time>2011-11-06T09:56:12Z</time>
      </trkpt>
      <trkpt lat="49.23512" lon="2.35428">
        <ele>126</ele>
        <time>2011-11-06T09:56:17Z</time>
      </trkpt>
      <trkpt lat="49.23502" lon="2.35432">
        <ele>126</ele>
        <time>2011-11-06T09:56:21Z</time>
      </trkpt>
      <trkpt lat="49.23493" lon="2.35434">
        <ele>126</ele>
        <time>2011-11-06T09:56:25Z</time>
      </trkpt>
      <trkpt lat="49.23482" lon="2.35435">
        <ele>126</ele>
        <time>2011-11-06T09:56:29Z</time>
      </trkpt>
      <trkpt lat="49.2347" lon="2.35439">
        <ele>126</ele>
        <time>2011-11-06T09:56:33Z</time>
      </trkpt>
      <trkpt lat="49.23461" lon="2.35442">
        <ele>126</ele>
        <time>2011-11-06T09:56:37Z</time>
      </trkpt>
      <trkpt lat="49.2345" lon="2.35444">
        <ele>126</ele>
        <time>2011-11-06T09:56:41Z</time>
      </trkpt>
      <trkpt lat="49.23439" lon="2.35447">
        <ele>126</ele>
        <time>2011-11-06T09:56:44Z</time>
      </trkpt>
      <trkpt lat="49.23429" lon="2.35449">
        <ele>126</ele>
        <time>2011-11-06T09:56:47Z</time>
      </trkpt>
      <trkpt lat="49.23419" lon="2.35451">
        <ele>126</ele>
        <time>2011-11-06T09:56:50Z</time>
      </trkpt>
      <trkpt lat="49.23407" lon="2.35456">
        <ele>126</ele>
        <time>2011-11-06T09:56:53Z</time>
      </trkpt>
      <trkpt lat="49.23396" lon="2.35461">
        <ele>126</ele>
        <time>2011-11-06T09:56:56Z</time>
      </trkpt>
      <trkpt lat="49.23387" lon="2.35465">
        <ele>126</ele>
        <time>2011-11-06T09:56:59Z</time>
      </trkpt>
      <trkpt lat="49.23378" lon="2.35471">
        <ele>126</ele>
        <time>2011-11-06T09:57:02Z</time>
      </trkpt>
      <trkpt lat="49.23365" lon="2.35476">
        <ele>126</ele>
        <time>2011-11-06T09:57:06Z</time>
      </trkpt>
      <trkpt lat="49.23355" lon="2.35482">
        <ele>126</ele>
        <time>2011-11-06T09:57:08Z</time>
      </trkpt>
      <trkpt lat="49.23346" lon="2.35486">
        <ele>132</ele>
        <time>2011-11-06T09:57:11Z</time>
      </trkpt>
      <trkpt lat="49.23334" lon="2.35489">
        <ele>132</ele>
        <time>2011-11-06T09:57:14Z</time>
      </trkpt>
      <trkpt lat="49.23322" lon="2.35492">
        <ele>132</ele>
        <time>2011-11-06T09:57:17Z</time>
      </trkpt>
      <trkpt lat="49.23313" lon="2.35496">
        <ele>132</ele>
        <time>2011-11-06T09:57:20Z</time>
      </trkpt>
      <trkpt lat="49.23302" lon="2.35501">
        <ele>132</ele>
        <time>2011-11-06T09:57:24Z</time>
      </trkpt>
      <trkpt lat="49.23291" lon="2.35508">
        <ele>137</ele>
        <time>2011-11-06T09:57:28Z</time>
      </trkpt>
      <trkpt lat="49.23279" lon="2.35514">
        <ele>137</ele>
        <time>2011-11-06T09:57:31Z</time>
      </trkpt>
      <trkpt lat="49.23269" lon="2.35519">
        <ele>137</ele>
        <time>2011-11-06T09:57:33Z</time>
      </trkpt>
      <trkpt lat="49.23259" lon="2.35523">
        <ele>137</ele>
        <time>2011-11-06T09:57:35Z</time>
      </trkpt>
      <trkpt lat="49.23249" lon="2.35528">
        <ele>137</ele>
        <time>2011-11-06T09:57:37Z</time>
      </trkpt>
      <trkpt lat="49.23236" lon="2.35533">
        <ele>137</ele>
        <time>2011-11-06T09:57:40Z</time>
      </trkpt>
      <trkpt lat="49.23225" lon="2.35537">
        <ele>132</ele>
        <time>2011-11-06T09:57:42Z</time>
      </trkpt>
      <trkpt lat="49.23211" lon="2.35538">
        <ele>132</ele>
        <time>2011-11-06T09:57:44Z</time>
      </trkpt>
      <trkpt lat="49.23197" lon="2.3554">
        <ele>132</ele>
        <time>2011-11-06T09:57:46Z</time>
      </trkpt>
      <trkpt lat="49.23184" lon="2.35543">
        <ele>132</ele>
        <time>2011-11-06T09:57:48Z</time>
      </trkpt>
      <trkpt lat="49.23171" lon="2.35546">
        <ele>132</ele>
        <time>2011-11-06T09:57:50Z</time>
      </trkpt>
      <trkpt lat="49.23158" lon="2.35551">
        <ele>132</ele>
        <time>2011-11-06T09:57:52Z</time>
      </trkpt>
      <trkpt lat="49.23142" lon="2.35554">
        <ele>132</ele>
        <time>2011-11-06T09:57:54Z</time>
      </trkpt>
      <trkpt lat="49.23127" lon="2.35559">
        <ele>132</ele>
        <time>2011-11-06T09:57:56Z</time>
      </trkpt>
      <trkpt lat="49.23112" lon="2.35561">
        <ele>127</ele>
        <time>2011-11-06T09:57:58Z</time>
      </trkpt>
      <trkpt lat="49.23099" lon="2.35563">
        <ele>127</ele>
        <time>2011-11-06T09:58:00Z</time>
      </trkpt>
      <trkpt lat="49.23087" lon="2.35565">
        <ele>127</ele>
        <time>2011-11-06T09:58:02Z</time>
      </trkpt>
      <trkpt lat="49.23075" lon="2.35567">
        <ele>127</ele>
        <time>2011-11-06T09:58:04Z</time>
      </trkpt>
      <trkpt lat="49.23063" lon="2.35569">
        <ele>127</ele>
        <time>2011-11-06T09:58:06Z</time>
      </trkpt>
      <trkpt lat="49.23049" lon="2.35572">
        <ele>121</ele>
        <time>2011-11-06T09:58:08Z</time>
      </trkpt>
      <trkpt lat="49.23033" lon="2.35573">
        <ele>121</ele>
        <time>2011-11-06T09:58:10Z</time>
      </trkpt>
      <trkpt lat="49.23015" lon="2.35576">
        <ele>121</ele>
        <time>2011-11-06T09:58:12Z</time>
      </trkpt>
      <trkpt lat="49.23005" lon="2.3558">
        <ele>116</ele>
        <time>2011-11-06T09:58:13Z</time>
      </trkpt>
      <trkpt lat="49.22989" lon="2.35581">
        <ele>116</ele>
        <time>2011-11-06T09:58:15Z</time>
      </trkpt>
      <trkpt lat="49.22973" lon="2.35582">
        <ele>116</ele>
        <time>2011-11-06T09:58:17Z</time>
      </trkpt>
      <trkpt lat="49.22955" lon="2.35584">
        <ele>116</ele>
        <time>2011-11-06T09:58:19Z</time>
      </trkpt>
      <trkpt lat="49.22945" lon="2.35584">
        <ele>116</ele>
        <time>2011-11-06T09:58:20Z</time>
      </trkpt>
      <trkpt lat="49.22927" lon="2.35583">
        <ele>116</ele>
        <time>2011-11-06T09:58:22Z</time>
      </trkpt>
      <trkpt lat="49.22909" lon="2.35581">
        <ele>116</ele>
        <time>2011-11-06T09:58:24Z</time>
      </trkpt>
      <trkpt lat="49.22894" lon="2.35578">
        <ele>109</ele>
        <time>2011-11-06T09:58:26Z</time>
      </trkpt>
      <trkpt lat="49.22889" lon="2.35566">
        <ele>116</ele>
        <time>2011-11-06T09:58:46Z</time>
      </trkpt>
      <trkpt lat="49.22878" lon="2.35572">
        <ele>110</ele>
        <time>2011-11-06T09:59:18Z</time>
      </trkpt>
      <trkpt lat="49.22868" lon="2.35575">
        <ele>110</ele>
        <time>2011-11-06T09:59:20Z</time>
      </trkpt>
      <trkpt lat="49.22856" lon="2.35581">
        <ele>110</ele>
        <time>2011-11-06T09:59:22Z</time>
      </trkpt>
      <trkpt lat="49.22845" lon="2.3559">
        <ele>110</ele>
        <time>2011-11-06T09:59:24Z</time>
      </trkpt>
      <trkpt lat="49.22835" lon="2.35603">
        <ele>110</ele>
        <time>2011-11-06T09:59:26Z</time>
      </trkpt>
      <trkpt lat="49.22823" lon="2.35616">
        <ele>110</ele>
        <time>2011-11-06T09:59:28Z</time>
      </trkpt>
      <trkpt lat="49.22811" lon="2.35634">
        <ele>110</ele>
        <time>2011-11-06T09:59:30Z</time>
      </trkpt>
      <trkpt lat="49.22804" lon="2.35644">
        <ele>110</ele>
        <time>2011-11-06T09:59:31Z</time>
      </trkpt>
      <trkpt lat="49.22797" lon="2.35655">
        <ele>110</ele>
        <time>2011-11-06T09:59:32Z</time>
      </trkpt>
      <trkpt lat="49.22786" lon="2.35677">
        <ele>103</ele>
        <time>2011-11-06T09:59:34Z</time>
      </trkpt>
      <trkpt lat="49.2278" lon="2.35687">
        <ele>103</ele>
        <time>2011-11-06T09:59:35Z</time>
      </trkpt>
      <trkpt lat="49.22769" lon="2.35708">
        <ele>103</ele>
        <time>2011-11-06T09:59:37Z</time>
      </trkpt>
      <trkpt lat="49.22762" lon="2.35724">
        <ele>103</ele>
        <time>2011-11-06T09:59:39Z</time>
      </trkpt>
      <trkpt lat="49.22756" lon="2.35739">
        <ele>103</ele>
        <time>2011-11-06T09:59:41Z</time>
      </trkpt>
      <trkpt lat="49.2275" lon="2.35751">
        <ele>103</ele>
        <time>2011-11-06T09:59:43Z</time>
      </trkpt>
      <trkpt lat="49.22742" lon="2.35767">
        <ele>103</ele>
        <time>2011-11-06T09:59:45Z</time>
      </trkpt>
      <trkpt lat="49.22734" lon="2.35784">
        <ele>103</ele>
        <time>2011-11-06T09:59:47Z</time>
      </trkpt>
      <trkpt lat="49.22729" lon="2.35801">
        <ele>103</ele>
        <time>2011-11-06T09:59:49Z</time>
      </trkpt>
      <trkpt lat="49.22727" lon="2.35816">
        <ele>103</ele>
        <time>2011-11-06T09:59:53Z</time>
      </trkpt>
      <trkpt lat="49.22725" lon="2.35831">
        <ele>103</ele>
        <time>2011-11-06T09:59:58Z</time>
      </trkpt>
      <trkpt lat="49.22721" lon="2.35848">
        <ele>103</ele>
        <time>2011-11-06T10:00:01Z</time>
      </trkpt>
      <trkpt lat="49.22716" lon="2.35862">
        <ele>103</ele>
        <time>2011-11-06T10:00:04Z</time>
      </trkpt>
      <trkpt lat="49.22713" lon="2.35876">
        <ele>103</ele>
        <time>2011-11-06T10:00:12Z</time>
      </trkpt>
      <trkpt lat="49.22706" lon="2.35893">
        <ele>103</ele>
        <time>2011-11-06T10:00:16Z</time>
      </trkpt>
      <trkpt lat="49.22701" lon="2.35906">
        <ele>103</ele>
        <time>2011-11-06T10:00:18Z</time>
      </trkpt>
      <trkpt lat="49.22695" lon="2.3592">
        <ele>103</ele>
        <time>2011-11-06T10:00:20Z</time>
      </trkpt>
      <trkpt lat="49.22689" lon="2.35934">
        <ele>103</ele>
        <time>2011-11-06T10:00:22Z</time>
      </trkpt>
      <trkpt lat="49.22683" lon="2.35947">
        <ele>103</ele>
        <time>2011-11-06T10:00:24Z</time>
      </trkpt>
      <trkpt lat="49.22678" lon="2.35961">
        <ele>103</ele>
        <time>2011-11-06T10:00:26Z</time>
      </trkpt>
      <trkpt lat="49.22671" lon="2.35976">
        <ele>103</ele>
        <time>2011-11-06T10:00:28Z</time>
      </trkpt>
      <trkpt lat="49.22663" lon="2.35995">
        <ele>103</ele>
        <time>2011-11-06T10:00:30Z</time>
      </trkpt>
      <trkpt lat="49.22654" lon="2.36014">
        <ele>103</ele>
        <time>2011-11-06T10:00:32Z</time>
      </trkpt>
      <trkpt lat="49.22645" lon="2.36034">
        <ele>103</ele>
        <time>2011-11-06T10:00:34Z</time>
      </trkpt>
      <trkpt lat="49.22634" lon="2.36055">
        <ele>103</ele>
        <time>2011-11-06T10:00:36Z</time>
      </trkpt>
      <trkpt lat="49.22623" lon="2.36076">
        <ele>103</ele>
        <time>2011-11-06T10:00:38Z</time>
      </trkpt>
      <trkpt lat="49.22613" lon="2.36096">
        <ele>103</ele>
        <time>2011-11-06T10:00:40Z</time>
      </trkpt>
      <trkpt lat="49.22607" lon="2.36107">
        <ele>103</ele>
        <time>2011-11-06T10:00:41Z</time>
      </trkpt>
      <trkpt lat="49.22595" lon="2.36127">
        <ele>103</ele>
        <time>2011-11-06T10:00:43Z</time>
      </trkpt>
      <trkpt lat="49.22582" lon="2.36145">
        <ele>103</ele>
        <time>2011-11-06T10:00:45Z</time>
      </trkpt>
      <trkpt lat="49.22574" lon="2.36153">
        <ele>103</ele>
        <time>2011-11-06T10:00:46Z</time>
      </trkpt>
      <trkpt lat="49.22566" lon="2.3616">
        <ele>103</ele>
        <time>2011-11-06T10:00:47Z</time>
      </trkpt>
      <trkpt lat="49.22549" lon="2.36171">
        <ele>103</ele>
        <time>2011-11-06T10:00:49Z</time>
      </trkpt>
      <trkpt lat="49.22534" lon="2.36179">
        <ele>103</ele>
        <time>2011-11-06T10:00:51Z</time>
      </trkpt>
      <trkpt lat="49.22522" lon="2.36185">
        <ele>103</ele>
        <time>2011-11-06T10:00:53Z</time>
      </trkpt>
      <trkpt lat="49.22513" lon="2.36195">
        <ele>103</ele>
        <time>2011-11-06T10:00:55Z</time>
      </trkpt>
      <trkpt lat="49.22503" lon="2.36204">
        <ele>103</ele>
        <time>2011-11-06T10:00:57Z</time>
      </trkpt>
      <trkpt lat="49.22491" lon="2.36215">
        <ele>103</ele>
        <time>2011-11-06T10:00:59Z</time>
      </trkpt>
      <trkpt lat="49.22477" lon="2.36229">
        <ele>103</ele>
        <time>2011-11-06T10:01:01Z</time>
      </trkpt>
      <trkpt lat="49.22462" lon="2.36243">
        <ele>103</ele>
        <time>2011-11-06T10:01:03Z</time>
      </trkpt>
      <trkpt lat="49.22447" lon="2.36254">
        <ele>103</ele>
        <time>2011-11-06T10:01:05Z</time>
      </trkpt>
      <trkpt lat="49.22432" lon="2.36263">
        <ele>103</ele>
        <time>2011-11-06T10:01:07Z</time>
      </trkpt>
      <trkpt lat="49.22419" lon="2.3627">
        <ele>103</ele>
        <time>2011-11-06T10:01:09Z</time>
      </trkpt>
      <trkpt lat="49.22405" lon="2.36279">
        <ele>103</ele>
        <time>2011-11-06T10:01:11Z</time>
      </trkpt>
      <trkpt lat="49.22396" lon="2.36286">
        <ele>103</ele>
        <time>2011-11-06T10:01:12Z</time>
      </trkpt>
      <trkpt lat="49.2238" lon="2.363">
        <ele>103</ele>
        <time>2011-11-06T10:01:14Z</time>
      </trkpt>
      <trkpt lat="49.22366" lon="2.36315">
        <ele>103</ele>
        <time>2011-11-06T10:01:16Z</time>
      </trkpt>
      <trkpt lat="49.22352" lon="2.36331">
        <ele>103</ele>
        <time>2011-11-06T10:01:18Z</time>
      </trkpt>
      <trkpt lat="49.22339" lon="2.36344">
        <ele>103</ele>
        <time>2011-11-06T10:01:20Z</time>
      </trkpt>
      <trkpt lat="49.22325" lon="2.36357">
        <ele>103</ele>
        <time>2011-11-06T10:01:22Z</time>
      </trkpt>
      <trkpt lat="49.22316" lon="2.36366">
        <ele>103</ele>
        <time>2011-11-06T10:01:24Z</time>
      </trkpt>
      <trkpt lat="49.22304" lon="2.36376">
        <ele>103</ele>
        <time>2011-11-06T10:01:27Z</time>
      </trkpt>
      <trkpt lat="49.22294" lon="2.36388">
        <ele>103</ele>
        <time>2011-11-06T10:01:29Z</time>
      </trkpt>
      <trkpt lat="49.22283" lon="2.36397">
        <ele>103</ele>
        <time>2011-11-06T10:01:31Z</time>
      </trkpt>
      <trkpt lat="49.22272" lon="2.36408">
        <ele>103</ele>
        <time>2011-11-06T10:01:33Z</time>
      </trkpt>
      <trkpt lat="49.22258" lon="2.36421">
        <ele>109</ele>
        <time>2011-11-06T10:01:35Z</time>
      </trkpt>
      <trkpt lat="49.22243" lon="2.36434">
        <ele>109</ele>
        <time>2011-11-06T10:01:37Z</time>
      </trkpt>
      <trkpt lat="49.22234" lon="2.36439">
        <ele>109</ele>
        <time>2011-11-06T10:01:38Z</time>
      </trkpt>
      <trkpt lat="49.22218" lon="2.36451">
        <ele>109</ele>
        <time>2011-11-06T10:01:40Z</time>
      </trkpt>
      <trkpt lat="49.22209" lon="2.36456">
        <ele>109</ele>
        <time>2011-11-06T10:01:41Z</time>
      </trkpt>
      <trkpt lat="49.22199" lon="2.36462">
        <ele>109</ele>
        <time>2011-11-06T10:01:42Z</time>
      </trkpt>
      <trkpt lat="49.22182" lon="2.36472">
        <ele>109</ele>
        <time>2011-11-06T10:01:44Z</time>
      </trkpt>
      <trkpt lat="49.22166" lon="2.3648">
        <ele>109</ele>
        <time>2011-11-06T10:01:46Z</time>
      </trkpt>
      <trkpt lat="49.22152" lon="2.36487">
        <ele>109</ele>
        <time>2011-11-06T10:01:48Z</time>
      </trkpt>
      <trkpt lat="49.22137" lon="2.36494">
        <ele>109</ele>
        <time>2011-11-06T10:01:50Z</time>
      </trkpt>
      <trkpt lat="49.22126" lon="2.365">
        <ele>104</ele>
        <time>2011-11-06T10:01:52Z</time>
      </trkpt>
      <trkpt lat="49.22115" lon="2.36507">
        <ele>104</ele>
        <time>2011-11-06T10:01:54Z</time>
      </trkpt>
      <trkpt lat="49.22103" lon="2.36517">
        <ele>104</ele>
        <time>2011-11-06T10:01:56Z</time>
      </trkpt>
      <trkpt lat="49.2209" lon="2.36527">
        <ele>104</ele>
        <time>2011-11-06T10:01:58Z</time>
      </trkpt>
      <trkpt lat="49.22082" lon="2.36534">
        <ele>104</ele>
        <time>2011-11-06T10:01:59Z</time>
      </trkpt>
      <trkpt lat="49.22066" lon="2.36545">
        <ele>104</ele>
        <time>2011-11-06T10:02:01Z</time>
      </trkpt>
      <trkpt lat="49.22055" lon="2.36556">
        <ele>104</ele>
        <time>2011-11-06T10:02:03Z</time>
      </trkpt>
      <trkpt lat="49.22045" lon="2.36561">
        <ele>104</ele>
        <time>2011-11-06T10:02:05Z</time>
      </trkpt>
      <trkpt lat="49.22035" lon="2.36566">
        <ele>97</ele>
        <time>2011-11-06T10:02:07Z</time>
      </trkpt>
      <trkpt lat="49.22022" lon="2.36569">
        <ele>97</ele>
        <time>2011-11-06T10:02:10Z</time>
      </trkpt>
      <trkpt lat="49.22012" lon="2.36574">
        <ele>97</ele>
        <time>2011-11-06T10:02:13Z</time>
      </trkpt>
      <trkpt lat="49.22004" lon="2.36587">
        <ele>90</ele>
        <time>2011-11-06T10:02:16Z</time>
      </trkpt>
      <trkpt lat="49.21996" lon="2.36598">
        <ele>90</ele>
        <time>2011-11-06T10:02:19Z</time>
      </trkpt>
      <trkpt lat="49.21987" lon="2.36609">
        <ele>90</ele>
        <time>2011-11-06T10:02:22Z</time>
      </trkpt>
      <trkpt lat="49.2198" lon="2.36621">
        <ele>90</ele>
        <time>2011-11-06T10:02:25Z</time>
      </trkpt>
      <trkpt lat="49.21975" lon="2.36633">
        <ele>84</ele>
        <time>2011-11-06T10:02:27Z</time>
      </trkpt>
      <trkpt lat="49.21969" lon="2.3665">
        <ele>84</ele>
        <time>2011-11-06T10:02:30Z</time>
      </trkpt>
      <trkpt lat="49.21964" lon="2.36663">
        <ele>84</ele>
        <time>2011-11-06T10:02:32Z</time>
      </trkpt>
      <trkpt lat="49.21958" lon="2.36678">
        <ele>84</ele>
        <time>2011-11-06T10:02:34Z</time>
      </trkpt>
      <trkpt lat="49.21953" lon="2.36692">
        <ele>84</ele>
        <time>2011-11-06T10:02:36Z</time>
      </trkpt>
      <trkpt lat="49.21946" lon="2.36705">
        <ele>84</ele>
        <time>2011-11-06T10:02:38Z</time>
      </trkpt>
      <trkpt lat="49.21938" lon="2.36718">
        <ele>84</ele>
        <time>2011-11-06T10:02:40Z</time>
      </trkpt>
      <trkpt lat="49.21932" lon="2.36733">
        <ele>84</ele>
        <time>2011-11-06T10:02:43Z</time>
      </trkpt>
      <trkpt lat="49.21923" lon="2.36739">
        <ele>84</ele>
        <time>2011-11-06T10:02:45Z</time>
      </trkpt>
      <trkpt lat="49.21912" lon="2.36747">
        <ele>84</ele>
        <time>2011-11-06T10:02:47Z</time>
      </trkpt>
      <trkpt lat="49.21897" lon="2.36757">
        <ele>84</ele>
        <time>2011-11-06T10:02:49Z</time>
      </trkpt>
      <trkpt lat="49.21886" lon="2.36772">
        <ele>84</ele>
        <time>2011-11-06T10:02:51Z</time>
      </trkpt>
      <trkpt lat="49.21874" lon="2.36783">
        <ele>84</ele>
        <time>2011-11-06T10:02:53Z</time>
      </trkpt>
      <trkpt lat="49.21864" lon="2.36794">
        <ele>84</ele>
        <time>2011-11-06T10:02:55Z</time>
      </trkpt>
      <trkpt lat="49.2185" lon="2.36804">
        <ele>78</ele>
        <time>2011-11-06T10:02:57Z</time>
      </trkpt>
      <trkpt lat="49.21837" lon="2.36812">
        <ele>78</ele>
        <time>2011-11-06T10:02:59Z</time>
      </trkpt>
      <trkpt lat="49.21826" lon="2.3682">
        <ele>78</ele>
        <time>2011-11-06T10:03:01Z</time>
      </trkpt>
      <trkpt lat="49.21817" lon="2.36827">
        <ele>78</ele>
        <time>2011-11-06T10:03:03Z</time>
      </trkpt>
      <trkpt lat="49.21807" lon="2.36829">
        <ele>78</ele>
        <time>2011-11-06T10:03:05Z</time>
      </trkpt>
      <trkpt lat="49.21795" lon="2.36831">
        <ele>72</ele>
        <time>2011-11-06T10:03:08Z</time>
      </trkpt>
      <trkpt lat="49.21784" lon="2.36837">
        <ele>72</ele>
        <time>2011-11-06T10:03:11Z</time>
      </trkpt>
      <trkpt lat="49.21774" lon="2.36837">
        <ele>72</ele>
        <time>2011-11-06T10:03:52Z</time>
      </trkpt>
      <trkpt lat="49.21766" lon="2.36832">
        <ele>72</ele>
        <time>2011-11-06T10:03:55Z</time>
      </trkpt>
      <trkpt lat="49.21757" lon="2.36828">
        <ele>66</ele>
        <time>2011-11-06T10:03:57Z</time>
      </trkpt>
      <trkpt lat="49.21744" lon="2.36825">
        <ele>66</ele>
        <time>2011-11-06T10:03:59Z</time>
      </trkpt>
      <trkpt lat="49.21729" lon="2.36821">
        <ele>66</ele>
        <time>2011-11-06T10:04:01Z</time>
      </trkpt>
      <trkpt lat="49.21713" lon="2.36817">
        <ele>66</ele>
        <time>2011-11-06T10:04:03Z</time>
      </trkpt>
      <trkpt lat="49.21697" lon="2.36809">
        <ele>66</ele>
        <time>2011-11-06T10:04:05Z</time>
      </trkpt>
      <trkpt lat="49.21682" lon="2.36802">
        <ele>61</ele>
        <time>2011-11-06T10:04:07Z</time>
      </trkpt>
      <trkpt lat="49.2167" lon="2.36795">
        <ele>61</ele>
        <time>2011-11-06T10:04:09Z</time>
      </trkpt>
      <trkpt lat="49.21657" lon="2.36787">
        <ele>61</ele>
        <time>2011-11-06T10:04:11Z</time>
      </trkpt>
      <trkpt lat="49.21644" lon="2.36779">
        <ele>61</ele>
        <time>2011-11-06T10:04:13Z</time>
      </trkpt>
      <trkpt lat="49.21631" lon="2.36772">
        <ele>56</ele>
        <time>2011-11-06T10:04:15Z</time>
      </trkpt>
      <trkpt lat="49.2162" lon="2.36766">
        <ele>56</ele>
        <time>2011-11-06T10:04:17Z</time>
      </trkpt>
      <trkpt lat="49.21607" lon="2.36758">
        <ele>56</ele>
        <time>2011-11-06T10:04:19Z</time>
      </trkpt>
      <trkpt lat="49.21593" lon="2.36751">
        <ele>56</ele>
        <time>2011-11-06T10:04:21Z</time>
      </trkpt>
      <trkpt lat="49.21578" lon="2.36743">
        <ele>50</ele>
        <time>2011-11-06T10:04:23Z</time>
      </trkpt>
      <trkpt lat="49.21564" lon="2.36736">
        <ele>50</ele>
        <time>2011-11-06T10:04:25Z</time>
      </trkpt>
      <trkpt lat="49.2155" lon="2.3673">
        <ele>50</ele>
        <time>2011-11-06T10:04:27Z</time>
      </trkpt>
      <trkpt lat="49.21538" lon="2.36727">
        <ele>50</ele>
        <time>2011-11-06T10:04:29Z</time>
      </trkpt>
      <trkpt lat="49.21527" lon="2.36724">
        <ele>50</ele>
        <time>2011-11-06T10:04:31Z</time>
      </trkpt>
      <trkpt lat="49.21518" lon="2.36721">
        <ele>45</ele>
        <time>2011-11-06T10:04:33Z</time>
      </trkpt>
      <trkpt lat="49.21508" lon="2.36717">
        <ele>45</ele>
        <time>2011-11-06T10:04:35Z</time>
      </trkpt>
      <trkpt lat="49.21497" lon="2.36712">
        <ele>45</ele>
        <time>2011-11-06T10:04:38Z</time>
      </trkpt>
      <trkpt lat="49.21486" lon="2.36709">
        <ele>45</ele>
        <time>2011-11-06T10:04:41Z</time>
      </trkpt>
      <trkpt lat="49.21475" lon="2.36704">
        <ele>39</ele>
        <time>2011-11-06T10:04:44Z</time>
      </trkpt>
      <trkpt lat="49.21465" lon="2.36701">
        <ele>39</ele>
        <time>2011-11-06T10:04:46Z</time>
      </trkpt>
      <trkpt lat="49.21454" lon="2.36702">
        <ele>39</ele>
        <time>2011-11-06T10:04:49Z</time>
      </trkpt>
      <trkpt lat="49.21444" lon="2.36699">
        <ele>39</ele>
        <time>2011-11-06T10:04:52Z</time>
      </trkpt>
      <trkpt lat="49.21443" lon="2.36684">
        <ele>33</ele>
        <time>2011-11-06T10:04:56Z</time>
      </trkpt>
      <trkpt lat="49.21449" lon="2.36673">
        <ele>33</ele>
        <time>2011-11-06T10:05:02Z</time>
      </trkpt>
      <trkpt lat="49.21458" lon="2.36664">
        <ele>33</ele>
        <time>2011-11-06T10:05:41Z</time>
      </trkpt>
      <trkpt lat="49.21464" lon="2.36653">
        <ele>33</ele>
        <time>2011-11-06T10:05:45Z</time>
      </trkpt>
      <trkpt lat="49.21461" lon="2.36636">
        <ele>33</ele>
        <time>2011-11-06T10:05:52Z</time>
      </trkpt>
      <trkpt lat="49.21457" lon="2.36623">
        <ele>33</ele>
        <time>2011-11-06T10:05:54Z</time>
      </trkpt>
      <trkpt lat="49.21451" lon="2.36605">
        <ele>33</ele>
        <time>2011-11-06T10:05:56Z</time>
      </trkpt>
      <trkpt lat="49.21445" lon="2.36586">
        <ele>33</ele>
        <time>2011-11-06T10:05:58Z</time>
      </trkpt>
      <trkpt lat="49.21438" lon="2.36565">
        <ele>33</ele>
        <time>2011-11-06T10:06:00Z</time>
      </trkpt>
      <trkpt lat="49.21431" lon="2.36542">
        <ele>33</ele>
        <time>2011-11-06T10:06:02Z</time>
      </trkpt>
      <trkpt lat="49.21424" lon="2.36518">
        <ele>33</ele>
        <time>2011-11-06T10:06:04Z</time>
      </trkpt>
      <trkpt lat="49.21417" lon="2.36494">
        <ele>33</ele>
        <time>2011-11-06T10:06:06Z</time>
      </trkpt>
      <trkpt lat="49.21413" lon="2.36469">
        <ele>39</ele>
        <time>2011-11-06T10:06:08Z</time>
      </trkpt>
      <trkpt lat="49.21408" lon="2.36444">
        <ele>39</ele>
        <time>2011-11-06T10:06:10Z</time>
      </trkpt>
      <trkpt lat="49.21405" lon="2.3643">
        <ele>39</ele>
        <time>2011-11-06T10:06:11Z</time>
      </trkpt>
      <trkpt lat="49.214" lon="2.36405">
        <ele>39</ele>
        <time>2011-11-06T10:06:13Z</time>
      </trkpt>
      <trkpt lat="49.21395" lon="2.36386">
        <ele>39</ele>
        <time>2011-11-06T10:06:15Z</time>
      </trkpt>
      <trkpt lat="49.21392" lon="2.36371">
        <ele>39</ele>
        <time>2011-11-06T10:06:17Z</time>
      </trkpt>
      <trkpt lat="49.21388" lon="2.36355">
        <ele>39</ele>
        <time>2011-11-06T10:06:19Z</time>
      </trkpt>
      <trkpt lat="49.21384" lon="2.36336">
        <ele>39</ele>
        <time>2011-11-06T10:06:21Z</time>
      </trkpt>
      <trkpt lat="49.21378" lon="2.36315">
        <ele>39</ele>
        <time>2011-11-06T10:06:23Z</time>
      </trkpt>
      <trkpt lat="49.21373" lon="2.36295">
        <ele>44</ele>
        <time>2011-11-06T10:06:25Z</time>
      </trkpt>
      <trkpt lat="49.21368" lon="2.36273">
        <ele>44</ele>
        <time>2011-11-06T10:06:27Z</time>
      </trkpt>
      <trkpt lat="49.21363" lon="2.36252">
        <ele>44</ele>
        <time>2011-11-06T10:06:29Z</time>
      </trkpt>
      <trkpt lat="49.21356" lon="2.36231">
        <ele>44</ele>
        <time>2011-11-06T10:06:31Z</time>
      </trkpt>
      <trkpt lat="49.21347" lon="2.3621">
        <ele>44</ele>
        <time>2011-11-06T10:06:33Z</time>
      </trkpt>
      <trkpt lat="49.21337" lon="2.36191">
        <ele>44</ele>
        <time>2011-11-06T10:06:35Z</time>
      </trkpt>
      <trkpt lat="49.21328" lon="2.36172">
        <ele>44</ele>
        <time>2011-11-06T10:06:37Z</time>
      </trkpt>
      <trkpt lat="49.21319" lon="2.36153">
        <ele>44</ele>
        <time>2011-11-06T10:06:39Z</time>
      </trkpt>
      <trkpt lat="49.2131" lon="2.36132">
        <ele>44</ele>
        <time>2011-11-06T10:06:41Z</time>
      </trkpt>
      <trkpt lat="49.21301" lon="2.36115">
        <ele>44</ele>
        <time>2011-11-06T10:06:43Z</time>
      </trkpt>
      <trkpt lat="49.21294" lon="2.36102">
        <ele>50</ele>
        <time>2011-11-06T10:06:45Z</time>
      </trkpt>
      <trkpt lat="49.21291" lon="2.36089">
        <ele>50</ele>
        <time>2011-11-06T10:06:47Z</time>
      </trkpt>
      <trkpt lat="49.21301" lon="2.36076">
        <ele>50</ele>
        <time>2011-11-06T10:06:50Z</time>
      </trkpt>
      <trkpt lat="49.21314" lon="2.36068">
        <ele>50</ele>
        <time>2011-11-06T10:06:52Z</time>
      </trkpt>
      <trkpt lat="49.21325" lon="2.3606">
        <ele>57</ele>
        <time>2011-11-06T10:06:54Z</time>
      </trkpt>
      <trkpt lat="49.21337" lon="2.36051">
        <ele>57</ele>
        <time>2011-11-06T10:06:56Z</time>
      </trkpt>
      <trkpt lat="49.21348" lon="2.36043">
        <ele>57</ele>
        <time>2011-11-06T10:06:58Z</time>
      </trkpt>
      <trkpt lat="49.21361" lon="2.36034">
        <ele>63</ele>
        <time>2011-11-06T10:07:00Z</time>
      </trkpt>
      <trkpt lat="49.21376" lon="2.36023">
        <ele>63</ele>
        <time>2011-11-06T10:07:02Z</time>
      </trkpt>
      <trkpt lat="49.21392" lon="2.36012">
        <ele>63</ele>
        <time>2011-11-06T10:07:04Z</time>
      </trkpt>
      <trkpt lat="49.21409" lon="2.36001">
        <ele>69</ele>
        <time>2011-11-06T10:07:06Z</time>
      </trkpt>
      <trkpt lat="49.21418" lon="2.35995">
        <ele>69</ele>
        <time>2011-11-06T10:07:07Z</time>
      </trkpt>
      <trkpt lat="49.21427" lon="2.35989">
        <ele>69</ele>
        <time>2011-11-06T10:07:08Z</time>
      </trkpt>
      <trkpt lat="49.21435" lon="2.35983">
        <ele>69</ele>
        <time>2011-11-06T10:07:09Z</time>
      </trkpt>
      <trkpt lat="49.21451" lon="2.35973">
        <ele>69</ele>
        <time>2011-11-06T10:07:11Z</time>
      </trkpt>
      <trkpt lat="49.21464" lon="2.35965">
        <ele>69</ele>
        <time>2011-11-06T10:07:13Z</time>
      </trkpt>
      <trkpt lat="49.21473" lon="2.35956">
        <ele>69</ele>
        <time>2011-11-06T10:07:15Z</time>
      </trkpt>
      <trkpt lat="49.21474" lon="2.35939">
        <ele>69</ele>
        <time>2011-11-06T10:07:18Z</time>
      </trkpt>
      <trkpt lat="49.2147" lon="2.35921">
        <ele>69</ele>
        <time>2011-11-06T10:07:20Z</time>
      </trkpt>
      <trkpt lat="49.21464" lon="2.35899">
        <ele>75</ele>
        <time>2011-11-06T10:07:22Z</time>
      </trkpt>
      <trkpt lat="49.21458" lon="2.35877">
        <ele>75</ele>
        <time>2011-11-06T10:07:24Z</time>
      </trkpt>
      <trkpt lat="49.21453" lon="2.35857">
        <ele>75</ele>
        <time>2011-11-06T10:07:26Z</time>
      </trkpt>
      <trkpt lat="49.21447" lon="2.3584">
        <ele>75</ele>
        <time>2011-11-06T10:07:28Z</time>
      </trkpt>
      <trkpt lat="49.21443" lon="2.35823">
        <ele>75</ele>
        <time>2011-11-06T10:07:30Z</time>
      </trkpt>
      <trkpt lat="49.2144" lon="2.35808">
        <ele>75</ele>
        <time>2011-11-06T10:07:32Z</time>
      </trkpt>
      <trkpt lat="49.21438" lon="2.35793">
        <ele>75</ele>
        <time>2011-11-06T10:07:35Z</time>
      </trkpt>
      <trkpt lat="49.21448" lon="2.35787">
        <ele>80</ele>
        <time>2011-11-06T10:07:38Z</time>
      </trkpt>
      <trkpt lat="49.21457" lon="2.35784">
        <ele>80</ele>
        <time>2011-11-06T10:07:40Z</time>
      </trkpt>
      <trkpt lat="49.21467" lon="2.35777">
        <ele>80</ele>
        <time>2011-11-06T10:07:42Z</time>
      </trkpt>
      <trkpt lat="49.21473" lon="2.35759">
        <ele>80</ele>
        <time>2011-11-06T10:07:45Z</time>
      </trkpt>
      <trkpt lat="49.21471" lon="2.35743">
        <ele>80</ele>
        <time>2011-11-06T10:07:47Z</time>
      </trkpt>
      <trkpt lat="49.21468" lon="2.35724">
        <ele>80</ele>
        <time>2011-11-06T10:07:49Z</time>
      </trkpt>
      <trkpt lat="49.21464" lon="2.35704">
        <ele>80</ele>
        <time>2011-11-06T10:07:51Z</time>
      </trkpt>
      <trkpt lat="49.21461" lon="2.35682">
        <ele>80</ele>
        <time>2011-11-06T10:07:53Z</time>
      </trkpt>
      <trkpt lat="49.21458" lon="2.35659">
        <ele>80</ele>
        <time>2011-11-06T10:07:55Z</time>
      </trkpt>
      <trkpt lat="49.21455" lon="2.35634">
        <ele>80</ele>
        <time>2011-11-06T10:07:57Z</time>
      </trkpt>
      <trkpt lat="49.21451" lon="2.3561">
        <ele>80</ele>
        <time>2011-11-06T10:07:59Z</time>
      </trkpt>
      <trkpt lat="49.21448" lon="2.35585">
        <ele>86</ele>
        <time>2011-11-06T10:08:01Z</time>
      </trkpt>
      <trkpt lat="49.21447" lon="2.35571">
        <ele>86</ele>
        <time>2011-11-06T10:08:02Z</time>
      </trkpt>
      <trkpt lat="49.21445" lon="2.35556">
        <ele>86</ele>
        <time>2011-11-06T10:08:03Z</time>
      </trkpt>
      <trkpt lat="49.21443" lon="2.35542">
        <ele>86</ele>
        <time>2011-11-06T10:08:04Z</time>
      </trkpt>
      <trkpt lat="49.21441" lon="2.35528">
        <ele>86</ele>
        <time>2011-11-06T10:08:05Z</time>
      </trkpt>
      <trkpt lat="49.21438" lon="2.35513">
        <ele>86</ele>
        <time>2011-11-06T10:08:06Z</time>
      </trkpt>
      <trkpt lat="49.21436" lon="2.35499">
        <ele>86</ele>
        <time>2011-11-06T10:08:07Z</time>
      </trkpt>
      <trkpt lat="49.21434" lon="2.35485">
        <ele>86</ele>
        <time>2011-11-06T10:08:08Z</time>
      </trkpt>
      <trkpt lat="49.21431" lon="2.35471">
        <ele>86</ele>
        <time>2011-11-06T10:08:09Z</time>
      </trkpt>
      <trkpt lat="49.21429" lon="2.35456">
        <ele>86</ele>
        <time>2011-11-06T10:08:10Z</time>
      </trkpt>
      <trkpt lat="49.21427" lon="2.35441">
        <ele>86</ele>
        <time>2011-11-06T10:08:11Z</time>
      </trkpt>
      <trkpt lat="49.21424" lon="2.35427">
        <ele>86</ele>
        <time>2011-11-06T10:08:12Z</time>
      </trkpt>
      <trkpt lat="49.21422" lon="2.35413">
        <ele>86</ele>
        <time>2011-11-06T10:08:13Z</time>
      </trkpt>
      <trkpt lat="49.21417" lon="2.35388">
        <ele>86</ele>
        <time>2011-11-06T10:08:15Z</time>
      </trkpt>
      <trkpt lat="49.21414" lon="2.35365">
        <ele>86</ele>
        <time>2011-11-06T10:08:17Z</time>
      </trkpt>
      <trkpt lat="49.2141" lon="2.35345">
        <ele>86</ele>
        <time>2011-11-06T10:08:19Z</time>
      </trkpt>
      <trkpt lat="49.21407" lon="2.35328">
        <ele>91</ele>
        <time>2011-11-06T10:08:21Z</time>
      </trkpt>
      <trkpt lat="49.21403" lon="2.35314">
        <ele>91</ele>
        <time>2011-11-06T10:08:23Z</time>
      </trkpt>
      <trkpt lat="49.214" lon="2.35296">
        <ele>91</ele>
        <time>2011-11-06T10:08:27Z</time>
      </trkpt>
      <trkpt lat="49.21394" lon="2.35276">
        <ele>91</ele>
        <time>2011-11-06T10:08:30Z</time>
      </trkpt>
      <trkpt lat="49.2139" lon="2.35258">
        <ele>91</ele>
        <time>2011-11-06T10:08:32Z</time>
      </trkpt>
      <trkpt lat="49.21384" lon="2.35236">
        <ele>91</ele>
        <time>2011-11-06T10:08:34Z</time>
      </trkpt>
      <trkpt lat="49.21378" lon="2.35213">
        <ele>91</ele>
        <time>2011-11-06T10:08:36Z</time>
      </trkpt>
      <trkpt lat="49.21375" lon="2.352">
        <ele>91</ele>
        <time>2011-11-06T10:08:37Z</time>
      </trkpt>
      <trkpt lat="49.21371" lon="2.35186">
        <ele>91</ele>
        <time>2011-11-06T10:08:38Z</time>
      </trkpt>
      <trkpt lat="49.21368" lon="2.35172">
        <ele>91</ele>
        <time>2011-11-06T10:08:39Z</time>
      </trkpt>
      <trkpt lat="49.21364" lon="2.35158">
        <ele>91</ele>
        <time>2011-11-06T10:08:40Z</time>
      </trkpt>
      <trkpt lat="49.2136" lon="2.35143">
        <ele>91</ele>
        <time>2011-11-06T10:08:41Z</time>
      </trkpt>
      <trkpt lat="49.21357" lon="2.35129">
        <ele>91</ele>
        <time>2011-11-06T10:08:42Z</time>
      </trkpt>
      <trkpt lat="49.21352" lon="2.35113">
        <ele>91</ele>
        <time>2011-11-06T10:08:43Z</time>
      </trkpt>
      <trkpt lat="49.21348" lon="2.35098">
        <ele>91</ele>
        <time>2011-11-06T10:08:44Z</time>
      </trkpt>
      <trkpt lat="49.21344" lon="2.35081">
        <ele>91</ele>
        <time>2011-11-06T10:08:45Z</time>
      </trkpt>
      <trkpt lat="49.2134" lon="2.35065">
        <ele>91</ele>
        <time>2011-11-06T10:08:46Z</time>
      </trkpt>
      <trkpt lat="49.21335" lon="2.35048">
        <ele>91</ele>
        <time>2011-11-06T10:08:47Z</time>
      </trkpt>
      <trkpt lat="49.21331" lon="2.35033">
        <ele>96</ele>
        <time>2011-11-06T10:08:48Z</time>
      </trkpt>
      <trkpt lat="49.21327" lon="2.35018">
        <ele>96</ele>
        <time>2011-11-06T10:08:49Z</time>
      </trkpt>
      <trkpt lat="49.21323" lon="2.35003">
        <ele>96</ele>
        <time>2011-11-06T10:08:50Z</time>
      </trkpt>
      <trkpt lat="49.21319" lon="2.34988">
        <ele>96</ele>
        <time>2011-11-06T10:08:51Z</time>
      </trkpt>
      <trkpt lat="49.21315" lon="2.34972">
        <ele>96</ele>
        <time>2011-11-06T10:08:52Z</time>
      </trkpt>
      <trkpt lat="49.2131" lon="2.34957">
        <ele>96</ele>
        <time>2011-11-06T10:08:53Z</time>
      </trkpt>
      <trkpt lat="49.21306" lon="2.34943">
        <ele>96</ele>
        <time>2011-11-06T10:08:54Z</time>
      </trkpt>
      <trkpt lat="49.213" lon="2.3492">
        <ele>96</ele>
        <time>2011-11-06T10:08:56Z</time>
      </trkpt>
      <trkpt lat="49.21296" lon="2.34901">
        <ele>96</ele>
        <time>2011-11-06T10:08:58Z</time>
      </trkpt>
      <trkpt lat="49.21291" lon="2.34881">
        <ele>96</ele>
        <time>2011-11-06T10:09:00Z</time>
      </trkpt>
      <trkpt lat="49.21285" lon="2.34856">
        <ele>96</ele>
        <time>2011-11-06T10:09:02Z</time>
      </trkpt>
      <trkpt lat="49.21281" lon="2.34843">
        <ele>96</ele>
        <time>2011-11-06T10:09:03Z</time>
      </trkpt>
      <trkpt lat="49.21278" lon="2.34829">
        <ele>96</ele>
        <time>2011-11-06T10:09:04Z</time>
      </trkpt>
      <trkpt lat="49.21274" lon="2.34812">
        <ele>96</ele>
        <time>2011-11-06T10:09:05Z</time>
      </trkpt>
      <trkpt lat="49.21269" lon="2.34797">
        <ele>96</ele>
        <time>2011-11-06T10:09:06Z</time>
      </trkpt>
      <trkpt lat="49.21265" lon="2.34781">
        <ele>96</ele>
        <time>2011-11-06T10:09:07Z</time>
      </trkpt>
      <trkpt lat="49.21261" lon="2.34766">
        <ele>96</ele>
        <time>2011-11-06T10:09:08Z</time>
      </trkpt>
      <trkpt lat="49.21257" lon="2.34751">
        <ele>96</ele>
        <time>2011-11-06T10:09:09Z</time>
      </trkpt>
      <trkpt lat="49.21254" lon="2.34737">
        <ele>96</ele>
        <time>2011-11-06T10:09:10Z</time>
      </trkpt>
      <trkpt lat="49.21249" lon="2.34724">
        <ele>96</ele>
        <time>2011-11-06T10:09:11Z</time>
      </trkpt>
      <trkpt lat="49.21246" lon="2.34709">
        <ele>101</ele>
        <time>2011-11-06T10:09:12Z</time>
      </trkpt>
      <trkpt lat="49.21242" lon="2.34696">
        <ele>101</ele>
        <time>2011-11-06T10:09:13Z</time>
      </trkpt>
      <trkpt lat="49.21238" lon="2.34681">
        <ele>101</ele>
        <time>2011-11-06T10:09:14Z</time>
      </trkpt>
      <trkpt lat="49.21234" lon="2.34666">
        <ele>101</ele>
        <time>2011-11-06T10:09:15Z</time>
      </trkpt>
      <trkpt lat="49.2123" lon="2.34651">
        <ele>101</ele>
        <time>2011-11-06T10:09:16Z</time>
      </trkpt>
      <trkpt lat="49.21226" lon="2.34636">
        <ele>101</ele>
        <time>2011-11-06T10:09:17Z</time>
      </trkpt>
      <trkpt lat="49.21223" lon="2.34623">
        <ele>101</ele>
        <time>2011-11-06T10:09:18Z</time>
      </trkpt>
      <trkpt lat="49.21218" lon="2.34603">
        <ele>101</ele>
        <time>2011-11-06T10:09:20Z</time>
      </trkpt>
      <trkpt lat="49.21214" lon="2.34589">
        <ele>101</ele>
        <time>2011-11-06T10:09:22Z</time>
      </trkpt>
      <trkpt lat="49.21209" lon="2.34574">
        <ele>101</ele>
        <time>2011-11-06T10:09:24Z</time>
      </trkpt>
      <trkpt lat="49.21202" lon="2.34564">
        <ele>101</ele>
        <time>2011-11-06T10:09:26Z</time>
      </trkpt>
      <trkpt lat="49.2119" lon="2.34561">
        <ele>101</ele>
        <time>2011-11-06T10:09:28Z</time>
      </trkpt>
      <trkpt lat="49.21173" lon="2.34559">
        <ele>101</ele>
        <time>2011-11-06T10:09:30Z</time>
      </trkpt>
      <trkpt lat="49.21163" lon="2.34557">
        <ele>101</ele>
        <time>2011-11-06T10:09:31Z</time>
      </trkpt>
      <trkpt lat="49.21152" lon="2.34555">
        <ele>101</ele>
        <time>2011-11-06T10:09:32Z</time>
      </trkpt>
      <trkpt lat="49.21141" lon="2.34553">
        <ele>101</ele>
        <time>2011-11-06T10:09:33Z</time>
      </trkpt>
      <trkpt lat="49.21128" lon="2.3455">
        <ele>101</ele>
        <time>2011-11-06T10:09:34Z</time>
      </trkpt>
      <trkpt lat="49.21114" lon="2.34548">
        <ele>101</ele>
        <time>2011-11-06T10:09:35Z</time>
      </trkpt>
      <trkpt lat="49.21101" lon="2.34546">
        <ele>101</ele>
        <time>2011-11-06T10:09:36Z</time>
      </trkpt>
      <trkpt lat="49.21087" lon="2.34543">
        <ele>101</ele>
        <time>2011-11-06T10:09:37Z</time>
      </trkpt>
      <trkpt lat="49.21074" lon="2.34539">
        <ele>101</ele>
        <time>2011-11-06T10:09:38Z</time>
      </trkpt>
      <trkpt lat="49.21061" lon="2.34537">
        <ele>101</ele>
        <time>2011-11-06T10:09:39Z</time>
      </trkpt>
      <trkpt lat="49.21048" lon="2.34534">
        <ele>101</ele>
        <time>2011-11-06T10:09:40Z</time>
      </trkpt>
      <trkpt lat="49.21035" lon="2.34531">
        <ele>101</ele>
        <time>2011-11-06T10:09:41Z</time>
      </trkpt>
      <trkpt lat="49.21022" lon="2.3453">
        <ele>101</ele>
        <time>2011-11-06T10:09:42Z</time>
      </trkpt>
      <trkpt lat="49.2101" lon="2.34527">
        <ele>101</ele>
        <time>2011-11-06T10:09:43Z</time>
      </trkpt>
      <trkpt lat="49.20997" lon="2.34524">
        <ele>101</ele>
        <time>2011-11-06T10:09:44Z</time>
      </trkpt>
      <trkpt lat="49.20984" lon="2.34522">
        <ele>101</ele>
        <time>2011-11-06T10:09:45Z</time>
      </trkpt>
      <trkpt lat="49.20972" lon="2.3452">
        <ele>101</ele>
        <time>2011-11-06T10:09:46Z</time>
      </trkpt>
      <trkpt lat="49.20959" lon="2.34516">
        <ele>101</ele>
        <time>2011-11-06T10:09:47Z</time>
      </trkpt>
      <trkpt lat="49.20947" lon="2.34513">
        <ele>101</ele>
        <time>2011-11-06T10:09:48Z</time>
      </trkpt>
      <trkpt lat="49.20936" lon="2.34511">
        <ele>101</ele>
        <time>2011-11-06T10:09:49Z</time>
      </trkpt>
      <trkpt lat="49.20925" lon="2.34508">
        <ele>101</ele>
        <time>2011-11-06T10:09:50Z</time>
      </trkpt>
      <trkpt lat="49.20909" lon="2.34503">
        <ele>101</ele>
        <time>2011-11-06T10:09:52Z</time>
      </trkpt>
      <trkpt lat="49.20899" lon="2.34503">
        <ele>101</ele>
        <time>2011-11-06T10:09:54Z</time>
      </trkpt>
      <trkpt lat="49.20889" lon="2.34501">
        <ele>101</ele>
        <time>2011-11-06T10:10:01Z</time>
      </trkpt>
      <trkpt lat="49.20878" lon="2.34497">
        <ele>101</ele>
        <time>2011-11-06T10:10:06Z</time>
      </trkpt>
      <trkpt lat="49.20868" lon="2.34499">
        <ele>101</ele>
        <time>2011-11-06T10:10:10Z</time>
      </trkpt>
      <trkpt lat="49.2086" lon="2.34513">
        <ele>101</ele>
        <time>2011-11-06T10:10:12Z</time>
      </trkpt>
      <trkpt lat="49.2085" lon="2.34535">
        <ele>101</ele>
        <time>2011-11-06T10:10:14Z</time>
      </trkpt>
      <trkpt lat="49.20845" lon="2.34547">
        <ele>101</ele>
        <time>2011-11-06T10:10:15Z</time>
      </trkpt>
      <trkpt lat="49.20839" lon="2.34559">
        <ele>101</ele>
        <time>2011-11-06T10:10:16Z</time>
      </trkpt>
      <trkpt lat="49.20834" lon="2.34572">
        <ele>107</ele>
        <time>2011-11-06T10:10:17Z</time>
      </trkpt>
      <trkpt lat="49.20828" lon="2.34586">
        <ele>107</ele>
        <time>2011-11-06T10:10:18Z</time>
      </trkpt>
      <trkpt lat="49.20821" lon="2.346">
        <ele>107</ele>
        <time>2011-11-06T10:10:19Z</time>
      </trkpt>
      <trkpt lat="49.20815" lon="2.34616">
        <ele>107</ele>
        <time>2011-11-06T10:10:20Z</time>
      </trkpt>
      <trkpt lat="49.20807" lon="2.34632">
        <ele>107</ele>
        <time>2011-11-06T10:10:21Z</time>
      </trkpt>
      <trkpt lat="49.20799" lon="2.34648">
        <ele>107</ele>
        <time>2011-11-06T10:10:22Z</time>
      </trkpt>
      <trkpt lat="49.20791" lon="2.34665">
        <ele>107</ele>
        <time>2011-11-06T10:10:23Z</time>
      </trkpt>
      <trkpt lat="49.20782" lon="2.34682">
        <ele>107</ele>
        <time>2011-11-06T10:10:24Z</time>
      </trkpt>
      <trkpt lat="49.20773" lon="2.34699">
        <ele>107</ele>
        <time>2011-11-06T10:10:25Z</time>
      </trkpt>
      <trkpt lat="49.20764" lon="2.34716">
        <ele>107</ele>
        <time>2011-11-06T10:10:26Z</time>
      </trkpt>
      <trkpt lat="49.20755" lon="2.34733">
        <ele>107</ele>
        <time>2011-11-06T10:10:27Z</time>
      </trkpt>
      <trkpt lat="49.20745" lon="2.34749">
        <ele>107</ele>
        <time>2011-11-06T10:10:28Z</time>
      </trkpt>
      <trkpt lat="49.20736" lon="2.34765">
        <ele>107</ele>
        <time>2011-11-06T10:10:29Z</time>
      </trkpt>
      <trkpt lat="49.20726" lon="2.34782">
        <ele>107</ele>
        <time>2011-11-06T10:10:30Z</time>
      </trkpt>
      <trkpt lat="49.20717" lon="2.34798">
        <ele>107</ele>
        <time>2011-11-06T10:10:31Z</time>
      </trkpt>
      <trkpt lat="49.20707" lon="2.34814">
        <ele>107</ele>
        <time>2011-11-06T10:10:32Z</time>
      </trkpt>
      <trkpt lat="49.20698" lon="2.3483">
        <ele>107</ele>
        <time>2011-11-06T10:10:33Z</time>
      </trkpt>
      <trkpt lat="49.20689" lon="2.34846">
        <ele>107</ele>
        <time>2011-11-06T10:10:34Z</time>
      </trkpt>
      <trkpt lat="49.2068" lon="2.34862">
        <ele>107</ele>
        <time>2011-11-06T10:10:35Z</time>
      </trkpt>
      <trkpt lat="49.20671" lon="2.34877">
        <ele>107</ele>
        <time>2011-11-06T10:10:36Z</time>
      </trkpt>
      <trkpt lat="49.20662" lon="2.34893">
        <ele>107</ele>
        <time>2011-11-06T10:10:37Z</time>
      </trkpt>
      <trkpt lat="49.20653" lon="2.34909">
        <ele>107</ele>
        <time>2011-11-06T10:10:38Z</time>
      </trkpt>
      <trkpt lat="49.20644" lon="2.34925">
        <ele>107</ele>
        <time>2011-11-06T10:10:39Z</time>
      </trkpt>
      <trkpt lat="49.20636" lon="2.3494">
        <ele>107</ele>
        <time>2011-11-06T10:10:40Z</time>
      </trkpt>
      <trkpt lat="49.20627" lon="2.34955">
        <ele>107</ele>
        <time>2011-11-06T10:10:41Z</time>
      </trkpt>
      <trkpt lat="49.20618" lon="2.34971">
        <ele>107</ele>
        <time>2011-11-06T10:10:42Z</time>
      </trkpt>
      <trkpt lat="49.20609" lon="2.34986">
        <ele>107</ele>
        <time>2011-11-06T10:10:43Z</time>
      </trkpt>
      <trkpt lat="49.206" lon="2.35002">
        <ele>107</ele>
        <time>2011-11-06T10:10:44Z</time>
      </trkpt>
      <trkpt lat="49.2059" lon="2.35019">
        <ele>107</ele>
        <time>2011-11-06T10:10:45Z</time>
      </trkpt>
      <trkpt lat="49.2058" lon="2.35035">
        <ele>107</ele>
        <time>2011-11-06T10:10:46Z</time>
      </trkpt>
      <trkpt lat="49.20571" lon="2.35051">
        <ele>107</ele>
        <time>2011-11-06T10:10:47Z</time>
      </trkpt>
      <trkpt lat="49.20561" lon="2.35068">
        <ele>107</ele>
        <time>2011-11-06T10:10:48Z</time>
      </trkpt>
      <trkpt lat="49.20553" lon="2.35084">
        <ele>107</ele>
        <time>2011-11-06T10:10:49Z</time>
      </trkpt>
      <trkpt lat="49.20544" lon="2.35098">
        <ele>107</ele>
        <time>2011-11-06T10:10:50Z</time>
      </trkpt>
      <trkpt lat="49.20537" lon="2.35112">
        <ele>107</ele>
        <time>2011-11-06T10:10:51Z</time>
      </trkpt>
      <trkpt lat="49.20529" lon="2.35124">
        <ele>107</ele>
        <time>2011-11-06T10:10:52Z</time>
      </trkpt>
      <trkpt lat="49.20523" lon="2.35135">
        <ele>107</ele>
        <time>2011-11-06T10:10:53Z</time>
      </trkpt>
      <trkpt lat="49.20513" lon="2.35151">
        <ele>107</ele>
        <time>2011-11-06T10:10:55Z</time>
      </trkpt>
      <trkpt lat="49.20505" lon="2.35161">
        <ele>107</ele>
        <time>2011-11-06T10:10:57Z</time>
      </trkpt>
      <trkpt lat="49.20495" lon="2.35174">
        <ele>107</ele>
        <time>2011-11-06T10:10:59Z</time>
      </trkpt>
      <trkpt lat="49.20484" lon="2.35187">
        <ele>107</ele>
        <time>2011-11-06T10:11:01Z</time>
      </trkpt>
      <trkpt lat="49.20473" lon="2.35186">
        <ele>107</ele>
        <time>2011-11-06T10:11:04Z</time>
      </trkpt>
      <trkpt lat="49.20468" lon="2.35171">
        <ele>107</ele>
        <time>2011-11-06T10:11:06Z</time>
      </trkpt>
      <trkpt lat="49.20464" lon="2.35154">
        <ele>107</ele>
        <time>2011-11-06T10:11:08Z</time>
      </trkpt>
      <trkpt lat="49.2046" lon="2.3514">
        <ele>107</ele>
        <time>2011-11-06T10:11:10Z</time>
      </trkpt>
      <trkpt lat="49.20453" lon="2.35127">
        <ele>107</ele>
        <time>2011-11-06T10:11:13Z</time>
      </trkpt>
      <trkpt lat="49.20446" lon="2.35117">
        <ele>107</ele>
        <time>2011-11-06T10:11:18Z</time>
      </trkpt>
      <trkpt lat="49.20436" lon="2.35104">
        <ele>107</ele>
        <time>2011-11-06T10:25:16Z</time>
      </trkpt>
      <trkpt lat="49.20425" lon="2.35095">
        <ele>107</ele>
        <time>2011-11-06T10:25:19Z</time>
      </trkpt>
      <trkpt lat="49.20417" lon="2.35089">
        <ele>107</ele>
        <time>2011-11-06T10:25:22Z</time>
      </trkpt>
      <trkpt lat="49.20408" lon="2.35082">
        <ele>107</ele>
        <time>2011-11-06T10:25:25Z</time>
      </trkpt>
      <trkpt lat="49.204" lon="2.35076">
        <ele>107</ele>
        <time>2011-11-06T10:25:28Z</time>
      </trkpt>
      <trkpt lat="49.20389" lon="2.35068">
        <ele>107</ele>
        <time>2011-11-06T10:25:34Z</time>
      </trkpt>
      <trkpt lat="49.20381" lon="2.35061">
        <ele>107</ele>
        <time>2011-11-06T10:25:36Z</time>
      </trkpt>
      <trkpt lat="49.20372" lon="2.35054">
        <ele>107</ele>
        <time>2011-11-06T10:25:38Z</time>
      </trkpt>
      <trkpt lat="49.20359" lon="2.35044">
        <ele>107</ele>
        <time>2011-11-06T10:25:40Z</time>
      </trkpt>
      <trkpt lat="49.20344" lon="2.35033">
        <ele>107</ele>
        <time>2011-11-06T10:25:42Z</time>
      </trkpt>
      <trkpt lat="49.20328" lon="2.35021">
        <ele>107</ele>
        <time>2011-11-06T10:25:44Z</time>
      </trkpt>
      <trkpt lat="49.2032" lon="2.35015">
        <ele>107</ele>
        <time>2011-11-06T10:25:45Z</time>
      </trkpt>
      <trkpt lat="49.20311" lon="2.35007">
        <ele>107</ele>
        <time>2011-11-06T10:25:46Z</time>
      </trkpt>
      <trkpt lat="49.20301" lon="2.35">
        <ele>101</ele>
        <time>2011-11-06T10:25:47Z</time>
      </trkpt>
      <trkpt lat="49.20292" lon="2.34993">
        <ele>101</ele>
        <time>2011-11-06T10:25:48Z</time>
      </trkpt>
      <trkpt lat="49.20284" lon="2.34986">
        <ele>101</ele>
        <time>2011-11-06T10:25:49Z</time>
      </trkpt>
      <trkpt lat="49.20275" lon="2.3498">
        <ele>101</ele>
        <time>2011-11-06T10:25:50Z</time>
      </trkpt>
      <trkpt lat="49.20266" lon="2.34974">
        <ele>101</ele>
        <time>2011-11-06T10:25:51Z</time>
      </trkpt>
      <trkpt lat="49.20258" lon="2.34968">
        <ele>101</ele>
        <time>2011-11-06T10:25:52Z</time>
      </trkpt>
      <trkpt lat="49.20249" lon="2.34961">
        <ele>101</ele>
        <time>2011-11-06T10:25:53Z</time>
      </trkpt>
      <trkpt lat="49.20241" lon="2.34954">
        <ele>101</ele>
        <time>2011-11-06T10:25:54Z</time>
      </trkpt>
      <trkpt lat="49.20232" lon="2.34947">
        <ele>101</ele>
        <time>2011-11-06T10:25:55Z</time>
      </trkpt>
      <trkpt lat="49.20224" lon="2.34941">
        <ele>101</ele>
        <time>2011-11-06T10:25:56Z</time>
      </trkpt>
      <trkpt lat="49.20209" lon="2.3493">
        <ele>101</ele>
        <time>2011-11-06T10:25:58Z</time>
      </trkpt>
      <trkpt lat="49.20198" lon="2.34919">
        <ele>101</ele>
        <time>2011-11-06T10:26:00Z</time>
      </trkpt>
      <trkpt lat="49.20188" lon="2.34909">
        <ele>101</ele>
        <time>2011-11-06T10:26:02Z</time>
      </trkpt>
      <trkpt lat="49.20179" lon="2.34903">
        <ele>101</ele>
        <time>2011-11-06T10:26:04Z</time>
      </trkpt>
      <trkpt lat="49.20169" lon="2.34893">
        <ele>101</ele>
        <time>2011-11-06T10:26:07Z</time>
      </trkpt>
      <trkpt lat="49.20158" lon="2.34882">
        <ele>96</ele>
        <time>2011-11-06T10:26:10Z</time>
      </trkpt>
      <trkpt lat="49.20149" lon="2.3487">
        <ele>96</ele>
        <time>2011-11-06T10:26:12Z</time>
      </trkpt>
      <trkpt lat="49.20136" lon="2.34857">
        <ele>96</ele>
        <time>2011-11-06T10:26:14Z</time>
      </trkpt>
      <trkpt lat="49.20124" lon="2.34844">
        <ele>96</ele>
        <time>2011-11-06T10:26:16Z</time>
      </trkpt>
      <trkpt lat="49.20111" lon="2.3483">
        <ele>96</ele>
        <time>2011-11-06T10:26:18Z</time>
      </trkpt>
      <trkpt lat="49.20097" lon="2.34816">
        <ele>96</ele>
        <time>2011-11-06T10:26:20Z</time>
      </trkpt>
      <trkpt lat="49.20082" lon="2.34801">
        <ele>96</ele>
        <time>2011-11-06T10:26:22Z</time>
      </trkpt>
      <trkpt lat="49.20066" lon="2.34785">
        <ele>96</ele>
        <time>2011-11-06T10:26:24Z</time>
      </trkpt>
      <trkpt lat="49.20058" lon="2.34777">
        <ele>96</ele>
        <time>2011-11-06T10:26:25Z</time>
      </trkpt>
      <trkpt lat="49.2005" lon="2.34768">
        <ele>96</ele>
        <time>2011-11-06T10:26:26Z</time>
      </trkpt>
      <trkpt lat="49.20042" lon="2.34759">
        <ele>96</ele>
        <time>2011-11-06T10:26:27Z</time>
      </trkpt>
      <trkpt lat="49.20034" lon="2.3475">
        <ele>96</ele>
        <time>2011-11-06T10:26:28Z</time>
      </trkpt>
      <trkpt lat="49.20025" lon="2.34741">
        <ele>96</ele>
        <time>2011-11-06T10:26:29Z</time>
      </trkpt>
      <trkpt lat="49.20017" lon="2.34732">
        <ele>96</ele>
        <time>2011-11-06T10:26:30Z</time>
      </trkpt>
      <trkpt lat="49.20009" lon="2.34723">
        <ele>96</ele>
        <time>2011-11-06T10:26:31Z</time>
      </trkpt>
      <trkpt lat="49.2" lon="2.34714">
        <ele>96</ele>
        <time>2011-11-06T10:26:32Z</time>
      </trkpt>
      <trkpt lat="49.19992" lon="2.34704">
        <ele>96</ele>
        <time>2011-11-06T10:26:33Z</time>
      </trkpt>
      <trkpt lat="49.19983" lon="2.34695">
        <ele>96</ele>
        <time>2011-11-06T10:26:34Z</time>
      </trkpt>
      <trkpt lat="49.19975" lon="2.34686">
        <ele>96</ele>
        <time>2011-11-06T10:26:35Z</time>
      </trkpt>
      <trkpt lat="49.19967" lon="2.34678">
        <ele>96</ele>
        <time>2011-11-06T10:26:36Z</time>
      </trkpt>
      <trkpt lat="49.19954" lon="2.34662">
        <ele>96</ele>
        <time>2011-11-06T10:26:38Z</time>
      </trkpt>
      <trkpt lat="49.19943" lon="2.34651">
        <ele>96</ele>
        <time>2011-11-06T10:26:40Z</time>
      </trkpt>
      <trkpt lat="49.19934" lon="2.34641">
        <ele>96</ele>
        <time>2011-11-06T10:26:42Z</time>
      </trkpt>
      <trkpt lat="49.19922" lon="2.34628">
        <ele>96</ele>
        <time>2011-11-06T10:26:44Z</time>
      </trkpt>
      <trkpt lat="49.19907" lon="2.34613">
        <ele>96</ele>
        <time>2011-11-06T10:26:46Z</time>
      </trkpt>
      <trkpt lat="49.19899" lon="2.34605">
        <ele>96</ele>
        <time>2011-11-06T10:26:47Z</time>
      </trkpt>
      <trkpt lat="49.19892" lon="2.34597">
        <ele>96</ele>
        <time>2011-11-06T10:26:48Z</time>
      </trkpt>
      <trkpt lat="49.19884" lon="2.34589">
        <ele>96</ele>
        <time>2011-11-06T10:26:49Z</time>
      </trkpt>
      <trkpt lat="49.19869" lon="2.34572">
        <ele>96</ele>
        <time>2011-11-06T10:26:51Z</time>
      </trkpt>
      <trkpt lat="49.1986" lon="2.34564">
        <ele>96</ele>
        <time>2011-11-06T10:26:52Z</time>
      </trkpt>
      <trkpt lat="49.19852" lon="2.34554">
        <ele>96</ele>
        <time>2011-11-06T10:26:53Z</time>
      </trkpt>
      <trkpt lat="49.19844" lon="2.34545">
        <ele>96</ele>
        <time>2011-11-06T10:26:54Z</time>
      </trkpt>
      <trkpt lat="49.19836" lon="2.34536">
        <ele>96</ele>
        <time>2011-11-06T10:26:55Z</time>
      </trkpt>
      <trkpt lat="49.19828" lon="2.34528">
        <ele>96</ele>
        <time>2011-11-06T10:26:56Z</time>
      </trkpt>
      <trkpt lat="49.19814" lon="2.34513">
        <ele>96</ele>
        <time>2011-11-06T10:26:58Z</time>
      </trkpt>
      <trkpt lat="49.19801" lon="2.34499">
        <ele>96</ele>
        <time>2011-11-06T10:27:00Z</time>
      </trkpt>
      <trkpt lat="49.19786" lon="2.34483">
        <ele>96</ele>
        <time>2011-11-06T10:27:02Z</time>
      </trkpt>
      <trkpt lat="49.19779" lon="2.34475">
        <ele>96</ele>
        <time>2011-11-06T10:27:03Z</time>
      </trkpt>
      <trkpt lat="49.1977" lon="2.34467">
        <ele>96</ele>
        <time>2011-11-06T10:27:04Z</time>
      </trkpt>
      <trkpt lat="49.19763" lon="2.34458">
        <ele>96</ele>
        <time>2011-11-06T10:27:05Z</time>
      </trkpt>
      <trkpt lat="49.19754" lon="2.34449">
        <ele>96</ele>
        <time>2011-11-06T10:27:06Z</time>
      </trkpt>
      <trkpt lat="49.19746" lon="2.34439">
        <ele>96</ele>
        <time>2011-11-06T10:27:07Z</time>
      </trkpt>
      <trkpt lat="49.19737" lon="2.34429">
        <ele>96</ele>
        <time>2011-11-06T10:27:08Z</time>
      </trkpt>
      <trkpt lat="49.19728" lon="2.34419">
        <ele>96</ele>
        <time>2011-11-06T10:27:09Z</time>
      </trkpt>
      <trkpt lat="49.1972" lon="2.3441">
        <ele>96</ele>
        <time>2011-11-06T10:27:10Z</time>
      </trkpt>
      <trkpt lat="49.19711" lon="2.34401">
        <ele>96</ele>
        <time>2011-11-06T10:27:11Z</time>
      </trkpt>
      <trkpt lat="49.19704" lon="2.34393">
        <ele>96</ele>
        <time>2011-11-06T10:27:12Z</time>
      </trkpt>
      <trkpt lat="49.1969" lon="2.34378">
        <ele>96</ele>
        <time>2011-11-06T10:27:14Z</time>
      </trkpt>
      <trkpt lat="49.19677" lon="2.34362">
        <ele>96</ele>
        <time>2011-11-06T10:27:16Z</time>
      </trkpt>
      <trkpt lat="49.19663" lon="2.34347">
        <ele>96</ele>
        <time>2011-11-06T10:27:18Z</time>
      </trkpt>
      <trkpt lat="49.19648" lon="2.34331">
        <ele>96</ele>
        <time>2011-11-06T10:27:20Z</time>
      </trkpt>
      <trkpt lat="49.1964" lon="2.34322">
        <ele>96</ele>
        <time>2011-11-06T10:27:21Z</time>
      </trkpt>
      <trkpt lat="49.19632" lon="2.34313">
        <ele>96</ele>
        <time>2011-11-06T10:27:22Z</time>
      </trkpt>
      <trkpt lat="49.19623" lon="2.34304">
        <ele>96</ele>
        <time>2011-11-06T10:27:23Z</time>
      </trkpt>
      <trkpt lat="49.19615" lon="2.34295">
        <ele>96</ele>
        <time>2011-11-06T10:27:24Z</time>
      </trkpt>
      <trkpt lat="49.19606" lon="2.34286">
        <ele>96</ele>
        <time>2011-11-06T10:27:25Z</time>
      </trkpt>
      <trkpt lat="49.19598" lon="2.34277">
        <ele>96</ele>
        <time>2011-11-06T10:27:26Z</time>
      </trkpt>
      <trkpt lat="49.19591" lon="2.34269">
        <ele>96</ele>
        <time>2011-11-06T10:27:27Z</time>
      </trkpt>
      <trkpt lat="49.19583" lon="2.34261">
        <ele>96</ele>
        <time>2011-11-06T10:27:28Z</time>
      </trkpt>
      <trkpt lat="49.19568" lon="2.34246">
        <ele>96</ele>
        <time>2011-11-06T10:27:30Z</time>
      </trkpt>
      <trkpt lat="49.19554" lon="2.3423">
        <ele>96</ele>
        <time>2011-11-06T10:27:32Z</time>
      </trkpt>
      <trkpt lat="49.19542" lon="2.34217">
        <ele>96</ele>
        <time>2011-11-06T10:27:34Z</time>
      </trkpt>
      <trkpt lat="49.19531" lon="2.34209">
        <ele>96</ele>
        <time>2011-11-06T10:27:36Z</time>
      </trkpt>
      <trkpt lat="49.19522" lon="2.34212">
        <ele>91</ele>
        <time>2011-11-06T10:27:38Z</time>
      </trkpt>
      <trkpt lat="49.19514" lon="2.34225">
        <ele>91</ele>
        <time>2011-11-06T10:27:40Z</time>
      </trkpt>
      <trkpt lat="49.19506" lon="2.34245">
        <ele>91</ele>
        <time>2011-11-06T10:27:42Z</time>
      </trkpt>
      <trkpt lat="49.19497" lon="2.34266">
        <ele>91</ele>
        <time>2011-11-06T10:27:44Z</time>
      </trkpt>
      <trkpt lat="49.19487" lon="2.34287">
        <ele>91</ele>
        <time>2011-11-06T10:27:46Z</time>
      </trkpt>
      <trkpt lat="49.19477" lon="2.34309">
        <ele>91</ele>
        <time>2011-11-06T10:27:48Z</time>
      </trkpt>
      <trkpt lat="49.19471" lon="2.34322">
        <ele>91</ele>
        <time>2011-11-06T10:27:49Z</time>
      </trkpt>
      <trkpt lat="49.19465" lon="2.34335">
        <ele>91</ele>
        <time>2011-11-06T10:27:50Z</time>
      </trkpt>
      <trkpt lat="49.19459" lon="2.34347">
        <ele>91</ele>
        <time>2011-11-06T10:27:51Z</time>
      </trkpt>
      <trkpt lat="49.19453" lon="2.3436">
        <ele>91</ele>
        <time>2011-11-06T10:27:52Z</time>
      </trkpt>
      <trkpt lat="49.19447" lon="2.34372">
        <ele>91</ele>
        <time>2011-11-06T10:27:53Z</time>
      </trkpt>
      <trkpt lat="49.19437" lon="2.34393">
        <ele>91</ele>
        <time>2011-11-06T10:27:55Z</time>
      </trkpt>
      <trkpt lat="49.19429" lon="2.34411">
        <ele>91</ele>
        <time>2011-11-06T10:27:57Z</time>
      </trkpt>
      <trkpt lat="49.19422" lon="2.34425">
        <ele>91</ele>
        <time>2011-11-06T10:27:59Z</time>
      </trkpt>
      <trkpt lat="49.19414" lon="2.34431">
        <ele>91</ele>
        <time>2011-11-06T10:28:01Z</time>
      </trkpt>
      <trkpt lat="49.19405" lon="2.34425">
        <ele>91</ele>
        <time>2011-11-06T10:28:03Z</time>
      </trkpt>
      <trkpt lat="49.19395" lon="2.34414">
        <ele>91</ele>
        <time>2011-11-06T10:28:05Z</time>
      </trkpt>
      <trkpt lat="49.19383" lon="2.34398">
        <ele>91</ele>
        <time>2011-11-06T10:28:07Z</time>
      </trkpt>
      <trkpt lat="49.19369" lon="2.34382">
        <ele>91</ele>
        <time>2011-11-06T10:28:09Z</time>
      </trkpt>
      <trkpt lat="49.19355" lon="2.34365">
        <ele>91</ele>
        <time>2011-11-06T10:28:11Z</time>
      </trkpt>
      <trkpt lat="49.19342" lon="2.34347">
        <ele>91</ele>
        <time>2011-11-06T10:28:13Z</time>
      </trkpt>
      <trkpt lat="49.19329" lon="2.34332">
        <ele>91</ele>
        <time>2011-11-06T10:28:15Z</time>
      </trkpt>
      <trkpt lat="49.19316" lon="2.34317">
        <ele>91</ele>
        <time>2011-11-06T10:28:17Z</time>
      </trkpt>
      <trkpt lat="49.19304" lon="2.343">
        <ele>91</ele>
        <time>2011-11-06T10:28:19Z</time>
      </trkpt>
      <trkpt lat="49.19293" lon="2.34291">
        <ele>91</ele>
        <time>2011-11-06T10:28:21Z</time>
      </trkpt>
      <trkpt lat="49.19285" lon="2.34299">
        <ele>91</ele>
        <time>2011-11-06T10:28:23Z</time>
      </trkpt>
      <trkpt lat="49.19278" lon="2.34317">
        <ele>91</ele>
        <time>2011-11-06T10:28:25Z</time>
      </trkpt>
      <trkpt lat="49.1927" lon="2.34339">
        <ele>91</ele>
        <time>2011-11-06T10:28:27Z</time>
      </trkpt>
      <trkpt lat="49.19266" lon="2.34352">
        <ele>91</ele>
        <time>2011-11-06T10:28:28Z</time>
      </trkpt>
      <trkpt lat="49.19262" lon="2.34364">
        <ele>91</ele>
        <time>2011-11-06T10:28:29Z</time>
      </trkpt>
      <trkpt lat="49.19253" lon="2.34388">
        <ele>91</ele>
        <time>2011-11-06T10:28:31Z</time>
      </trkpt>
      <trkpt lat="49.19249" lon="2.34401">
        <ele>91</ele>
        <time>2011-11-06T10:28:32Z</time>
      </trkpt>
      <trkpt lat="49.19245" lon="2.34414">
        <ele>91</ele>
        <time>2011-11-06T10:28:33Z</time>
      </trkpt>
      <trkpt lat="49.1924" lon="2.34426">
        <ele>91</ele>
        <time>2011-11-06T10:28:34Z</time>
      </trkpt>
      <trkpt lat="49.19232" lon="2.3445">
        <ele>91</ele>
        <time>2011-11-06T10:28:36Z</time>
      </trkpt>
      <trkpt lat="49.19227" lon="2.34462">
        <ele>91</ele>
        <time>2011-11-06T10:28:37Z</time>
      </trkpt>
      <trkpt lat="49.19219" lon="2.34485">
        <ele>91</ele>
        <time>2011-11-06T10:28:39Z</time>
      </trkpt>
      <trkpt lat="49.1921" lon="2.34508">
        <ele>91</ele>
        <time>2011-11-06T10:28:41Z</time>
      </trkpt>
      <trkpt lat="49.19202" lon="2.34531">
        <ele>91</ele>
        <time>2011-11-06T10:28:43Z</time>
      </trkpt>
      <trkpt lat="49.19194" lon="2.34554">
        <ele>91</ele>
        <time>2011-11-06T10:28:45Z</time>
      </trkpt>
      <trkpt lat="49.19187" lon="2.34573">
        <ele>91</ele>
        <time>2011-11-06T10:28:47Z</time>
      </trkpt>
      <trkpt lat="49.19181" lon="2.34591">
        <ele>91</ele>
        <time>2011-11-06T10:28:49Z</time>
      </trkpt>
      <trkpt lat="49.19175" lon="2.34609">
        <ele>91</ele>
        <time>2011-11-06T10:28:51Z</time>
      </trkpt>
      <trkpt lat="49.1917" lon="2.34626">
        <ele>91</ele>
        <time>2011-11-06T10:28:53Z</time>
      </trkpt>
      <trkpt lat="49.19164" lon="2.34642">
        <ele>91</ele>
        <time>2011-11-06T10:28:56Z</time>
      </trkpt>
      <trkpt lat="49.19153" lon="2.34649">
        <ele>91</ele>
        <time>2011-11-06T10:28:59Z</time>
      </trkpt>
      <trkpt lat="49.19145" lon="2.34641">
        <ele>91</ele>
        <time>2011-11-06T10:29:01Z</time>
      </trkpt>
      <trkpt lat="49.19136" lon="2.34628">
        <ele>91</ele>
        <time>2011-11-06T10:29:03Z</time>
      </trkpt>
      <trkpt lat="49.19124" lon="2.34615">
        <ele>91</ele>
        <time>2011-11-06T10:29:05Z</time>
      </trkpt>
      <trkpt lat="49.19112" lon="2.34601">
        <ele>91</ele>
        <time>2011-11-06T10:29:07Z</time>
      </trkpt>
      <trkpt lat="49.19097" lon="2.34586">
        <ele>91</ele>
        <time>2011-11-06T10:29:09Z</time>
      </trkpt>
      <trkpt lat="49.1909" lon="2.34577">
        <ele>91</ele>
        <time>2011-11-06T10:29:10Z</time>
      </trkpt>
      <trkpt lat="49.19083" lon="2.34569">
        <ele>91</ele>
        <time>2011-11-06T10:29:11Z</time>
      </trkpt>
      <trkpt lat="49.19075" lon="2.34561">
        <ele>91</ele>
        <time>2011-11-06T10:29:12Z</time>
      </trkpt>
      <trkpt lat="49.19061" lon="2.34546">
        <ele>91</ele>
        <time>2011-11-06T10:29:14Z</time>
      </trkpt>
      <trkpt lat="49.19047" lon="2.3453">
        <ele>91</ele>
        <time>2011-11-06T10:29:16Z</time>
      </trkpt>
      <trkpt lat="49.19031" lon="2.34513">
        <ele>91</ele>
        <time>2011-11-06T10:29:18Z</time>
      </trkpt>
      <trkpt lat="49.19024" lon="2.34505">
        <ele>85</ele>
        <time>2011-11-06T10:29:19Z</time>
      </trkpt>
      <trkpt lat="49.19016" lon="2.34496">
        <ele>85</ele>
        <time>2011-11-06T10:29:20Z</time>
      </trkpt>
      <trkpt lat="49.19007" lon="2.34486">
        <ele>85</ele>
        <time>2011-11-06T10:29:21Z</time>
      </trkpt>
      <trkpt lat="49.18998" lon="2.34477">
        <ele>85</ele>
        <time>2011-11-06T10:29:22Z</time>
      </trkpt>
      <trkpt lat="49.18989" lon="2.34468">
        <ele>85</ele>
        <time>2011-11-06T10:29:23Z</time>
      </trkpt>
      <trkpt lat="49.1898" lon="2.34458">
        <ele>85</ele>
        <time>2011-11-06T10:29:24Z</time>
      </trkpt>
      <trkpt lat="49.1897" lon="2.34447">
        <ele>85</ele>
        <time>2011-11-06T10:29:25Z</time>
      </trkpt>
      <trkpt lat="49.18961" lon="2.34437">
        <ele>85</ele>
        <time>2011-11-06T10:29:26Z</time>
      </trkpt>
      <trkpt lat="49.18951" lon="2.34427">
        <ele>85</ele>
        <time>2011-11-06T10:29:27Z</time>
      </trkpt>
      <trkpt lat="49.18942" lon="2.34416">
        <ele>85</ele>
        <time>2011-11-06T10:29:28Z</time>
      </trkpt>
      <trkpt lat="49.18932" lon="2.34406">
        <ele>85</ele>
        <time>2011-11-06T10:29:29Z</time>
      </trkpt>
      <trkpt lat="49.18923" lon="2.34395">
        <ele>85</ele>
        <time>2011-11-06T10:29:30Z</time>
      </trkpt>
      <trkpt lat="49.18913" lon="2.34385">
        <ele>85</ele>
        <time>2011-11-06T10:29:31Z</time>
      </trkpt>
      <trkpt lat="49.18904" lon="2.34374">
        <ele>80</ele>
        <time>2011-11-06T10:29:32Z</time>
      </trkpt>
      <trkpt lat="49.18894" lon="2.34363">
        <ele>80</ele>
        <time>2011-11-06T10:29:33Z</time>
      </trkpt>
      <trkpt lat="49.18884" lon="2.34353">
        <ele>80</ele>
        <time>2011-11-06T10:29:34Z</time>
      </trkpt>
      <trkpt lat="49.18874" lon="2.34343">
        <ele>80</ele>
        <time>2011-11-06T10:29:35Z</time>
      </trkpt>
      <trkpt lat="49.18864" lon="2.34332">
        <ele>80</ele>
        <time>2011-11-06T10:29:36Z</time>
      </trkpt>
      <trkpt lat="49.18854" lon="2.34321">
        <ele>80</ele>
        <time>2011-11-06T10:29:37Z</time>
      </trkpt>
      <trkpt lat="49.18844" lon="2.3431">
        <ele>80</ele>
        <time>2011-11-06T10:29:38Z</time>
      </trkpt>
      <trkpt lat="49.18834" lon="2.34299">
        <ele>80</ele>
        <time>2011-11-06T10:29:39Z</time>
      </trkpt>
      <trkpt lat="49.18824" lon="2.34288">
        <ele>80</ele>
        <time>2011-11-06T10:29:40Z</time>
      </trkpt>
      <trkpt lat="49.18814" lon="2.34276">
        <ele>80</ele>
        <time>2011-11-06T10:29:41Z</time>
      </trkpt>
      <trkpt lat="49.18804" lon="2.34265">
        <ele>80</ele>
        <time>2011-11-06T10:29:42Z</time>
      </trkpt>
      <trkpt lat="49.18793" lon="2.34254">
        <ele>80</ele>
        <time>2011-11-06T10:29:43Z</time>
      </trkpt>
      <trkpt lat="49.18784" lon="2.34242">
        <ele>80</ele>
        <time>2011-11-06T10:29:44Z</time>
      </trkpt>
      <trkpt lat="49.18774" lon="2.3423">
        <ele>80</ele>
        <time>2011-11-06T10:29:45Z</time>
      </trkpt>
      <trkpt lat="49.18763" lon="2.3422">
        <ele>80</ele>
        <time>2011-11-06T10:29:46Z</time>
      </trkpt>
      <trkpt lat="49.18752" lon="2.34208">
        <ele>80</ele>
        <time>2011-11-06T10:29:47Z</time>
      </trkpt>
      <trkpt lat="49.18741" lon="2.34196">
        <ele>80</ele>
        <time>2011-11-06T10:29:48Z</time>
      </trkpt>
      <trkpt lat="49.1873" lon="2.34185">
        <ele>80</ele>
        <time>2011-11-06T10:29:49Z</time>
      </trkpt>
      <trkpt lat="49.18719" lon="2.34174">
        <ele>80</ele>
        <time>2011-11-06T10:29:50Z</time>
      </trkpt>
      <trkpt lat="49.18709" lon="2.34163">
        <ele>80</ele>
        <time>2011-11-06T10:29:51Z</time>
      </trkpt>
      <trkpt lat="49.18698" lon="2.34151">
        <ele>80</ele>
        <time>2011-11-06T10:29:52Z</time>
      </trkpt>
      <trkpt lat="49.18688" lon="2.3414">
        <ele>80</ele>
        <time>2011-11-06T10:29:53Z</time>
      </trkpt>
      <trkpt lat="49.18677" lon="2.34128">
        <ele>80</ele>
        <time>2011-11-06T10:29:54Z</time>
      </trkpt>
      <trkpt lat="49.18666" lon="2.34116">
        <ele>80</ele>
        <time>2011-11-06T10:29:55Z</time>
      </trkpt>
      <trkpt lat="49.18655" lon="2.34104">
        <ele>80</ele>
        <time>2011-11-06T10:29:56Z</time>
      </trkpt>
      <trkpt lat="49.18643" lon="2.34091">
        <ele>80</ele>
        <time>2011-11-06T10:29:57Z</time>
      </trkpt>
      <trkpt lat="49.18632" lon="2.34079">
        <ele>80</ele>
        <time>2011-11-06T10:29:58Z</time>
      </trkpt>
      <trkpt lat="49.1862" lon="2.34066">
        <ele>80</ele>
        <time>2011-11-06T10:29:59Z</time>
      </trkpt>
      <trkpt lat="49.18608" lon="2.34053">
        <ele>80</ele>
        <time>2011-11-06T10:30:00Z</time>
      </trkpt>
      <trkpt lat="49.18595" lon="2.3404">
        <ele>80</ele>
        <time>2011-11-06T10:30:01Z</time>
      </trkpt>
      <trkpt lat="49.18583" lon="2.34026">
        <ele>80</ele>
        <time>2011-11-06T10:30:02Z</time>
      </trkpt>
      <trkpt lat="49.18572" lon="2.34015">
        <ele>80</ele>
        <time>2011-11-06T10:30:03Z</time>
      </trkpt>
      <trkpt lat="49.18562" lon="2.34004">
        <ele>80</ele>
        <time>2011-11-06T10:30:04Z</time>
      </trkpt>
      <trkpt lat="49.18553" lon="2.33993">
        <ele>80</ele>
        <time>2011-11-06T10:30:05Z</time>
      </trkpt>
      <trkpt lat="49.18545" lon="2.33984">
        <ele>80</ele>
        <time>2011-11-06T10:30:06Z</time>
      </trkpt>
      <trkpt lat="49.18536" lon="2.33975">
        <ele>80</ele>
        <time>2011-11-06T10:30:07Z</time>
      </trkpt>
      <trkpt lat="49.18529" lon="2.33967">
        <ele>80</ele>
        <time>2011-11-06T10:30:08Z</time>
      </trkpt>
      <trkpt lat="49.18514" lon="2.33951">
        <ele>80</ele>
        <time>2011-11-06T10:30:10Z</time>
      </trkpt>
      <trkpt lat="49.185" lon="2.33936">
        <ele>80</ele>
        <time>2011-11-06T10:30:12Z</time>
      </trkpt>
      <trkpt lat="49.18489" lon="2.33923">
        <ele>80</ele>
        <time>2011-11-06T10:30:14Z</time>
      </trkpt>
      <trkpt lat="49.1848" lon="2.33913">
        <ele>80</ele>
        <time>2011-11-06T10:30:16Z</time>
      </trkpt>
      <trkpt lat="49.1847" lon="2.33902">
        <ele>80</ele>
        <time>2011-11-06T10:30:19Z</time>
      </trkpt>
      <trkpt lat="49.18461" lon="2.33893">
        <ele>80</ele>
        <time>2011-11-06T10:30:22Z</time>
      </trkpt>
      <trkpt lat="49.18453" lon="2.33885">
        <ele>80</ele>
        <time>2011-11-06T10:30:25Z</time>
      </trkpt>
      <trkpt lat="49.18445" lon="2.33876">
        <ele>80</ele>
        <time>2011-11-06T10:30:29Z</time>
      </trkpt>
      <trkpt lat="49.18436" lon="2.33866">
        <ele>80</ele>
        <time>2011-11-06T10:30:35Z</time>
      </trkpt>
      <trkpt lat="49.18426" lon="2.33856">
        <ele>80</ele>
        <time>2011-11-06T10:30:38Z</time>
      </trkpt>
      <trkpt lat="49.18424" lon="2.33842">
        <ele>80</ele>
        <time>2011-11-06T10:30:41Z</time>
      </trkpt>
      <trkpt lat="49.1843" lon="2.33832">
        <ele>80</ele>
        <time>2011-11-06T10:30:43Z</time>
      </trkpt>
      <trkpt lat="49.18441" lon="2.33818">
        <ele>75</ele>
        <time>2011-11-06T10:30:45Z</time>
      </trkpt>
      <trkpt lat="49.18456" lon="2.338">
        <ele>75</ele>
        <time>2011-11-06T10:30:47Z</time>
      </trkpt>
      <trkpt lat="49.18464" lon="2.33789">
        <ele>75</ele>
        <time>2011-11-06T10:30:48Z</time>
      </trkpt>
      <trkpt lat="49.18472" lon="2.33779">
        <ele>75</ele>
        <time>2011-11-06T10:30:49Z</time>
      </trkpt>
      <trkpt lat="49.18482" lon="2.33766">
        <ele>75</ele>
        <time>2011-11-06T10:30:50Z</time>
      </trkpt>
      <trkpt lat="49.18491" lon="2.33754">
        <ele>75</ele>
        <time>2011-11-06T10:30:51Z</time>
      </trkpt>
      <trkpt lat="49.185" lon="2.33742">
        <ele>75</ele>
        <time>2011-11-06T10:30:52Z</time>
      </trkpt>
      <trkpt lat="49.1851" lon="2.33728">
        <ele>75</ele>
        <time>2011-11-06T10:30:53Z</time>
      </trkpt>
      <trkpt lat="49.1852" lon="2.33715">
        <ele>75</ele>
        <time>2011-11-06T10:30:54Z</time>
      </trkpt>
      <trkpt lat="49.18529" lon="2.33703">
        <ele>75</ele>
        <time>2011-11-06T10:30:55Z</time>
      </trkpt>
      <trkpt lat="49.18538" lon="2.33691">
        <ele>75</ele>
        <time>2011-11-06T10:30:56Z</time>
      </trkpt>
      <trkpt lat="49.18546" lon="2.33681">
        <ele>75</ele>
        <time>2011-11-06T10:30:57Z</time>
      </trkpt>
      <trkpt lat="49.18554" lon="2.33671">
        <ele>75</ele>
        <time>2011-11-06T10:30:58Z</time>
      </trkpt>
      <trkpt lat="49.18561" lon="2.33661">
        <ele>75</ele>
        <time>2011-11-06T10:30:59Z</time>
      </trkpt>
      <trkpt lat="49.18568" lon="2.33651">
        <ele>75</ele>
        <time>2011-11-06T10:31:00Z</time>
      </trkpt>
      <trkpt lat="49.18581" lon="2.33634">
        <ele>75</ele>
        <time>2011-11-06T10:31:02Z</time>
      </trkpt>
      <trkpt lat="49.18593" lon="2.33616">
        <ele>75</ele>
        <time>2011-11-06T10:31:04Z</time>
      </trkpt>
      <trkpt lat="49.18604" lon="2.33599">
        <ele>75</ele>
        <time>2011-11-06T10:31:06Z</time>
      </trkpt>
      <trkpt lat="49.18613" lon="2.33584">
        <ele>75</ele>
        <time>2011-11-06T10:31:08Z</time>
      </trkpt>
      <trkpt lat="49.18623" lon="2.33568">
        <ele>75</ele>
        <time>2011-11-06T10:31:10Z</time>
      </trkpt>
      <trkpt lat="49.18633" lon="2.33553">
        <ele>75</ele>
        <time>2011-11-06T10:31:12Z</time>
      </trkpt>
      <trkpt lat="49.18643" lon="2.33536">
        <ele>75</ele>
        <time>2011-11-06T10:31:14Z</time>
      </trkpt>
      <trkpt lat="49.18653" lon="2.33519">
        <ele>75</ele>
        <time>2011-11-06T10:31:16Z</time>
      </trkpt>
      <trkpt lat="49.18665" lon="2.33501">
        <ele>75</ele>
        <time>2011-11-06T10:31:18Z</time>
      </trkpt>
      <trkpt lat="49.18675" lon="2.33484">
        <ele>75</ele>
        <time>2011-11-06T10:31:20Z</time>
      </trkpt>
      <trkpt lat="49.18687" lon="2.33466">
        <ele>75</ele>
        <time>2011-11-06T10:31:22Z</time>
      </trkpt>
      <trkpt lat="49.18699" lon="2.33446">
        <ele>75</ele>
        <time>2011-11-06T10:31:24Z</time>
      </trkpt>
      <trkpt lat="49.18706" lon="2.33436">
        <ele>75</ele>
        <time>2011-11-06T10:31:25Z</time>
      </trkpt>
      <trkpt lat="49.18714" lon="2.33425">
        <ele>75</ele>
        <time>2011-11-06T10:31:26Z</time>
      </trkpt>
      <trkpt lat="49.18721" lon="2.33414">
        <ele>75</ele>
        <time>2011-11-06T10:31:27Z</time>
      </trkpt>
      <trkpt lat="49.18729" lon="2.33402">
        <ele>75</ele>
        <time>2011-11-06T10:31:28Z</time>
      </trkpt>
      <trkpt lat="49.18737" lon="2.33391">
        <ele>75</ele>
        <time>2011-11-06T10:31:29Z</time>
      </trkpt>
      <trkpt lat="49.18746" lon="2.3338">
        <ele>75</ele>
        <time>2011-11-06T10:31:30Z</time>
      </trkpt>
      <trkpt lat="49.18756" lon="2.3337">
        <ele>75</ele>
        <time>2011-11-06T10:31:31Z</time>
      </trkpt>
      <trkpt lat="49.18766" lon="2.3336">
        <ele>75</ele>
        <time>2011-11-06T10:31:32Z</time>
      </trkpt>
      <trkpt lat="49.18777" lon="2.33351">
        <ele>75</ele>
        <time>2011-11-06T10:31:33Z</time>
      </trkpt>
      <trkpt lat="49.18788" lon="2.33344">
        <ele>75</ele>
        <time>2011-11-06T10:31:34Z</time>
      </trkpt>
      <trkpt lat="49.18799" lon="2.33337">
        <ele>69</ele>
        <time>2011-11-06T10:31:35Z</time>
      </trkpt>
      <trkpt lat="49.18811" lon="2.3333">
        <ele>69</ele>
        <time>2011-11-06T10:31:36Z</time>
      </trkpt>
      <trkpt lat="49.18822" lon="2.33324">
        <ele>69</ele>
        <time>2011-11-06T10:31:37Z</time>
      </trkpt>
      <trkpt lat="49.18834" lon="2.33318">
        <ele>69</ele>
        <time>2011-11-06T10:31:38Z</time>
      </trkpt>
      <trkpt lat="49.18846" lon="2.33312">
        <ele>69</ele>
        <time>2011-11-06T10:31:39Z</time>
      </trkpt>
      <trkpt lat="49.18858" lon="2.33306">
        <ele>69</ele>
        <time>2011-11-06T10:31:40Z</time>
      </trkpt>
      <trkpt lat="49.18871" lon="2.333">
        <ele>63</ele>
        <time>2011-11-06T10:31:41Z</time>
      </trkpt>
      <trkpt lat="49.18883" lon="2.33293">
        <ele>63</ele>
        <time>2011-11-06T10:31:42Z</time>
      </trkpt>
      <trkpt lat="49.18896" lon="2.33286">
        <ele>63</ele>
        <time>2011-11-06T10:31:43Z</time>
      </trkpt>
      <trkpt lat="49.18908" lon="2.33278">
        <ele>63</ele>
        <time>2011-11-06T10:31:44Z</time>
      </trkpt>
      <trkpt lat="49.18921" lon="2.33269">
        <ele>63</ele>
        <time>2011-11-06T10:31:45Z</time>
      </trkpt>
      <trkpt lat="49.18933" lon="2.3326">
        <ele>63</ele>
        <time>2011-11-06T10:31:46Z</time>
      </trkpt>
      <trkpt lat="49.18946" lon="2.3325">
        <ele>57</ele>
        <time>2011-11-06T10:31:47Z</time>
      </trkpt>
      <trkpt lat="49.18958" lon="2.33239">
        <ele>57</ele>
        <time>2011-11-06T10:31:48Z</time>
      </trkpt>
      <trkpt lat="49.18969" lon="2.33226">
        <ele>57</ele>
        <time>2011-11-06T10:31:49Z</time>
      </trkpt>
      <trkpt lat="49.18981" lon="2.33214">
        <ele>57</ele>
        <time>2011-11-06T10:31:50Z</time>
      </trkpt>
      <trkpt lat="49.18993" lon="2.33202">
        <ele>57</ele>
        <time>2011-11-06T10:31:51Z</time>
      </trkpt>
      <trkpt lat="49.19004" lon="2.33189">
        <ele>57</ele>
        <time>2011-11-06T10:31:52Z</time>
      </trkpt>
      <trkpt lat="49.19015" lon="2.33178">
        <ele>57</ele>
        <time>2011-11-06T10:31:53Z</time>
      </trkpt>
      <trkpt lat="49.19026" lon="2.33165">
        <ele>57</ele>
        <time>2011-11-06T10:31:54Z</time>
      </trkpt>
      <trkpt lat="49.19037" lon="2.33152">
        <ele>57</ele>
        <time>2011-11-06T10:31:55Z</time>
      </trkpt>
      <trkpt lat="49.19048" lon="2.33139">
        <ele>57</ele>
        <time>2011-11-06T10:31:56Z</time>
      </trkpt>
      <trkpt lat="49.19059" lon="2.33125">
        <ele>57</ele>
        <time>2011-11-06T10:31:57Z</time>
      </trkpt>
      <trkpt lat="49.1907" lon="2.3311">
        <ele>52</ele>
        <time>2011-11-06T10:31:58Z</time>
      </trkpt>
      <trkpt lat="49.19082" lon="2.33095">
        <ele>52</ele>
        <time>2011-11-06T10:31:59Z</time>
      </trkpt>
      <trkpt lat="49.19093" lon="2.3308">
        <ele>52</ele>
        <time>2011-11-06T10:32:00Z</time>
      </trkpt>
      <trkpt lat="49.19104" lon="2.33064">
        <ele>52</ele>
        <time>2011-11-06T10:32:01Z</time>
      </trkpt>
      <trkpt lat="49.19115" lon="2.3305">
        <ele>52</ele>
        <time>2011-11-06T10:32:02Z</time>
      </trkpt>
      <trkpt lat="49.19126" lon="2.33035">
        <ele>52</ele>
        <time>2011-11-06T10:32:03Z</time>
      </trkpt>
      <trkpt lat="49.19137" lon="2.33019">
        <ele>52</ele>
        <time>2011-11-06T10:32:04Z</time>
      </trkpt>
      <trkpt lat="49.19149" lon="2.33003">
        <ele>52</ele>
        <time>2011-11-06T10:32:05Z</time>
      </trkpt>
      <trkpt lat="49.19159" lon="2.32988">
        <ele>52</ele>
        <time>2011-11-06T10:32:06Z</time>
      </trkpt>
      <trkpt lat="49.19169" lon="2.32973">
        <ele>52</ele>
        <time>2011-11-06T10:32:07Z</time>
      </trkpt>
      <trkpt lat="49.19179" lon="2.32957">
        <ele>52</ele>
        <time>2011-11-06T10:32:08Z</time>
      </trkpt>
      <trkpt lat="49.19189" lon="2.32942">
        <ele>52</ele>
        <time>2011-11-06T10:32:09Z</time>
      </trkpt>
      <trkpt lat="49.19199" lon="2.32926">
        <ele>52</ele>
        <time>2011-11-06T10:32:10Z</time>
      </trkpt>
      <trkpt lat="49.19209" lon="2.32911">
        <ele>52</ele>
        <time>2011-11-06T10:32:11Z</time>
      </trkpt>
      <trkpt lat="49.19219" lon="2.32895">
        <ele>52</ele>
        <time>2011-11-06T10:32:12Z</time>
      </trkpt>
      <trkpt lat="49.1923" lon="2.32881">
        <ele>52</ele>
        <time>2011-11-06T10:32:13Z</time>
      </trkpt>
      <trkpt lat="49.1924" lon="2.32869">
        <ele>52</ele>
        <time>2011-11-06T10:32:14Z</time>
      </trkpt>
      <trkpt lat="49.19251" lon="2.32856">
        <ele>52</ele>
        <time>2011-11-06T10:32:15Z</time>
      </trkpt>
      <trkpt lat="49.19263" lon="2.32846">
        <ele>52</ele>
        <time>2011-11-06T10:32:16Z</time>
      </trkpt>
      <trkpt lat="49.19276" lon="2.32837">
        <ele>52</ele>
        <time>2011-11-06T10:32:17Z</time>
      </trkpt>
      <trkpt lat="49.19288" lon="2.32829">
        <ele>52</ele>
        <time>2011-11-06T10:32:18Z</time>
      </trkpt>
      <trkpt lat="49.19301" lon="2.32823">
        <ele>52</ele>
        <time>2011-11-06T10:32:19Z</time>
      </trkpt>
      <trkpt lat="49.19313" lon="2.32818">
        <ele>52</ele>
        <time>2011-11-06T10:32:20Z</time>
      </trkpt>
      <trkpt lat="49.19325" lon="2.32816">
        <ele>52</ele>
        <time>2011-11-06T10:32:21Z</time>
      </trkpt>
      <trkpt lat="49.19336" lon="2.32815">
        <ele>52</ele>
        <time>2011-11-06T10:32:22Z</time>
      </trkpt>
      <trkpt lat="49.19352" lon="2.32813">
        <ele>52</ele>
        <time>2011-11-06T10:32:24Z</time>
      </trkpt>
      <trkpt lat="49.19364" lon="2.32806">
        <ele>52</ele>
        <time>2011-11-06T10:32:26Z</time>
      </trkpt>
      <trkpt lat="49.19369" lon="2.32788">
        <ele>52</ele>
        <time>2011-11-06T10:32:28Z</time>
      </trkpt>
      <trkpt lat="49.19371" lon="2.32763">
        <ele>58</ele>
        <time>2011-11-06T10:32:30Z</time>
      </trkpt>
      <trkpt lat="49.19372" lon="2.32748">
        <ele>58</ele>
        <time>2011-11-06T10:32:31Z</time>
      </trkpt>
      <trkpt lat="49.19374" lon="2.32732">
        <ele>58</ele>
        <time>2011-11-06T10:32:32Z</time>
      </trkpt>
      <trkpt lat="49.19375" lon="2.32714">
        <ele>58</ele>
        <time>2011-11-06T10:32:33Z</time>
      </trkpt>
      <trkpt lat="49.19377" lon="2.32696">
        <ele>58</ele>
        <time>2011-11-06T10:32:34Z</time>
      </trkpt>
      <trkpt lat="49.19379" lon="2.32677">
        <ele>58</ele>
        <time>2011-11-06T10:32:35Z</time>
      </trkpt>
      <trkpt lat="49.19382" lon="2.32658">
        <ele>58</ele>
        <time>2011-11-06T10:32:36Z</time>
      </trkpt>
      <trkpt lat="49.19385" lon="2.32639">
        <ele>58</ele>
        <time>2011-11-06T10:32:37Z</time>
      </trkpt>
      <trkpt lat="49.19387" lon="2.3262">
        <ele>58</ele>
        <time>2011-11-06T10:32:38Z</time>
      </trkpt>
      <trkpt lat="49.1939" lon="2.32601">
        <ele>58</ele>
        <time>2011-11-06T10:32:39Z</time>
      </trkpt>
      <trkpt lat="49.19392" lon="2.3258">
        <ele>58</ele>
        <time>2011-11-06T10:32:40Z</time>
      </trkpt>
      <trkpt lat="49.19394" lon="2.3256">
        <ele>58</ele>
        <time>2011-11-06T10:32:41Z</time>
      </trkpt>
      <trkpt lat="49.19396" lon="2.32541">
        <ele>58</ele>
        <time>2011-11-06T10:32:42Z</time>
      </trkpt>
      <trkpt lat="49.19396" lon="2.32521">
        <ele>58</ele>
        <time>2011-11-06T10:32:43Z</time>
      </trkpt>
      <trkpt lat="49.19395" lon="2.32501">
        <ele>58</ele>
        <time>2011-11-06T10:32:44Z</time>
      </trkpt>
      <trkpt lat="49.19394" lon="2.32481">
        <ele>58</ele>
        <time>2011-11-06T10:32:45Z</time>
      </trkpt>
      <trkpt lat="49.19392" lon="2.32462">
        <ele>58</ele>
        <time>2011-11-06T10:32:46Z</time>
      </trkpt>
      <trkpt lat="49.19391" lon="2.32442">
        <ele>58</ele>
        <time>2011-11-06T10:32:47Z</time>
      </trkpt>
      <trkpt lat="49.19389" lon="2.32422">
        <ele>58</ele>
        <time>2011-11-06T10:32:48Z</time>
      </trkpt>
      <trkpt lat="49.19388" lon="2.32402">
        <ele>63</ele>
        <time>2011-11-06T10:32:49Z</time>
      </trkpt>
      <trkpt lat="49.19386" lon="2.32384">
        <ele>63</ele>
        <time>2011-11-06T10:32:50Z</time>
      </trkpt>
      <trkpt lat="49.19386" lon="2.32366">
        <ele>63</ele>
        <time>2011-11-06T10:32:51Z</time>
      </trkpt>
      <trkpt lat="49.19385" lon="2.3235">
        <ele>63</ele>
        <time>2011-11-06T10:32:52Z</time>
      </trkpt>
      <trkpt lat="49.19383" lon="2.32335">
        <ele>63</ele>
        <time>2011-11-06T10:32:53Z</time>
      </trkpt>
      <trkpt lat="49.19382" lon="2.32318">
        <ele>63</ele>
        <time>2011-11-06T10:32:54Z</time>
      </trkpt>
      <trkpt lat="49.1938" lon="2.323">
        <ele>63</ele>
        <time>2011-11-06T10:32:55Z</time>
      </trkpt>
      <trkpt lat="49.19378" lon="2.32282">
        <ele>68</ele>
        <time>2011-11-06T10:32:56Z</time>
      </trkpt>
      <trkpt lat="49.19375" lon="2.32262">
        <ele>68</ele>
        <time>2011-11-06T10:32:57Z</time>
      </trkpt>
      <trkpt lat="49.19371" lon="2.32242">
        <ele>68</ele>
        <time>2011-11-06T10:32:58Z</time>
      </trkpt>
      <trkpt lat="49.19368" lon="2.32221">
        <ele>68</ele>
        <time>2011-11-06T10:32:59Z</time>
      </trkpt>
      <trkpt lat="49.19364" lon="2.32199">
        <ele>68</ele>
        <time>2011-11-06T10:33:00Z</time>
      </trkpt>
      <trkpt lat="49.19361" lon="2.32177">
        <ele>68</ele>
        <time>2011-11-06T10:33:01Z</time>
      </trkpt>
      <trkpt lat="49.19357" lon="2.32154">
        <ele>68</ele>
        <time>2011-11-06T10:33:02Z</time>
      </trkpt>
      <trkpt lat="49.19354" lon="2.32131">
        <ele>68</ele>
        <time>2011-11-06T10:33:03Z</time>
      </trkpt>
      <trkpt lat="49.1935" lon="2.32108">
        <ele>68</ele>
        <time>2011-11-06T10:33:04Z</time>
      </trkpt>
      <trkpt lat="49.19346" lon="2.32085">
        <ele>73</ele>
        <time>2011-11-06T10:33:05Z</time>
      </trkpt>
      <trkpt lat="49.19342" lon="2.32063">
        <ele>73</ele>
        <time>2011-11-06T10:33:06Z</time>
      </trkpt>
      <trkpt lat="49.19339" lon="2.32041">
        <ele>73</ele>
        <time>2011-11-06T10:33:07Z</time>
      </trkpt>
      <trkpt lat="49.19336" lon="2.3202">
        <ele>73</ele>
        <time>2011-11-06T10:33:08Z</time>
      </trkpt>
      <trkpt lat="49.19333" lon="2.31998">
        <ele>73</ele>
        <time>2011-11-06T10:33:09Z</time>
      </trkpt>
      <trkpt lat="49.1933" lon="2.31977">
        <ele>73</ele>
        <time>2011-11-06T10:33:10Z</time>
      </trkpt>
      <trkpt lat="49.19327" lon="2.31957">
        <ele>73</ele>
        <time>2011-11-06T10:33:11Z</time>
      </trkpt>
      <trkpt lat="49.19323" lon="2.31936">
        <ele>73</ele>
        <time>2011-11-06T10:33:12Z</time>
      </trkpt>
      <trkpt lat="49.19321" lon="2.31916">
        <ele>73</ele>
        <time>2011-11-06T10:33:13Z</time>
      </trkpt>
      <trkpt lat="49.19318" lon="2.31897">
        <ele>73</ele>
        <time>2011-11-06T10:33:14Z</time>
      </trkpt>
      <trkpt lat="49.19315" lon="2.31877">
        <ele>73</ele>
        <time>2011-11-06T10:33:15Z</time>
      </trkpt>
      <trkpt lat="49.19312" lon="2.31858">
        <ele>73</ele>
        <time>2011-11-06T10:33:16Z</time>
      </trkpt>
      <trkpt lat="49.19309" lon="2.31839">
        <ele>73</ele>
        <time>2011-11-06T10:33:17Z</time>
      </trkpt>
      <trkpt lat="49.19308" lon="2.31819">
        <ele>73</ele>
        <time>2011-11-06T10:33:18Z</time>
      </trkpt>
      <trkpt lat="49.19306" lon="2.318">
        <ele>79</ele>
        <time>2011-11-06T10:33:19Z</time>
      </trkpt>
      <trkpt lat="49.19306" lon="2.3178">
        <ele>79</ele>
        <time>2011-11-06T10:33:20Z</time>
      </trkpt>
      <trkpt lat="49.19307" lon="2.31759">
        <ele>79</ele>
        <time>2011-11-06T10:33:21Z</time>
      </trkpt>
      <trkpt lat="49.19308" lon="2.31738">
        <ele>79</ele>
        <time>2011-11-06T10:33:22Z</time>
      </trkpt>
      <trkpt lat="49.1931" lon="2.31717">
        <ele>79</ele>
        <time>2011-11-06T10:33:23Z</time>
      </trkpt>
      <trkpt lat="49.19312" lon="2.31694">
        <ele>79</ele>
        <time>2011-11-06T10:33:24Z</time>
      </trkpt>
      <trkpt lat="49.19314" lon="2.31673">
        <ele>79</ele>
        <time>2011-11-06T10:33:25Z</time>
      </trkpt>
      <trkpt lat="49.19316" lon="2.3165">
        <ele>79</ele>
        <time>2011-11-06T10:33:26Z</time>
      </trkpt>
      <trkpt lat="49.19318" lon="2.31628">
        <ele>79</ele>
        <time>2011-11-06T10:33:27Z</time>
      </trkpt>
      <trkpt lat="49.1932" lon="2.31605">
        <ele>79</ele>
        <time>2011-11-06T10:33:28Z</time>
      </trkpt>
      <trkpt lat="49.19321" lon="2.31585">
        <ele>79</ele>
        <time>2011-11-06T10:33:29Z</time>
      </trkpt>
      <trkpt lat="49.19323" lon="2.31564">
        <ele>79</ele>
        <time>2011-11-06T10:33:30Z</time>
      </trkpt>
      <trkpt lat="49.19325" lon="2.31545">
        <ele>79</ele>
        <time>2011-11-06T10:33:31Z</time>
      </trkpt>
      <trkpt lat="49.19326" lon="2.31526">
        <ele>79</ele>
        <time>2011-11-06T10:33:32Z</time>
      </trkpt>
      <trkpt lat="49.19328" lon="2.31508">
        <ele>79</ele>
        <time>2011-11-06T10:33:33Z</time>
      </trkpt>
      <trkpt lat="49.19329" lon="2.3149">
        <ele>79</ele>
        <time>2011-11-06T10:33:34Z</time>
      </trkpt>
      <trkpt lat="49.19331" lon="2.31472">
        <ele>79</ele>
        <time>2011-11-06T10:33:35Z</time>
      </trkpt>
      <trkpt lat="49.19332" lon="2.31453">
        <ele>79</ele>
        <time>2011-11-06T10:33:36Z</time>
      </trkpt>
      <trkpt lat="49.19333" lon="2.31433">
        <ele>79</ele>
        <time>2011-11-06T10:33:37Z</time>
      </trkpt>
      <trkpt lat="49.19335" lon="2.31413">
        <ele>79</ele>
        <time>2011-11-06T10:33:38Z</time>
      </trkpt>
      <trkpt lat="49.19336" lon="2.31392">
        <ele>79</ele>
        <time>2011-11-06T10:33:39Z</time>
      </trkpt>
      <trkpt lat="49.19338" lon="2.3137">
        <ele>79</ele>
        <time>2011-11-06T10:33:40Z</time>
      </trkpt>
      <trkpt lat="49.19339" lon="2.31349">
        <ele>79</ele>
        <time>2011-11-06T10:33:41Z</time>
      </trkpt>
      <trkpt lat="49.19341" lon="2.31326">
        <ele>79</ele>
        <time>2011-11-06T10:33:42Z</time>
      </trkpt>
      <trkpt lat="49.19342" lon="2.31305">
        <ele>79</ele>
        <time>2011-11-06T10:33:43Z</time>
      </trkpt>
      <trkpt lat="49.19343" lon="2.31282">
        <ele>79</ele>
        <time>2011-11-06T10:33:44Z</time>
      </trkpt>
      <trkpt lat="49.19345" lon="2.3126">
        <ele>79</ele>
        <time>2011-11-06T10:33:45Z</time>
      </trkpt>
      <trkpt lat="49.19348" lon="2.31237">
        <ele>79</ele>
        <time>2011-11-06T10:33:46Z</time>
      </trkpt>
      <trkpt lat="49.19349" lon="2.31215">
        <ele>79</ele>
        <time>2011-11-06T10:33:47Z</time>
      </trkpt>
      <trkpt lat="49.19351" lon="2.31192">
        <ele>84</ele>
        <time>2011-11-06T10:33:48Z</time>
      </trkpt>
      <trkpt lat="49.19352" lon="2.31172">
        <ele>84</ele>
        <time>2011-11-06T10:33:49Z</time>
      </trkpt>
      <trkpt lat="49.19354" lon="2.31152">
        <ele>84</ele>
        <time>2011-11-06T10:33:50Z</time>
      </trkpt>
      <trkpt lat="49.19355" lon="2.31133">
        <ele>84</ele>
        <time>2011-11-06T10:33:51Z</time>
      </trkpt>
      <trkpt lat="49.19356" lon="2.31116">
        <ele>84</ele>
        <time>2011-11-06T10:33:52Z</time>
      </trkpt>
      <trkpt lat="49.19358" lon="2.31099">
        <ele>84</ele>
        <time>2011-11-06T10:33:53Z</time>
      </trkpt>
      <trkpt lat="49.19358" lon="2.31084">
        <ele>84</ele>
        <time>2011-11-06T10:33:54Z</time>
      </trkpt>
      <trkpt lat="49.19359" lon="2.31068">
        <ele>84</ele>
        <time>2011-11-06T10:33:55Z</time>
      </trkpt>
      <trkpt lat="49.19359" lon="2.31053">
        <ele>84</ele>
        <time>2011-11-06T10:33:56Z</time>
      </trkpt>
      <trkpt lat="49.1936" lon="2.31039">
        <ele>84</ele>
        <time>2011-11-06T10:33:57Z</time>
      </trkpt>
      <trkpt lat="49.19361" lon="2.31014">
        <ele>84</ele>
        <time>2011-11-06T10:33:59Z</time>
      </trkpt>
      <trkpt lat="49.19361" lon="2.30994">
        <ele>84</ele>
        <time>2011-11-06T10:34:01Z</time>
      </trkpt>
      <trkpt lat="49.19362" lon="2.30979">
        <ele>84</ele>
        <time>2011-11-06T10:34:03Z</time>
      </trkpt>
      <trkpt lat="49.1936" lon="2.30963">
        <ele>84</ele>
        <time>2011-11-06T10:34:07Z</time>
      </trkpt>
      <trkpt lat="49.19348" lon="2.30966">
        <ele>84</ele>
        <time>2011-11-06T10:34:11Z</time>
      </trkpt>
      <trkpt lat="49.19336" lon="2.30974">
        <ele>84</ele>
        <time>2011-11-06T10:34:13Z</time>
      </trkpt>
      <trkpt lat="49.19321" lon="2.30983">
        <ele>84</ele>
        <time>2011-11-06T10:34:15Z</time>
      </trkpt>
      <trkpt lat="49.19306" lon="2.30993">
        <ele>84</ele>
        <time>2011-11-06T10:34:17Z</time>
      </trkpt>
      <trkpt lat="49.1929" lon="2.31004">
        <ele>84</ele>
        <time>2011-11-06T10:34:19Z</time>
      </trkpt>
      <trkpt lat="49.19275" lon="2.31014">
        <ele>84</ele>
        <time>2011-11-06T10:34:21Z</time>
      </trkpt>
      <trkpt lat="49.19262" lon="2.31022">
        <ele>84</ele>
        <time>2011-11-06T10:34:23Z</time>
      </trkpt>
      <trkpt lat="49.1925" lon="2.31029">
        <ele>84</ele>
        <time>2011-11-06T10:34:25Z</time>
      </trkpt>
      <trkpt lat="49.19239" lon="2.31035">
        <ele>84</ele>
        <time>2011-11-06T10:34:27Z</time>
      </trkpt>
      <trkpt lat="49.19225" lon="2.3104">
        <ele>84</ele>
        <time>2011-11-06T10:34:30Z</time>
      </trkpt>
      <trkpt lat="49.19215" lon="2.31041">
        <ele>84</ele>
        <time>2011-11-06T10:34:32Z</time>
      </trkpt>
      <trkpt lat="49.19206" lon="2.31043">
        <ele>84</ele>
        <time>2011-11-06T10:34:34Z</time>
      </trkpt>
      <trkpt lat="49.19195" lon="2.31043">
        <ele>84</ele>
        <time>2011-11-06T10:34:36Z</time>
      </trkpt>
      <trkpt lat="49.19183" lon="2.31043">
        <ele>84</ele>
        <time>2011-11-06T10:34:38Z</time>
      </trkpt>
      <trkpt lat="49.1917" lon="2.31043">
        <ele>84</ele>
        <time>2011-11-06T10:34:40Z</time>
      </trkpt>
      <trkpt lat="49.19156" lon="2.31043">
        <ele>84</ele>
        <time>2011-11-06T10:34:42Z</time>
      </trkpt>
      <trkpt lat="49.19143" lon="2.31044">
        <ele>79</ele>
        <time>2011-11-06T10:34:44Z</time>
      </trkpt>
      <trkpt lat="49.19129" lon="2.31049">
        <ele>79</ele>
        <time>2011-11-06T10:34:46Z</time>
      </trkpt>
      <trkpt lat="49.19112" lon="2.31054">
        <ele>79</ele>
        <time>2011-11-06T10:34:48Z</time>
      </trkpt>
      <trkpt lat="49.19103" lon="2.31058">
        <ele>79</ele>
        <time>2011-11-06T10:34:49Z</time>
      </trkpt>
      <trkpt lat="49.19094" lon="2.31061">
        <ele>79</ele>
        <time>2011-11-06T10:34:50Z</time>
      </trkpt>
      <trkpt lat="49.19084" lon="2.31065">
        <ele>79</ele>
        <time>2011-11-06T10:34:51Z</time>
      </trkpt>
      <trkpt lat="49.19075" lon="2.31068">
        <ele>79</ele>
        <time>2011-11-06T10:34:52Z</time>
      </trkpt>
      <trkpt lat="49.19066" lon="2.31072">
        <ele>79</ele>
        <time>2011-11-06T10:34:53Z</time>
      </trkpt>
      <trkpt lat="49.19049" lon="2.31078">
        <ele>79</ele>
        <time>2011-11-06T10:34:55Z</time>
      </trkpt>
      <trkpt lat="49.19034" lon="2.31084">
        <ele>79</ele>
        <time>2011-11-06T10:34:57Z</time>
      </trkpt>
      <trkpt lat="49.19019" lon="2.31089">
        <ele>79</ele>
        <time>2011-11-06T10:34:59Z</time>
      </trkpt>
      <trkpt lat="49.19004" lon="2.31093">
        <ele>79</ele>
        <time>2011-11-06T10:35:01Z</time>
      </trkpt>
      <trkpt lat="49.18987" lon="2.31098">
        <ele>79</ele>
        <time>2011-11-06T10:35:03Z</time>
      </trkpt>
      <trkpt lat="49.18968" lon="2.31101">
        <ele>79</ele>
        <time>2011-11-06T10:35:05Z</time>
      </trkpt>
      <trkpt lat="49.18959" lon="2.31102">
        <ele>79</ele>
        <time>2011-11-06T10:35:06Z</time>
      </trkpt>
      <trkpt lat="49.18949" lon="2.31102">
        <ele>79</ele>
        <time>2011-11-06T10:35:07Z</time>
      </trkpt>
      <trkpt lat="49.18939" lon="2.31103">
        <ele>79</ele>
        <time>2011-11-06T10:35:08Z</time>
      </trkpt>
      <trkpt lat="49.18928" lon="2.31102">
        <ele>79</ele>
        <time>2011-11-06T10:35:09Z</time>
      </trkpt>
      <trkpt lat="49.18917" lon="2.31102">
        <ele>79</ele>
        <time>2011-11-06T10:35:10Z</time>
      </trkpt>
      <trkpt lat="49.18907" lon="2.31102">
        <ele>79</ele>
        <time>2011-11-06T10:35:11Z</time>
      </trkpt>
      <trkpt lat="49.18898" lon="2.31102">
        <ele>79</ele>
        <time>2011-11-06T10:35:12Z</time>
      </trkpt>
      <trkpt lat="49.18888" lon="2.31102">
        <ele>79</ele>
        <time>2011-11-06T10:35:13Z</time>
      </trkpt>
      <trkpt lat="49.18871" lon="2.31102">
        <ele>79</ele>
        <time>2011-11-06T10:35:15Z</time>
      </trkpt>
      <trkpt lat="49.18854" lon="2.31101">
        <ele>79</ele>
        <time>2011-11-06T10:35:17Z</time>
      </trkpt>
      <trkpt lat="49.18838" lon="2.31101">
        <ele>79</ele>
        <time>2011-11-06T10:35:19Z</time>
      </trkpt>
      <trkpt lat="49.18822" lon="2.31102">
        <ele>79</ele>
        <time>2011-11-06T10:35:21Z</time>
      </trkpt>
      <trkpt lat="49.18804" lon="2.31105">
        <ele>79</ele>
        <time>2011-11-06T10:35:23Z</time>
      </trkpt>
      <trkpt lat="49.18794" lon="2.31105">
        <ele>79</ele>
        <time>2011-11-06T10:35:24Z</time>
      </trkpt>
      <trkpt lat="49.18784" lon="2.31104">
        <ele>79</ele>
        <time>2011-11-06T10:35:25Z</time>
      </trkpt>
      <trkpt lat="49.18773" lon="2.31102">
        <ele>79</ele>
        <time>2011-11-06T10:35:26Z</time>
      </trkpt>
      <trkpt lat="49.18762" lon="2.31102">
        <ele>79</ele>
        <time>2011-11-06T10:35:27Z</time>
      </trkpt>
      <trkpt lat="49.18751" lon="2.311">
        <ele>79</ele>
        <time>2011-11-06T10:35:28Z</time>
      </trkpt>
      <trkpt lat="49.1874" lon="2.31098">
        <ele>79</ele>
        <time>2011-11-06T10:35:29Z</time>
      </trkpt>
      <trkpt lat="49.18729" lon="2.31096">
        <ele>79</ele>
        <time>2011-11-06T10:35:30Z</time>
      </trkpt>
      <trkpt lat="49.18718" lon="2.31094">
        <ele>79</ele>
        <time>2011-11-06T10:35:31Z</time>
      </trkpt>
      <trkpt lat="49.18708" lon="2.31093">
        <ele>79</ele>
        <time>2011-11-06T10:35:32Z</time>
      </trkpt>
      <trkpt lat="49.18698" lon="2.31092">
        <ele>79</ele>
        <time>2011-11-06T10:35:33Z</time>
      </trkpt>
      <trkpt lat="49.18681" lon="2.31089">
        <ele>79</ele>
        <time>2011-11-06T10:35:35Z</time>
      </trkpt>
      <trkpt lat="49.18663" lon="2.31086">
        <ele>79</ele>
        <time>2011-11-06T10:35:37Z</time>
      </trkpt>
      <trkpt lat="49.18645" lon="2.31084">
        <ele>73</ele>
        <time>2011-11-06T10:35:39Z</time>
      </trkpt>
      <trkpt lat="49.18636" lon="2.31082">
        <ele>73</ele>
        <time>2011-11-06T10:35:40Z</time>
      </trkpt>
      <trkpt lat="49.18626" lon="2.31081">
        <ele>73</ele>
        <time>2011-11-06T10:35:41Z</time>
      </trkpt>
      <trkpt lat="49.18616" lon="2.31081">
        <ele>73</ele>
        <time>2011-11-06T10:35:42Z</time>
      </trkpt>
      <trkpt lat="49.18606" lon="2.3108">
        <ele>73</ele>
        <time>2011-11-06T10:35:43Z</time>
      </trkpt>
      <trkpt lat="49.18596" lon="2.31078">
        <ele>73</ele>
        <time>2011-11-06T10:35:44Z</time>
      </trkpt>
      <trkpt lat="49.18586" lon="2.31076">
        <ele>73</ele>
        <time>2011-11-06T10:35:45Z</time>
      </trkpt>
      <trkpt lat="49.18576" lon="2.31075">
        <ele>73</ele>
        <time>2011-11-06T10:35:46Z</time>
      </trkpt>
      <trkpt lat="49.18559" lon="2.3107">
        <ele>73</ele>
        <time>2011-11-06T10:35:48Z</time>
      </trkpt>
      <trkpt lat="49.18543" lon="2.31066">
        <ele>73</ele>
        <time>2011-11-06T10:35:50Z</time>
      </trkpt>
      <trkpt lat="49.18529" lon="2.3106">
        <ele>68</ele>
        <time>2011-11-06T10:35:52Z</time>
      </trkpt>
      <trkpt lat="49.18517" lon="2.31054">
        <ele>68</ele>
        <time>2011-11-06T10:35:54Z</time>
      </trkpt>
      <trkpt lat="49.18507" lon="2.31049">
        <ele>68</ele>
        <time>2011-11-06T10:35:56Z</time>
      </trkpt>
      <trkpt lat="49.18498" lon="2.31049">
        <ele>68</ele>
        <time>2011-11-06T10:35:58Z</time>
      </trkpt>
      <trkpt lat="49.1849" lon="2.31058">
        <ele>68</ele>
        <time>2011-11-06T10:36:00Z</time>
      </trkpt>
      <trkpt lat="49.18482" lon="2.31074">
        <ele>68</ele>
        <time>2011-11-06T10:36:02Z</time>
      </trkpt>
      <trkpt lat="49.18471" lon="2.31094">
        <ele>68</ele>
        <time>2011-11-06T10:36:04Z</time>
      </trkpt>
      <trkpt lat="49.18466" lon="2.31106">
        <ele>68</ele>
        <time>2011-11-06T10:36:05Z</time>
      </trkpt>
      <trkpt lat="49.1846" lon="2.31119">
        <ele>68</ele>
        <time>2011-11-06T10:36:06Z</time>
      </trkpt>
      <trkpt lat="49.18453" lon="2.31132">
        <ele>68</ele>
        <time>2011-11-06T10:36:07Z</time>
      </trkpt>
      <trkpt lat="49.18446" lon="2.31145">
        <ele>68</ele>
        <time>2011-11-06T10:36:08Z</time>
      </trkpt>
      <trkpt lat="49.18438" lon="2.31155">
        <ele>68</ele>
        <time>2011-11-06T10:36:09Z</time>
      </trkpt>
      <trkpt lat="49.18429" lon="2.31165">
        <ele>68</ele>
        <time>2011-11-06T10:36:10Z</time>
      </trkpt>
      <trkpt lat="49.1842" lon="2.31173">
        <ele>62</ele>
        <time>2011-11-06T10:36:11Z</time>
      </trkpt>
      <trkpt lat="49.1841" lon="2.3118">
        <ele>62</ele>
        <time>2011-11-06T10:36:12Z</time>
      </trkpt>
      <trkpt lat="49.184" lon="2.31186">
        <ele>62</ele>
        <time>2011-11-06T10:36:13Z</time>
      </trkpt>
      <trkpt lat="49.1839" lon="2.31192">
        <ele>62</ele>
        <time>2011-11-06T10:36:14Z</time>
      </trkpt>
      <trkpt lat="49.18381" lon="2.31199">
        <ele>62</ele>
        <time>2011-11-06T10:36:15Z</time>
      </trkpt>
      <trkpt lat="49.18373" lon="2.31206">
        <ele>62</ele>
        <time>2011-11-06T10:36:16Z</time>
      </trkpt>
      <trkpt lat="49.18358" lon="2.31219">
        <ele>62</ele>
        <time>2011-11-06T10:36:18Z</time>
      </trkpt>
      <trkpt lat="49.18348" lon="2.31232">
        <ele>62</ele>
        <time>2011-11-06T10:36:20Z</time>
      </trkpt>
      <trkpt lat="49.18339" lon="2.31237">
        <ele>62</ele>
        <time>2011-11-06T10:36:22Z</time>
      </trkpt>
      <trkpt lat="49.18328" lon="2.31224">
        <ele>62</ele>
        <time>2011-11-06T10:36:25Z</time>
      </trkpt>
      <trkpt lat="49.18318" lon="2.31209">
        <ele>62</ele>
        <time>2011-11-06T10:36:27Z</time>
      </trkpt>
      <trkpt lat="49.18307" lon="2.31192">
        <ele>62</ele>
        <time>2011-11-06T10:36:29Z</time>
      </trkpt>
      <trkpt lat="49.18294" lon="2.31173">
        <ele>62</ele>
        <time>2011-11-06T10:36:31Z</time>
      </trkpt>
      <trkpt lat="49.1828" lon="2.31155">
        <ele>62</ele>
        <time>2011-11-06T10:36:33Z</time>
      </trkpt>
      <trkpt lat="49.18272" lon="2.31145">
        <ele>62</ele>
        <time>2011-11-06T10:36:34Z</time>
      </trkpt>
      <trkpt lat="49.18265" lon="2.31135">
        <ele>62</ele>
        <time>2011-11-06T10:36:35Z</time>
      </trkpt>
      <trkpt lat="49.18258" lon="2.31125">
        <ele>62</ele>
        <time>2011-11-06T10:36:36Z</time>
      </trkpt>
      <trkpt lat="49.18252" lon="2.31115">
        <ele>62</ele>
        <time>2011-11-06T10:36:37Z</time>
      </trkpt>
      <trkpt lat="49.18245" lon="2.31105">
        <ele>57</ele>
        <time>2011-11-06T10:36:38Z</time>
      </trkpt>
      <trkpt lat="49.18231" lon="2.31086">
        <ele>57</ele>
        <time>2011-11-06T10:36:40Z</time>
      </trkpt>
      <trkpt lat="49.18225" lon="2.31076">
        <ele>57</ele>
        <time>2011-11-06T10:36:41Z</time>
      </trkpt>
      <trkpt lat="49.18211" lon="2.31058">
        <ele>57</ele>
        <time>2011-11-06T10:36:43Z</time>
      </trkpt>
      <trkpt lat="49.18199" lon="2.31041">
        <ele>57</ele>
        <time>2011-11-06T10:36:45Z</time>
      </trkpt>
      <trkpt lat="49.18186" lon="2.31025">
        <ele>57</ele>
        <time>2011-11-06T10:36:47Z</time>
      </trkpt>
      <trkpt lat="49.18175" lon="2.31009">
        <ele>57</ele>
        <time>2011-11-06T10:36:49Z</time>
      </trkpt>
      <trkpt lat="49.18162" lon="2.30994">
        <ele>57</ele>
        <time>2011-11-06T10:36:51Z</time>
      </trkpt>
      <trkpt lat="49.18151" lon="2.30979">
        <ele>57</ele>
        <time>2011-11-06T10:36:53Z</time>
      </trkpt>
      <trkpt lat="49.18141" lon="2.30966">
        <ele>57</ele>
        <time>2011-11-06T10:36:55Z</time>
      </trkpt>
      <trkpt lat="49.18133" lon="2.30954">
        <ele>57</ele>
        <time>2011-11-06T10:36:57Z</time>
      </trkpt>
      <trkpt lat="49.18125" lon="2.30944">
        <ele>57</ele>
        <time>2011-11-06T10:36:59Z</time>
      </trkpt>
      <trkpt lat="49.18115" lon="2.30934">
        <ele>57</ele>
        <time>2011-11-06T10:37:02Z</time>
      </trkpt>
      <trkpt lat="49.18108" lon="2.30916">
        <ele>57</ele>
        <time>2011-11-06T10:37:05Z</time>
      </trkpt>
      <trkpt lat="49.18109" lon="2.309">
        <ele>57</ele>
        <time>2011-11-06T10:37:07Z</time>
      </trkpt>
      <trkpt lat="49.181" lon="2.30887">
        <ele>57</ele>
        <time>2011-11-06T10:37:10Z</time>
      </trkpt>
      <trkpt lat="49.18088" lon="2.3089">
        <ele>57</ele>
        <time>2011-11-06T10:37:12Z</time>
      </trkpt>
      <trkpt lat="49.1807" lon="2.30894">
        <ele>52</ele>
        <time>2011-11-06T10:37:14Z</time>
      </trkpt>
      <trkpt lat="49.1806" lon="2.30896">
        <ele>52</ele>
        <time>2011-11-06T10:37:15Z</time>
      </trkpt>
      <trkpt lat="49.18049" lon="2.30898">
        <ele>52</ele>
        <time>2011-11-06T10:37:16Z</time>
      </trkpt>
      <trkpt lat="49.18036" lon="2.30899">
        <ele>52</ele>
        <time>2011-11-06T10:37:17Z</time>
      </trkpt>
      <trkpt lat="49.18023" lon="2.309">
        <ele>52</ele>
        <time>2011-11-06T10:37:18Z</time>
      </trkpt>
      <trkpt lat="49.1801" lon="2.30902">
        <ele>52</ele>
        <time>2011-11-06T10:37:19Z</time>
      </trkpt>
      <trkpt lat="49.17997" lon="2.30903">
        <ele>52</ele>
        <time>2011-11-06T10:37:20Z</time>
      </trkpt>
      <trkpt lat="49.17984" lon="2.30905">
        <ele>52</ele>
        <time>2011-11-06T10:37:21Z</time>
      </trkpt>
      <trkpt lat="49.17971" lon="2.30907">
        <ele>52</ele>
        <time>2011-11-06T10:37:22Z</time>
      </trkpt>
      <trkpt lat="49.17958" lon="2.30908">
        <ele>52</ele>
        <time>2011-11-06T10:37:23Z</time>
      </trkpt>
      <trkpt lat="49.17945" lon="2.30909">
        <ele>52</ele>
        <time>2011-11-06T10:37:24Z</time>
      </trkpt>
      <trkpt lat="49.17932" lon="2.30911">
        <ele>52</ele>
        <time>2011-11-06T10:37:25Z</time>
      </trkpt>
      <trkpt lat="49.1792" lon="2.30913">
        <ele>52</ele>
        <time>2011-11-06T10:37:26Z</time>
      </trkpt>
      <trkpt lat="49.17907" lon="2.30915">
        <ele>52</ele>
        <time>2011-11-06T10:37:27Z</time>
      </trkpt>
      <trkpt lat="49.17895" lon="2.30916">
        <ele>52</ele>
        <time>2011-11-06T10:37:28Z</time>
      </trkpt>
      <trkpt lat="49.17883" lon="2.30916">
        <ele>52</ele>
        <time>2011-11-06T10:37:29Z</time>
      </trkpt>
      <trkpt lat="49.17871" lon="2.30918">
        <ele>46</ele>
        <time>2011-11-06T10:37:30Z</time>
      </trkpt>
      <trkpt lat="49.17858" lon="2.30918">
        <ele>46</ele>
        <time>2011-11-06T10:37:31Z</time>
      </trkpt>
      <trkpt lat="49.17846" lon="2.30918">
        <ele>46</ele>
        <time>2011-11-06T10:37:32Z</time>
      </trkpt>
      <trkpt lat="49.17833" lon="2.30917">
        <ele>46</ele>
        <time>2011-11-06T10:37:33Z</time>
      </trkpt>
      <trkpt lat="49.1782" lon="2.30916">
        <ele>46</ele>
        <time>2011-11-06T10:37:34Z</time>
      </trkpt>
      <trkpt lat="49.17808" lon="2.30912">
        <ele>46</ele>
        <time>2011-11-06T10:37:35Z</time>
      </trkpt>
      <trkpt lat="49.17796" lon="2.30908">
        <ele>46</ele>
        <time>2011-11-06T10:37:36Z</time>
      </trkpt>
      <trkpt lat="49.17785" lon="2.30902">
        <ele>46</ele>
        <time>2011-11-06T10:37:37Z</time>
      </trkpt>
      <trkpt lat="49.17775" lon="2.30898">
        <ele>46</ele>
        <time>2011-11-06T10:37:38Z</time>
      </trkpt>
      <trkpt lat="49.17766" lon="2.30893">
        <ele>46</ele>
        <time>2011-11-06T10:37:39Z</time>
      </trkpt>
      <trkpt lat="49.17757" lon="2.30889">
        <ele>46</ele>
        <time>2011-11-06T10:37:40Z</time>
      </trkpt>
      <trkpt lat="49.17749" lon="2.30882">
        <ele>46</ele>
        <time>2011-11-06T10:37:41Z</time>
      </trkpt>
      <trkpt lat="49.17741" lon="2.30876">
        <ele>46</ele>
        <time>2011-11-06T10:37:42Z</time>
      </trkpt>
      <trkpt lat="49.17732" lon="2.30868">
        <ele>46</ele>
        <time>2011-11-06T10:37:43Z</time>
      </trkpt>
      <trkpt lat="49.17722" lon="2.30858">
        <ele>46</ele>
        <time>2011-11-06T10:37:44Z</time>
      </trkpt>
      <trkpt lat="49.17713" lon="2.30848">
        <ele>46</ele>
        <time>2011-11-06T10:37:45Z</time>
      </trkpt>
      <trkpt lat="49.17703" lon="2.30837">
        <ele>46</ele>
        <time>2011-11-06T10:37:46Z</time>
      </trkpt>
      <trkpt lat="49.17693" lon="2.30826">
        <ele>46</ele>
        <time>2011-11-06T10:37:47Z</time>
      </trkpt>
      <trkpt lat="49.17682" lon="2.30813">
        <ele>46</ele>
        <time>2011-11-06T10:37:48Z</time>
      </trkpt>
      <trkpt lat="49.17671" lon="2.30801">
        <ele>46</ele>
        <time>2011-11-06T10:37:49Z</time>
      </trkpt>
      <trkpt lat="49.17659" lon="2.30787">
        <ele>46</ele>
        <time>2011-11-06T10:37:50Z</time>
      </trkpt>
      <trkpt lat="49.17648" lon="2.30773">
        <ele>46</ele>
        <time>2011-11-06T10:37:51Z</time>
      </trkpt>
      <trkpt lat="49.17637" lon="2.30758">
        <ele>46</ele>
        <time>2011-11-06T10:37:52Z</time>
      </trkpt>
      <trkpt lat="49.17628" lon="2.30745">
        <ele>46</ele>
        <time>2011-11-06T10:37:53Z</time>
      </trkpt>
      <trkpt lat="49.17618" lon="2.30731">
        <ele>46</ele>
        <time>2011-11-06T10:37:54Z</time>
      </trkpt>
      <trkpt lat="49.17608" lon="2.30718">
        <ele>46</ele>
        <time>2011-11-06T10:37:55Z</time>
      </trkpt>
      <trkpt lat="49.17598" lon="2.30706">
        <ele>46</ele>
        <time>2011-11-06T10:37:56Z</time>
      </trkpt>
      <trkpt lat="49.17589" lon="2.30695">
        <ele>46</ele>
        <time>2011-11-06T10:37:57Z</time>
      </trkpt>
      <trkpt lat="49.17579" lon="2.30684">
        <ele>46</ele>
        <time>2011-11-06T10:37:58Z</time>
      </trkpt>
      <trkpt lat="49.17569" lon="2.30673">
        <ele>46</ele>
        <time>2011-11-06T10:37:59Z</time>
      </trkpt>
      <trkpt lat="49.1756" lon="2.30663">
        <ele>41</ele>
        <time>2011-11-06T10:38:00Z</time>
      </trkpt>
      <trkpt lat="49.1755" lon="2.30651">
        <ele>41</ele>
        <time>2011-11-06T10:38:01Z</time>
      </trkpt>
      <trkpt lat="49.1754" lon="2.3064">
        <ele>41</ele>
        <time>2011-11-06T10:38:02Z</time>
      </trkpt>
      <trkpt lat="49.1753" lon="2.30628">
        <ele>41</ele>
        <time>2011-11-06T10:38:03Z</time>
      </trkpt>
      <trkpt lat="49.17522" lon="2.30616">
        <ele>41</ele>
        <time>2011-11-06T10:38:04Z</time>
      </trkpt>
      <trkpt lat="49.17515" lon="2.30607">
        <ele>41</ele>
        <time>2011-11-06T10:38:05Z</time>
      </trkpt>
      <trkpt lat="49.17507" lon="2.30597">
        <ele>41</ele>
        <time>2011-11-06T10:38:06Z</time>
      </trkpt>
      <trkpt lat="49.17494" lon="2.30581">
        <ele>41</ele>
        <time>2011-11-06T10:38:08Z</time>
      </trkpt>
      <trkpt lat="49.17481" lon="2.3057">
        <ele>41</ele>
        <time>2011-11-06T10:38:10Z</time>
      </trkpt>
      <trkpt lat="49.1747" lon="2.30554">
        <ele>41</ele>
        <time>2011-11-06T10:38:12Z</time>
      </trkpt>
      <trkpt lat="49.17459" lon="2.30537">
        <ele>41</ele>
        <time>2011-11-06T10:38:14Z</time>
      </trkpt>
      <trkpt lat="49.17446" lon="2.30522">
        <ele>41</ele>
        <time>2011-11-06T10:38:16Z</time>
      </trkpt>
      <trkpt lat="49.17433" lon="2.30509">
        <ele>41</ele>
        <time>2011-11-06T10:38:18Z</time>
      </trkpt>
      <trkpt lat="49.17419" lon="2.30497">
        <ele>41</ele>
        <time>2011-11-06T10:38:20Z</time>
      </trkpt>
      <trkpt lat="49.17404" lon="2.30483">
        <ele>41</ele>
        <time>2011-11-06T10:38:22Z</time>
      </trkpt>
      <trkpt lat="49.1739" lon="2.30465">
        <ele>41</ele>
        <time>2011-11-06T10:38:24Z</time>
      </trkpt>
      <trkpt lat="49.17383" lon="2.30456">
        <ele>41</ele>
        <time>2011-11-06T10:38:25Z</time>
      </trkpt>
      <trkpt lat="49.17374" lon="2.30447">
        <ele>41</ele>
        <time>2011-11-06T10:38:26Z</time>
      </trkpt>
      <trkpt lat="49.17366" lon="2.30439">
        <ele>41</ele>
        <time>2011-11-06T10:38:27Z</time>
      </trkpt>
      <trkpt lat="49.17357" lon="2.3043">
        <ele>41</ele>
        <time>2011-11-06T10:38:28Z</time>
      </trkpt>
      <trkpt lat="49.17348" lon="2.30421">
        <ele>41</ele>
        <time>2011-11-06T10:38:29Z</time>
      </trkpt>
      <trkpt lat="49.1734" lon="2.3041">
        <ele>41</ele>
        <time>2011-11-06T10:38:30Z</time>
      </trkpt>
      <trkpt lat="49.17331" lon="2.304">
        <ele>41</ele>
        <time>2011-11-06T10:38:31Z</time>
      </trkpt>
      <trkpt lat="49.17321" lon="2.30389">
        <ele>41</ele>
        <time>2011-11-06T10:38:32Z</time>
      </trkpt>
      <trkpt lat="49.17311" lon="2.30378">
        <ele>41</ele>
        <time>2011-11-06T10:38:33Z</time>
      </trkpt>
      <trkpt lat="49.173" lon="2.30367">
        <ele>41</ele>
        <time>2011-11-06T10:38:34Z</time>
      </trkpt>
      <trkpt lat="49.1729" lon="2.30354">
        <ele>41</ele>
        <time>2011-11-06T10:38:35Z</time>
      </trkpt>
      <trkpt lat="49.1728" lon="2.30342">
        <ele>41</ele>
        <time>2011-11-06T10:38:36Z</time>
      </trkpt>
      <trkpt lat="49.1727" lon="2.3033">
        <ele>41</ele>
        <time>2011-11-06T10:38:37Z</time>
      </trkpt>
      <trkpt lat="49.17261" lon="2.30317">
        <ele>41</ele>
        <time>2011-11-06T10:38:38Z</time>
      </trkpt>
      <trkpt lat="49.17251" lon="2.30307">
        <ele>41</ele>
        <time>2011-11-06T10:38:39Z</time>
      </trkpt>
      <trkpt lat="49.17242" lon="2.30297">
        <ele>41</ele>
        <time>2011-11-06T10:38:40Z</time>
      </trkpt>
      <trkpt lat="49.17233" lon="2.30287">
        <ele>41</ele>
        <time>2011-11-06T10:38:41Z</time>
      </trkpt>
      <trkpt lat="49.17224" lon="2.30277">
        <ele>41</ele>
        <time>2011-11-06T10:38:42Z</time>
      </trkpt>
      <trkpt lat="49.17216" lon="2.30267">
        <ele>41</ele>
        <time>2011-11-06T10:38:43Z</time>
      </trkpt>
      <trkpt lat="49.17207" lon="2.30256">
        <ele>41</ele>
        <time>2011-11-06T10:38:44Z</time>
      </trkpt>
      <trkpt lat="49.17198" lon="2.30246">
        <ele>41</ele>
        <time>2011-11-06T10:38:45Z</time>
      </trkpt>
      <trkpt lat="49.17189" lon="2.30236">
        <ele>41</ele>
        <time>2011-11-06T10:38:46Z</time>
      </trkpt>
      <trkpt lat="49.1718" lon="2.30227">
        <ele>41</ele>
        <time>2011-11-06T10:38:47Z</time>
      </trkpt>
      <trkpt lat="49.17171" lon="2.30217">
        <ele>41</ele>
        <time>2011-11-06T10:38:48Z</time>
      </trkpt>
      <trkpt lat="49.17163" lon="2.30208">
        <ele>41</ele>
        <time>2011-11-06T10:38:49Z</time>
      </trkpt>
      <trkpt lat="49.17149" lon="2.30193">
        <ele>41</ele>
        <time>2011-11-06T10:38:51Z</time>
      </trkpt>
      <trkpt lat="49.17136" lon="2.3018">
        <ele>41</ele>
        <time>2011-11-06T10:38:53Z</time>
      </trkpt>
      <trkpt lat="49.17125" lon="2.30167">
        <ele>41</ele>
        <time>2011-11-06T10:38:55Z</time>
      </trkpt>
      <trkpt lat="49.17116" lon="2.30157">
        <ele>41</ele>
        <time>2011-11-06T10:38:57Z</time>
      </trkpt>
      <trkpt lat="49.17108" lon="2.30147">
        <ele>41</ele>
        <time>2011-11-06T10:38:59Z</time>
      </trkpt>
      <trkpt lat="49.17099" lon="2.30139">
        <ele>41</ele>
        <time>2011-11-06T10:39:01Z</time>
      </trkpt>
      <trkpt lat="49.1709" lon="2.30129">
        <ele>41</ele>
        <time>2011-11-06T10:39:04Z</time>
      </trkpt>
      <trkpt lat="49.17085" lon="2.30113">
        <ele>41</ele>
        <time>2011-11-06T10:39:08Z</time>
      </trkpt>
      <trkpt lat="49.17095" lon="2.30104">
        <ele>41</ele>
        <time>2011-11-06T10:40:40Z</time>
      </trkpt>
      <trkpt lat="49.17104" lon="2.3009">
        <ele>41</ele>
        <time>2011-11-06T10:40:43Z</time>
      </trkpt>
      <trkpt lat="49.17111" lon="2.3008">
        <ele>41</ele>
        <time>2011-11-06T10:40:45Z</time>
      </trkpt>
      <trkpt lat="49.17121" lon="2.30067">
        <ele>41</ele>
        <time>2011-11-06T10:40:47Z</time>
      </trkpt>
      <trkpt lat="49.17132" lon="2.30051">
        <ele>41</ele>
        <time>2011-11-06T10:40:49Z</time>
      </trkpt>
      <trkpt lat="49.17144" lon="2.30037">
        <ele>41</ele>
        <time>2011-11-06T10:40:51Z</time>
      </trkpt>
      <trkpt lat="49.17156" lon="2.3002">
        <ele>41</ele>
        <time>2011-11-06T10:40:53Z</time>
      </trkpt>
      <trkpt lat="49.1717" lon="2.30002">
        <ele>41</ele>
        <time>2011-11-06T10:40:55Z</time>
      </trkpt>
      <trkpt lat="49.17182" lon="2.29985">
        <ele>41</ele>
        <time>2011-11-06T10:40:57Z</time>
      </trkpt>
      <trkpt lat="49.17191" lon="2.29967">
        <ele>41</ele>
        <time>2011-11-06T10:40:59Z</time>
      </trkpt>
      <trkpt lat="49.17196" lon="2.29948">
        <ele>41</ele>
        <time>2011-11-06T10:41:01Z</time>
      </trkpt>
      <trkpt lat="49.17199" lon="2.29926">
        <ele>41</ele>
        <time>2011-11-06T10:41:03Z</time>
      </trkpt>
      <trkpt lat="49.17201" lon="2.299">
        <ele>36</ele>
        <time>2011-11-06T10:41:05Z</time>
      </trkpt>
      <trkpt lat="49.17204" lon="2.29874">
        <ele>36</ele>
        <time>2011-11-06T10:41:07Z</time>
      </trkpt>
      <trkpt lat="49.17206" lon="2.29847">
        <ele>36</ele>
        <time>2011-11-06T10:41:09Z</time>
      </trkpt>
      <trkpt lat="49.17208" lon="2.29821">
        <ele>36</ele>
        <time>2011-11-06T10:41:11Z</time>
      </trkpt>
      <trkpt lat="49.17211" lon="2.29795">
        <ele>36</ele>
        <time>2011-11-06T10:41:13Z</time>
      </trkpt>
      <trkpt lat="49.17213" lon="2.29771">
        <ele>36</ele>
        <time>2011-11-06T10:41:15Z</time>
      </trkpt>
      <trkpt lat="49.17215" lon="2.2975">
        <ele>36</ele>
        <time>2011-11-06T10:41:17Z</time>
      </trkpt>
      <trkpt lat="49.17216" lon="2.29732">
        <ele>36</ele>
        <time>2011-11-06T10:41:19Z</time>
      </trkpt>
      <trkpt lat="49.17218" lon="2.29716">
        <ele>36</ele>
        <time>2011-11-06T10:41:21Z</time>
      </trkpt>
      <trkpt lat="49.17219" lon="2.29697">
        <ele>36</ele>
        <time>2011-11-06T10:41:24Z</time>
      </trkpt>
      <trkpt lat="49.17219" lon="2.2968">
        <ele>36</ele>
        <time>2011-11-06T10:41:26Z</time>
      </trkpt>
      <trkpt lat="49.17221" lon="2.29658">
        <ele>36</ele>
        <time>2011-11-06T10:41:28Z</time>
      </trkpt>
      <trkpt lat="49.17224" lon="2.29633">
        <ele>36</ele>
        <time>2011-11-06T10:41:30Z</time>
      </trkpt>
      <trkpt lat="49.17226" lon="2.29608">
        <ele>36</ele>
        <time>2011-11-06T10:41:32Z</time>
      </trkpt>
      <trkpt lat="49.17228" lon="2.29584">
        <ele>36</ele>
        <time>2011-11-06T10:41:34Z</time>
      </trkpt>
      <trkpt lat="49.17231" lon="2.29557">
        <ele>36</ele>
        <time>2011-11-06T10:41:36Z</time>
      </trkpt>
      <trkpt lat="49.17232" lon="2.29542">
        <ele>36</ele>
        <time>2011-11-06T10:41:37Z</time>
      </trkpt>
      <trkpt lat="49.17233" lon="2.29527">
        <ele>36</ele>
        <time>2011-11-06T10:41:38Z</time>
      </trkpt>
      <trkpt lat="49.17235" lon="2.29511">
        <ele>36</ele>
        <time>2011-11-06T10:41:39Z</time>
      </trkpt>
      <trkpt lat="49.17237" lon="2.29494">
        <ele>36</ele>
        <time>2011-11-06T10:41:40Z</time>
      </trkpt>
      <trkpt lat="49.17238" lon="2.29479">
        <ele>36</ele>
        <time>2011-11-06T10:41:41Z</time>
      </trkpt>
      <trkpt lat="49.17241" lon="2.29464">
        <ele>36</ele>
        <time>2011-11-06T10:41:42Z</time>
      </trkpt>
      <trkpt lat="49.17244" lon="2.29449">
        <ele>36</ele>
        <time>2011-11-06T10:41:43Z</time>
      </trkpt>
      <trkpt lat="49.17248" lon="2.29435">
        <ele>36</ele>
        <time>2011-11-06T10:41:44Z</time>
      </trkpt>
      <trkpt lat="49.17258" lon="2.29412">
        <ele>36</ele>
        <time>2011-11-06T10:41:46Z</time>
      </trkpt>
      <trkpt lat="49.17263" lon="2.294">
        <ele>36</ele>
        <time>2011-11-06T10:41:47Z</time>
      </trkpt>
      <trkpt lat="49.17269" lon="2.29389">
        <ele>36</ele>
        <time>2011-11-06T10:41:48Z</time>
      </trkpt>
      <trkpt lat="49.1728" lon="2.29368">
        <ele>36</ele>
        <time>2011-11-06T10:41:50Z</time>
      </trkpt>
      <trkpt lat="49.17285" lon="2.29356">
        <ele>36</ele>
        <time>2011-11-06T10:41:51Z</time>
      </trkpt>
      <trkpt lat="49.17291" lon="2.29344">
        <ele>36</ele>
        <time>2011-11-06T10:41:52Z</time>
      </trkpt>
      <trkpt lat="49.17297" lon="2.29332">
        <ele>36</ele>
        <time>2011-11-06T10:41:53Z</time>
      </trkpt>
      <trkpt lat="49.17304" lon="2.29318">
        <ele>36</ele>
        <time>2011-11-06T10:41:54Z</time>
      </trkpt>
      <trkpt lat="49.1731" lon="2.29305">
        <ele>36</ele>
        <time>2011-11-06T10:41:55Z</time>
      </trkpt>
      <trkpt lat="49.17317" lon="2.29291">
        <ele>36</ele>
        <time>2011-11-06T10:41:56Z</time>
      </trkpt>
      <trkpt lat="49.17324" lon="2.29277">
        <ele>36</ele>
        <time>2011-11-06T10:41:57Z</time>
      </trkpt>
      <trkpt lat="49.1733" lon="2.29263">
        <ele>36</ele>
        <time>2011-11-06T10:41:58Z</time>
      </trkpt>
      <trkpt lat="49.17337" lon="2.29249">
        <ele>36</ele>
        <time>2011-11-06T10:41:59Z</time>
      </trkpt>
      <trkpt lat="49.17343" lon="2.29236">
        <ele>36</ele>
        <time>2011-11-06T10:42:00Z</time>
      </trkpt>
      <trkpt lat="49.1735" lon="2.29223">
        <ele>36</ele>
        <time>2011-11-06T10:42:01Z</time>
      </trkpt>
      <trkpt lat="49.17356" lon="2.2921">
        <ele>36</ele>
        <time>2011-11-06T10:42:02Z</time>
      </trkpt>
      <trkpt lat="49.17363" lon="2.29197">
        <ele>36</ele>
        <time>2011-11-06T10:42:03Z</time>
      </trkpt>
      <trkpt lat="49.17369" lon="2.29184">
        <ele>36</ele>
        <time>2011-11-06T10:42:04Z</time>
      </trkpt>
      <trkpt lat="49.17376" lon="2.2917">
        <ele>36</ele>
        <time>2011-11-06T10:42:05Z</time>
      </trkpt>
      <trkpt lat="49.17385" lon="2.29157">
        <ele>36</ele>
        <time>2011-11-06T10:42:06Z</time>
      </trkpt>
      <trkpt lat="49.17394" lon="2.29142">
        <ele>36</ele>
        <time>2011-11-06T10:42:07Z</time>
      </trkpt>
      <trkpt lat="49.17403" lon="2.29129">
        <ele>36</ele>
        <time>2011-11-06T10:42:08Z</time>
      </trkpt>
      <trkpt lat="49.17412" lon="2.29114">
        <ele>36</ele>
        <time>2011-11-06T10:42:09Z</time>
      </trkpt>
      <trkpt lat="49.17421" lon="2.291">
        <ele>36</ele>
        <time>2011-11-06T10:42:10Z</time>
      </trkpt>
      <trkpt lat="49.1743" lon="2.29086">
        <ele>36</ele>
        <time>2011-11-06T10:42:11Z</time>
      </trkpt>
      <trkpt lat="49.17439" lon="2.29072">
        <ele>36</ele>
        <time>2011-11-06T10:42:12Z</time>
      </trkpt>
      <trkpt lat="49.17448" lon="2.29058">
        <ele>36</ele>
        <time>2011-11-06T10:42:13Z</time>
      </trkpt>
      <trkpt lat="49.17457" lon="2.29044">
        <ele>36</ele>
        <time>2011-11-06T10:42:14Z</time>
      </trkpt>
      <trkpt lat="49.17465" lon="2.29032">
        <ele>36</ele>
        <time>2011-11-06T10:42:15Z</time>
      </trkpt>
      <trkpt lat="49.17473" lon="2.29018">
        <ele>36</ele>
        <time>2011-11-06T10:42:16Z</time>
      </trkpt>
      <trkpt lat="49.17482" lon="2.29005">
        <ele>36</ele>
        <time>2011-11-06T10:42:17Z</time>
      </trkpt>
      <trkpt lat="49.17491" lon="2.28991">
        <ele>36</ele>
        <time>2011-11-06T10:42:18Z</time>
      </trkpt>
      <trkpt lat="49.175" lon="2.28977">
        <ele>36</ele>
        <time>2011-11-06T10:42:19Z</time>
      </trkpt>
      <trkpt lat="49.17509" lon="2.28963">
        <ele>36</ele>
        <time>2011-11-06T10:42:20Z</time>
      </trkpt>
      <trkpt lat="49.17519" lon="2.28948">
        <ele>36</ele>
        <time>2011-11-06T10:42:21Z</time>
      </trkpt>
      <trkpt lat="49.17527" lon="2.28935">
        <ele>36</ele>
        <time>2011-11-06T10:42:22Z</time>
      </trkpt>
      <trkpt lat="49.17535" lon="2.28922">
        <ele>36</ele>
        <time>2011-11-06T10:42:23Z</time>
      </trkpt>
      <trkpt lat="49.17543" lon="2.28911">
        <ele>36</ele>
        <time>2011-11-06T10:42:24Z</time>
      </trkpt>
      <trkpt lat="49.1755" lon="2.28899">
        <ele>36</ele>
        <time>2011-11-06T10:42:25Z</time>
      </trkpt>
      <trkpt lat="49.17558" lon="2.28886">
        <ele>36</ele>
        <time>2011-11-06T10:42:26Z</time>
      </trkpt>
      <trkpt lat="49.17565" lon="2.28874">
        <ele>36</ele>
        <time>2011-11-06T10:42:27Z</time>
      </trkpt>
      <trkpt lat="49.17573" lon="2.2886">
        <ele>36</ele>
        <time>2011-11-06T10:42:28Z</time>
      </trkpt>
      <trkpt lat="49.1758" lon="2.28848">
        <ele>36</ele>
        <time>2011-11-06T10:42:29Z</time>
      </trkpt>
      <trkpt lat="49.17588" lon="2.28835">
        <ele>36</ele>
        <time>2011-11-06T10:42:30Z</time>
      </trkpt>
      <trkpt lat="49.17594" lon="2.28823">
        <ele>36</ele>
        <time>2011-11-06T10:42:31Z</time>
      </trkpt>
      <trkpt lat="49.17605" lon="2.28805">
        <ele>36</ele>
        <time>2011-11-06T10:42:33Z</time>
      </trkpt>
      <trkpt lat="49.17612" lon="2.28792">
        <ele>36</ele>
        <time>2011-11-06T10:42:35Z</time>
      </trkpt>
      <trkpt lat="49.17612" lon="2.28777">
        <ele>36</ele>
        <time>2011-11-06T10:42:40Z</time>
      </trkpt>
      <trkpt lat="49.17599" lon="2.28774">
        <ele>36</ele>
        <time>2011-11-06T10:42:43Z</time>
      </trkpt>
      <trkpt lat="49.17582" lon="2.28779">
        <ele>36</ele>
        <time>2011-11-06T10:42:45Z</time>
      </trkpt>
      <trkpt lat="49.1757" lon="2.28782">
        <ele>36</ele>
        <time>2011-11-06T10:42:46Z</time>
      </trkpt>
      <trkpt lat="49.17559" lon="2.28785">
        <ele>36</ele>
        <time>2011-11-06T10:42:47Z</time>
      </trkpt>
      <trkpt lat="49.17547" lon="2.28788">
        <ele>36</ele>
        <time>2011-11-06T10:42:48Z</time>
      </trkpt>
      <trkpt lat="49.17536" lon="2.28791">
        <ele>36</ele>
        <time>2011-11-06T10:42:49Z</time>
      </trkpt>
      <trkpt lat="49.17525" lon="2.28794">
        <ele>36</ele>
        <time>2011-11-06T10:42:50Z</time>
      </trkpt>
      <trkpt lat="49.17515" lon="2.28796">
        <ele>36</ele>
        <time>2011-11-06T10:42:51Z</time>
      </trkpt>
      <trkpt lat="49.17499" lon="2.288">
        <ele>36</ele>
        <time>2011-11-06T10:42:53Z</time>
      </trkpt>
      <trkpt lat="49.17487" lon="2.28803">
        <ele>36</ele>
        <time>2011-11-06T10:42:55Z</time>
      </trkpt>
      <trkpt lat="49.17477" lon="2.28805">
        <ele>36</ele>
        <time>2011-11-06T10:43:00Z</time>
      </trkpt>
      <trkpt lat="49.17464" lon="2.2881">
        <ele>36</ele>
        <time>2011-11-06T10:43:03Z</time>
      </trkpt>
      <trkpt lat="49.17451" lon="2.28813">
        <ele>36</ele>
        <time>2011-11-06T10:43:05Z</time>
      </trkpt>
      <trkpt lat="49.17437" lon="2.28807">
        <ele>36</ele>
        <time>2011-11-06T10:43:07Z</time>
      </trkpt>
      <trkpt lat="49.17421" lon="2.28794">
        <ele>36</ele>
        <time>2011-11-06T10:43:09Z</time>
      </trkpt>
      <trkpt lat="49.17406" lon="2.28779">
        <ele>36</ele>
        <time>2011-11-06T10:43:11Z</time>
      </trkpt>
      <trkpt lat="49.17399" lon="2.2877">
        <ele>36</ele>
        <time>2011-11-06T10:43:12Z</time>
      </trkpt>
      <trkpt lat="49.17392" lon="2.28751">
        <ele>36</ele>
        <time>2011-11-06T10:43:14Z</time>
      </trkpt>
      <trkpt lat="49.1739" lon="2.28734">
        <ele>36</ele>
        <time>2011-11-06T10:43:16Z</time>
      </trkpt>
      <trkpt lat="49.17392" lon="2.2872">
        <ele>36</ele>
        <time>2011-11-06T10:43:48Z</time>
      </trkpt>
      <trkpt lat="49.17389" lon="2.28703">
        <ele>36</ele>
        <time>2011-11-06T10:43:51Z</time>
      </trkpt>
      <trkpt lat="49.17377" lon="2.28695">
        <ele>36</ele>
        <time>2011-11-06T10:43:54Z</time>
      </trkpt>
      <trkpt lat="49.17366" lon="2.28694">
        <ele>36</ele>
        <time>2011-11-06T10:43:56Z</time>
      </trkpt>
      <trkpt lat="49.17355" lon="2.28692">
        <ele>36</ele>
        <time>2011-11-06T10:43:59Z</time>
      </trkpt>
      <trkpt lat="49.17343" lon="2.2869">
        <ele>36</ele>
        <time>2011-11-06T10:44:07Z</time>
      </trkpt>
      <trkpt lat="49.17333" lon="2.28689">
        <ele>36</ele>
        <time>2011-11-06T10:44:09Z</time>
      </trkpt>
      <trkpt lat="49.17319" lon="2.28686">
        <ele>36</ele>
        <time>2011-11-06T10:44:11Z</time>
      </trkpt>
      <trkpt lat="49.17301" lon="2.28683">
        <ele>36</ele>
        <time>2011-11-06T10:44:13Z</time>
      </trkpt>
      <trkpt lat="49.17291" lon="2.28681">
        <ele>36</ele>
        <time>2011-11-06T10:44:14Z</time>
      </trkpt>
      <trkpt lat="49.17281" lon="2.2868">
        <ele>36</ele>
        <time>2011-11-06T10:44:15Z</time>
      </trkpt>
      <trkpt lat="49.1727" lon="2.28677">
        <ele>36</ele>
        <time>2011-11-06T10:44:16Z</time>
      </trkpt>
      <trkpt lat="49.17259" lon="2.28675">
        <ele>36</ele>
        <time>2011-11-06T10:44:17Z</time>
      </trkpt>
      <trkpt lat="49.17249" lon="2.28674">
        <ele>36</ele>
        <time>2011-11-06T10:44:18Z</time>
      </trkpt>
      <trkpt lat="49.17239" lon="2.28672">
        <ele>36</ele>
        <time>2011-11-06T10:44:19Z</time>
      </trkpt>
      <trkpt lat="49.17229" lon="2.28671">
        <ele>36</ele>
        <time>2011-11-06T10:44:20Z</time>
      </trkpt>
      <trkpt lat="49.17214" lon="2.28668">
        <ele>36</ele>
        <time>2011-11-06T10:44:22Z</time>
      </trkpt>
      <trkpt lat="49.172" lon="2.28666">
        <ele>36</ele>
        <time>2011-11-06T10:44:24Z</time>
      </trkpt>
      <trkpt lat="49.17185" lon="2.28664">
        <ele>36</ele>
        <time>2011-11-06T10:44:26Z</time>
      </trkpt>
      <trkpt lat="49.17166" lon="2.28661">
        <ele>36</ele>
        <time>2011-11-06T10:44:28Z</time>
      </trkpt>
      <trkpt lat="49.17156" lon="2.28659">
        <ele>36</ele>
        <time>2011-11-06T10:44:29Z</time>
      </trkpt>
      <trkpt lat="49.17144" lon="2.28657">
        <ele>36</ele>
        <time>2011-11-06T10:44:30Z</time>
      </trkpt>
      <trkpt lat="49.17132" lon="2.28655">
        <ele>36</ele>
        <time>2011-11-06T10:44:31Z</time>
      </trkpt>
      <trkpt lat="49.17118" lon="2.28653">
        <ele>36</ele>
        <time>2011-11-06T10:44:32Z</time>
      </trkpt>
      <trkpt lat="49.17104" lon="2.2865">
        <ele>36</ele>
        <time>2011-11-06T10:44:33Z</time>
      </trkpt>
      <trkpt lat="49.1709" lon="2.28648">
        <ele>36</ele>
        <time>2011-11-06T10:44:34Z</time>
      </trkpt>
      <trkpt lat="49.17076" lon="2.28646">
        <ele>36</ele>
        <time>2011-11-06T10:44:35Z</time>
      </trkpt>
      <trkpt lat="49.17061" lon="2.28643">
        <ele>36</ele>
        <time>2011-11-06T10:44:36Z</time>
      </trkpt>
      <trkpt lat="49.17046" lon="2.28641">
        <ele>36</ele>
        <time>2011-11-06T10:44:37Z</time>
      </trkpt>
      <trkpt lat="49.17031" lon="2.28638">
        <ele>36</ele>
        <time>2011-11-06T10:44:38Z</time>
      </trkpt>
      <trkpt lat="49.17016" lon="2.28636">
        <ele>36</ele>
        <time>2011-11-06T10:44:39Z</time>
      </trkpt>
      <trkpt lat="49.17" lon="2.28633">
        <ele>36</ele>
        <time>2011-11-06T10:44:40Z</time>
      </trkpt>
      <trkpt lat="49.16984" lon="2.28631">
        <ele>36</ele>
        <time>2011-11-06T10:44:41Z</time>
      </trkpt>
      <trkpt lat="49.16969" lon="2.28628">
        <ele>36</ele>
        <time>2011-11-06T10:44:42Z</time>
      </trkpt>
      <trkpt lat="49.16954" lon="2.28626">
        <ele>36</ele>
        <time>2011-11-06T10:44:43Z</time>
      </trkpt>
      <trkpt lat="49.16939" lon="2.28623">
        <ele>36</ele>
        <time>2011-11-06T10:44:44Z</time>
      </trkpt>
      <trkpt lat="49.16924" lon="2.2862">
        <ele>36</ele>
        <time>2011-11-06T10:44:45Z</time>
      </trkpt>
      <trkpt lat="49.16908" lon="2.28618">
        <ele>36</ele>
        <time>2011-11-06T10:44:46Z</time>
      </trkpt>
      <trkpt lat="49.16892" lon="2.28615">
        <ele>36</ele>
        <time>2011-11-06T10:44:47Z</time>
      </trkpt>
      <trkpt lat="49.16876" lon="2.28612">
        <ele>36</ele>
        <time>2011-11-06T10:44:48Z</time>
      </trkpt>
      <trkpt lat="49.16859" lon="2.2861">
        <ele>36</ele>
        <time>2011-11-06T10:44:49Z</time>
      </trkpt>
      <trkpt lat="49.16842" lon="2.28607">
        <ele>36</ele>
        <time>2011-11-06T10:44:50Z</time>
      </trkpt>
      <trkpt lat="49.16826" lon="2.28605">
        <ele>36</ele>
        <time>2011-11-06T10:44:51Z</time>
      </trkpt>
      <trkpt lat="49.16809" lon="2.28602">
        <ele>36</ele>
        <time>2011-11-06T10:44:52Z</time>
      </trkpt>
      <trkpt lat="49.16793" lon="2.286">
        <ele>31</ele>
        <time>2011-11-06T10:44:53Z</time>
      </trkpt>
      <trkpt lat="49.16777" lon="2.28597">
        <ele>31</ele>
        <time>2011-11-06T10:44:54Z</time>
      </trkpt>
      <trkpt lat="49.16761" lon="2.28594">
        <ele>31</ele>
        <time>2011-11-06T10:44:55Z</time>
      </trkpt>
      <trkpt lat="49.16744" lon="2.28592">
        <ele>31</ele>
        <time>2011-11-06T10:44:56Z</time>
      </trkpt>
      <trkpt lat="49.16728" lon="2.28589">
        <ele>31</ele>
        <time>2011-11-06T10:44:57Z</time>
      </trkpt>
      <trkpt lat="49.16713" lon="2.28587">
        <ele>31</ele>
        <time>2011-11-06T10:44:58Z</time>
      </trkpt>
      <trkpt lat="49.16699" lon="2.28584">
        <ele>31</ele>
        <time>2011-11-06T10:44:59Z</time>
      </trkpt>
      <trkpt lat="49.16685" lon="2.28582">
        <ele>31</ele>
        <time>2011-11-06T10:45:00Z</time>
      </trkpt>
      <trkpt lat="49.1667" lon="2.2858">
        <ele>31</ele>
        <time>2011-11-06T10:45:01Z</time>
      </trkpt>
      <trkpt lat="49.16656" lon="2.28577">
        <ele>31</ele>
        <time>2011-11-06T10:45:02Z</time>
      </trkpt>
      <trkpt lat="49.16643" lon="2.28575">
        <ele>31</ele>
        <time>2011-11-06T10:45:03Z</time>
      </trkpt>
      <trkpt lat="49.16629" lon="2.28573">
        <ele>31</ele>
        <time>2011-11-06T10:45:04Z</time>
      </trkpt>
      <trkpt lat="49.16616" lon="2.28571">
        <ele>31</ele>
        <time>2011-11-06T10:45:05Z</time>
      </trkpt>
      <trkpt lat="49.16602" lon="2.28569">
        <ele>31</ele>
        <time>2011-11-06T10:45:06Z</time>
      </trkpt>
      <trkpt lat="49.16589" lon="2.28566">
        <ele>31</ele>
        <time>2011-11-06T10:45:07Z</time>
      </trkpt>
      <trkpt lat="49.16577" lon="2.28565">
        <ele>31</ele>
        <time>2011-11-06T10:45:08Z</time>
      </trkpt>
      <trkpt lat="49.16565" lon="2.28563">
        <ele>31</ele>
        <time>2011-11-06T10:45:09Z</time>
      </trkpt>
      <trkpt lat="49.16554" lon="2.2856">
        <ele>31</ele>
        <time>2011-11-06T10:45:10Z</time>
      </trkpt>
      <trkpt lat="49.16544" lon="2.28558">
        <ele>31</ele>
        <time>2011-11-06T10:45:11Z</time>
      </trkpt>
      <trkpt lat="49.16534" lon="2.28554">
        <ele>31</ele>
        <time>2011-11-06T10:45:12Z</time>
      </trkpt>
      <trkpt lat="49.16526" lon="2.28549">
        <ele>31</ele>
        <time>2011-11-06T10:45:13Z</time>
      </trkpt>
      <trkpt lat="49.16517" lon="2.28543">
        <ele>31</ele>
        <time>2011-11-06T10:45:14Z</time>
      </trkpt>
      <trkpt lat="49.16504" lon="2.28529">
        <ele>31</ele>
        <time>2011-11-06T10:45:16Z</time>
      </trkpt>
      <trkpt lat="49.16495" lon="2.28515">
        <ele>26</ele>
        <time>2011-11-06T10:45:18Z</time>
      </trkpt>
      <trkpt lat="49.1649" lon="2.28487">
        <ele>26</ele>
        <time>2011-11-06T10:45:21Z</time>
      </trkpt>
      <trkpt lat="49.16487" lon="2.28463">
        <ele>26</ele>
        <time>2011-11-06T10:45:23Z</time>
      </trkpt>
      <trkpt lat="49.16477" lon="2.28443">
        <ele>26</ele>
        <time>2011-11-06T10:45:25Z</time>
      </trkpt>
      <trkpt lat="49.1646" lon="2.28432">
        <ele>26</ele>
        <time>2011-11-06T10:45:27Z</time>
      </trkpt>
      <trkpt lat="49.16451" lon="2.28426">
        <ele>26</ele>
        <time>2011-11-06T10:45:28Z</time>
      </trkpt>
      <trkpt lat="49.16443" lon="2.28418">
        <ele>26</ele>
        <time>2011-11-06T10:45:29Z</time>
      </trkpt>
      <trkpt lat="49.16437" lon="2.28407">
        <ele>26</ele>
        <time>2011-11-06T10:45:30Z</time>
      </trkpt>
      <trkpt lat="49.16431" lon="2.28393">
        <ele>26</ele>
        <time>2011-11-06T10:45:31Z</time>
      </trkpt>
      <trkpt lat="49.16426" lon="2.28379">
        <ele>26</ele>
        <time>2011-11-06T10:45:32Z</time>
      </trkpt>
      <trkpt lat="49.16421" lon="2.28363">
        <ele>26</ele>
        <time>2011-11-06T10:45:33Z</time>
      </trkpt>
      <trkpt lat="49.16415" lon="2.28347">
        <ele>26</ele>
        <time>2011-11-06T10:45:34Z</time>
      </trkpt>
      <trkpt lat="49.16409" lon="2.28333">
        <ele>26</ele>
        <time>2011-11-06T10:45:35Z</time>
      </trkpt>
      <trkpt lat="49.16404" lon="2.28319">
        <ele>26</ele>
        <time>2011-11-06T10:45:36Z</time>
      </trkpt>
      <trkpt lat="49.16398" lon="2.28303">
        <ele>26</ele>
        <time>2011-11-06T10:45:37Z</time>
      </trkpt>
      <trkpt lat="49.16392" lon="2.2829">
        <ele>26</ele>
        <time>2011-11-06T10:45:38Z</time>
      </trkpt>
      <trkpt lat="49.16386" lon="2.28276">
        <ele>26</ele>
        <time>2011-11-06T10:45:39Z</time>
      </trkpt>
      <trkpt lat="49.1638" lon="2.28263">
        <ele>26</ele>
        <time>2011-11-06T10:45:40Z</time>
      </trkpt>
      <trkpt lat="49.16375" lon="2.28249">
        <ele>26</ele>
        <time>2011-11-06T10:45:41Z</time>
      </trkpt>
      <trkpt lat="49.16368" lon="2.28235">
        <ele>26</ele>
        <time>2011-11-06T10:45:42Z</time>
      </trkpt>
      <trkpt lat="49.16362" lon="2.2822">
        <ele>26</ele>
        <time>2011-11-06T10:45:43Z</time>
      </trkpt>
      <trkpt lat="49.16354" lon="2.28204">
        <ele>26</ele>
        <time>2011-11-06T10:45:44Z</time>
      </trkpt>
      <trkpt lat="49.16346" lon="2.28187">
        <ele>26</ele>
        <time>2011-11-06T10:45:45Z</time>
      </trkpt>
      <trkpt lat="49.16338" lon="2.28169">
        <ele>26</ele>
        <time>2011-11-06T10:45:46Z</time>
      </trkpt>
      <trkpt lat="49.16329" lon="2.28151">
        <ele>26</ele>
        <time>2011-11-06T10:45:47Z</time>
      </trkpt>
      <trkpt lat="49.1632" lon="2.28132">
        <ele>26</ele>
        <time>2011-11-06T10:45:48Z</time>
      </trkpt>
      <trkpt lat="49.16311" lon="2.28113">
        <ele>26</ele>
        <time>2011-11-06T10:45:49Z</time>
      </trkpt>
      <trkpt lat="49.16301" lon="2.28092">
        <ele>26</ele>
        <time>2011-11-06T10:45:50Z</time>
      </trkpt>
      <trkpt lat="49.16291" lon="2.28072">
        <ele>26</ele>
        <time>2011-11-06T10:45:51Z</time>
      </trkpt>
      <trkpt lat="49.16281" lon="2.28052">
        <ele>26</ele>
        <time>2011-11-06T10:45:52Z</time>
      </trkpt>
      <trkpt lat="49.16271" lon="2.28031">
        <ele>26</ele>
        <time>2011-11-06T10:45:53Z</time>
      </trkpt>
      <trkpt lat="49.16261" lon="2.2801">
        <ele>26</ele>
        <time>2011-11-06T10:45:54Z</time>
      </trkpt>
      <trkpt lat="49.16251" lon="2.2799">
        <ele>26</ele>
        <time>2011-11-06T10:45:55Z</time>
      </trkpt>
      <trkpt lat="49.16241" lon="2.2797">
        <ele>26</ele>
        <time>2011-11-06T10:45:56Z</time>
      </trkpt>
      <trkpt lat="49.16231" lon="2.27949">
        <ele>26</ele>
        <time>2011-11-06T10:45:57Z</time>
      </trkpt>
      <trkpt lat="49.16222" lon="2.2793">
        <ele>21</ele>
        <time>2011-11-06T10:45:58Z</time>
      </trkpt>
      <trkpt lat="49.16212" lon="2.2791">
        <ele>21</ele>
        <time>2011-11-06T10:45:59Z</time>
      </trkpt>
      <trkpt lat="49.16202" lon="2.27889">
        <ele>21</ele>
        <time>2011-11-06T10:46:00Z</time>
      </trkpt>
      <trkpt lat="49.16192" lon="2.27869">
        <ele>21</ele>
        <time>2011-11-06T10:46:01Z</time>
      </trkpt>
      <trkpt lat="49.16182" lon="2.27848">
        <ele>21</ele>
        <time>2011-11-06T10:46:02Z</time>
      </trkpt>
      <trkpt lat="49.16171" lon="2.27827">
        <ele>21</ele>
        <time>2011-11-06T10:46:03Z</time>
      </trkpt>
      <trkpt lat="49.16161" lon="2.27807">
        <ele>21</ele>
        <time>2011-11-06T10:46:04Z</time>
      </trkpt>
      <trkpt lat="49.16151" lon="2.27786">
        <ele>21</ele>
        <time>2011-11-06T10:46:05Z</time>
      </trkpt>
      <trkpt lat="49.1614" lon="2.27764">
        <ele>21</ele>
        <time>2011-11-06T10:46:06Z</time>
      </trkpt>
      <trkpt lat="49.1613" lon="2.27744">
        <ele>21</ele>
        <time>2011-11-06T10:46:07Z</time>
      </trkpt>
      <trkpt lat="49.1612" lon="2.27723">
        <ele>21</ele>
        <time>2011-11-06T10:46:08Z</time>
      </trkpt>
      <trkpt lat="49.1611" lon="2.27702">
        <ele>21</ele>
        <time>2011-11-06T10:46:09Z</time>
      </trkpt>
      <trkpt lat="49.16099" lon="2.27681">
        <ele>21</ele>
        <time>2011-11-06T10:46:10Z</time>
      </trkpt>
      <trkpt lat="49.16089" lon="2.2766">
        <ele>21</ele>
        <time>2011-11-06T10:46:11Z</time>
      </trkpt>
      <trkpt lat="49.16079" lon="2.27638">
        <ele>21</ele>
        <time>2011-11-06T10:46:12Z</time>
      </trkpt>
      <trkpt lat="49.16068" lon="2.27616">
        <ele>21</ele>
        <time>2011-11-06T10:46:13Z</time>
      </trkpt>
      <trkpt lat="49.16058" lon="2.27594">
        <ele>21</ele>
        <time>2011-11-06T10:46:14Z</time>
      </trkpt>
      <trkpt lat="49.16048" lon="2.27571">
        <ele>21</ele>
        <time>2011-11-06T10:46:15Z</time>
      </trkpt>
      <trkpt lat="49.16038" lon="2.27549">
        <ele>21</ele>
        <time>2011-11-06T10:46:16Z</time>
      </trkpt>
      <trkpt lat="49.16028" lon="2.27526">
        <ele>21</ele>
        <time>2011-11-06T10:46:17Z</time>
      </trkpt>
      <trkpt lat="49.16019" lon="2.27503">
        <ele>21</ele>
        <time>2011-11-06T10:46:18Z</time>
      </trkpt>
      <trkpt lat="49.1601" lon="2.2748">
        <ele>21</ele>
        <time>2011-11-06T10:46:19Z</time>
      </trkpt>
      <trkpt lat="49.16001" lon="2.27456">
        <ele>21</ele>
        <time>2011-11-06T10:46:20Z</time>
      </trkpt>
      <trkpt lat="49.15992" lon="2.27432">
        <ele>21</ele>
        <time>2011-11-06T10:46:21Z</time>
      </trkpt>
      <trkpt lat="49.15983" lon="2.27408">
        <ele>21</ele>
        <time>2011-11-06T10:46:22Z</time>
      </trkpt>
      <trkpt lat="49.15974" lon="2.27383">
        <ele>21</ele>
        <time>2011-11-06T10:46:23Z</time>
      </trkpt>
      <trkpt lat="49.15965" lon="2.27359">
        <ele>21</ele>
        <time>2011-11-06T10:46:24Z</time>
      </trkpt>
      <trkpt lat="49.15957" lon="2.27335">
        <ele>21</ele>
        <time>2011-11-06T10:46:25Z</time>
      </trkpt>
      <trkpt lat="49.15949" lon="2.27311">
        <ele>21</ele>
        <time>2011-11-06T10:46:26Z</time>
      </trkpt>
      <trkpt lat="49.15942" lon="2.27286">
        <ele>21</ele>
        <time>2011-11-06T10:46:27Z</time>
      </trkpt>
      <trkpt lat="49.15935" lon="2.27262">
        <ele>21</ele>
        <time>2011-11-06T10:46:28Z</time>
      </trkpt>
      <trkpt lat="49.15928" lon="2.27238">
        <ele>21</ele>
        <time>2011-11-06T10:46:29Z</time>
      </trkpt>
      <trkpt lat="49.15921" lon="2.27213">
        <ele>21</ele>
        <time>2011-11-06T10:46:30Z</time>
      </trkpt>
      <trkpt lat="49.15913" lon="2.27188">
        <ele>21</ele>
        <time>2011-11-06T10:46:31Z</time>
      </trkpt>
      <trkpt lat="49.15906" lon="2.27163">
        <ele>26</ele>
        <time>2011-11-06T10:46:32Z</time>
      </trkpt>
      <trkpt lat="49.159" lon="2.27139">
        <ele>26</ele>
        <time>2011-11-06T10:46:33Z</time>
      </trkpt>
      <trkpt lat="49.15894" lon="2.27114">
        <ele>26</ele>
        <time>2011-11-06T10:46:34Z</time>
      </trkpt>
      <trkpt lat="49.15888" lon="2.27089">
        <ele>26</ele>
        <time>2011-11-06T10:46:35Z</time>
      </trkpt>
      <trkpt lat="49.15882" lon="2.27064">
        <ele>26</ele>
        <time>2011-11-06T10:46:36Z</time>
      </trkpt>
      <trkpt lat="49.15876" lon="2.27038">
        <ele>26</ele>
        <time>2011-11-06T10:46:37Z</time>
      </trkpt>
      <trkpt lat="49.1587" lon="2.27013">
        <ele>26</ele>
        <time>2011-11-06T10:46:38Z</time>
      </trkpt>
      <trkpt lat="49.15865" lon="2.26988">
        <ele>26</ele>
        <time>2011-11-06T10:46:39Z</time>
      </trkpt>
      <trkpt lat="49.15859" lon="2.26964">
        <ele>26</ele>
        <time>2011-11-06T10:46:40Z</time>
      </trkpt>
      <trkpt lat="49.15853" lon="2.26939">
        <ele>26</ele>
        <time>2011-11-06T10:46:41Z</time>
      </trkpt>
      <trkpt lat="49.15848" lon="2.26914">
        <ele>26</ele>
        <time>2011-11-06T10:46:42Z</time>
      </trkpt>
      <trkpt lat="49.15842" lon="2.26889">
        <ele>31</ele>
        <time>2011-11-06T10:46:43Z</time>
      </trkpt>
      <trkpt lat="49.15836" lon="2.26864">
        <ele>31</ele>
        <time>2011-11-06T10:46:44Z</time>
      </trkpt>
      <trkpt lat="49.15831" lon="2.26839">
        <ele>31</ele>
        <time>2011-11-06T10:46:45Z</time>
      </trkpt>
      <trkpt lat="49.15826" lon="2.26815">
        <ele>31</ele>
        <time>2011-11-06T10:46:46Z</time>
      </trkpt>
      <trkpt lat="49.15822" lon="2.26791">
        <ele>31</ele>
        <time>2011-11-06T10:46:47Z</time>
      </trkpt>
      <trkpt lat="49.15817" lon="2.26768">
        <ele>31</ele>
        <time>2011-11-06T10:46:48Z</time>
      </trkpt>
      <trkpt lat="49.15813" lon="2.26744">
        <ele>31</ele>
        <time>2011-11-06T10:46:49Z</time>
      </trkpt>
      <trkpt lat="49.15809" lon="2.2672">
        <ele>31</ele>
        <time>2011-11-06T10:46:50Z</time>
      </trkpt>
      <trkpt lat="49.15806" lon="2.26699">
        <ele>31</ele>
        <time>2011-11-06T10:46:51Z</time>
      </trkpt>
      <trkpt lat="49.15802" lon="2.26677">
        <ele>31</ele>
        <time>2011-11-06T10:46:52Z</time>
      </trkpt>
      <trkpt lat="49.15799" lon="2.26657">
        <ele>31</ele>
        <time>2011-11-06T10:46:53Z</time>
      </trkpt>
      <trkpt lat="49.15796" lon="2.26636">
        <ele>31</ele>
        <time>2011-11-06T10:46:54Z</time>
      </trkpt>
      <trkpt lat="49.15793" lon="2.26615">
        <ele>31</ele>
        <time>2011-11-06T10:46:55Z</time>
      </trkpt>
      <trkpt lat="49.15791" lon="2.26596">
        <ele>31</ele>
        <time>2011-11-06T10:46:56Z</time>
      </trkpt>
      <trkpt lat="49.15789" lon="2.26578">
        <ele>31</ele>
        <time>2011-11-06T10:46:57Z</time>
      </trkpt>
      <trkpt lat="49.15786" lon="2.2656">
        <ele>31</ele>
        <time>2011-11-06T10:46:58Z</time>
      </trkpt>
      <trkpt lat="49.15783" lon="2.26543">
        <ele>31</ele>
        <time>2011-11-06T10:46:59Z</time>
      </trkpt>
      <trkpt lat="49.15781" lon="2.26526">
        <ele>31</ele>
        <time>2011-11-06T10:47:00Z</time>
      </trkpt>
      <trkpt lat="49.15778" lon="2.2651">
        <ele>31</ele>
        <time>2011-11-06T10:47:01Z</time>
      </trkpt>
      <trkpt lat="49.15775" lon="2.26495">
        <ele>31</ele>
        <time>2011-11-06T10:47:02Z</time>
      </trkpt>
      <trkpt lat="49.15772" lon="2.26481">
        <ele>26</ele>
        <time>2011-11-06T10:47:03Z</time>
      </trkpt>
      <trkpt lat="49.15769" lon="2.26467">
        <ele>26</ele>
        <time>2011-11-06T10:47:04Z</time>
      </trkpt>
      <trkpt lat="49.15766" lon="2.26454">
        <ele>26</ele>
        <time>2011-11-06T10:47:05Z</time>
      </trkpt>
      <trkpt lat="49.15763" lon="2.2644">
        <ele>26</ele>
        <time>2011-11-06T10:47:06Z</time>
      </trkpt>
      <trkpt lat="49.15757" lon="2.26417">
        <ele>26</ele>
        <time>2011-11-06T10:47:08Z</time>
      </trkpt>
      <trkpt lat="49.15753" lon="2.26398">
        <ele>26</ele>
        <time>2011-11-06T10:47:10Z</time>
      </trkpt>
      <trkpt lat="49.15751" lon="2.26384">
        <ele>26</ele>
        <time>2011-11-06T10:47:13Z</time>
      </trkpt>
      <trkpt lat="49.15752" lon="2.26368">
        <ele>26</ele>
        <time>2011-11-06T10:47:20Z</time>
      </trkpt>
      <trkpt lat="49.15754" lon="2.2635">
        <ele>26</ele>
        <time>2011-11-06T10:47:22Z</time>
      </trkpt>
      <trkpt lat="49.15759" lon="2.26329">
        <ele>26</ele>
        <time>2011-11-06T10:47:24Z</time>
      </trkpt>
      <trkpt lat="49.15769" lon="2.26307">
        <ele>26</ele>
        <time>2011-11-06T10:47:26Z</time>
      </trkpt>
      <trkpt lat="49.15775" lon="2.26296">
        <ele>26</ele>
        <time>2011-11-06T10:47:27Z</time>
      </trkpt>
      <trkpt lat="49.15781" lon="2.26285">
        <ele>26</ele>
        <time>2011-11-06T10:47:28Z</time>
      </trkpt>
      <trkpt lat="49.15787" lon="2.26274">
        <ele>26</ele>
        <time>2011-11-06T10:47:29Z</time>
      </trkpt>
      <trkpt lat="49.15793" lon="2.26262">
        <ele>26</ele>
        <time>2011-11-06T10:47:30Z</time>
      </trkpt>
      <trkpt lat="49.15799" lon="2.26251">
        <ele>26</ele>
        <time>2011-11-06T10:47:31Z</time>
      </trkpt>
      <trkpt lat="49.15805" lon="2.26239">
        <ele>26</ele>
        <time>2011-11-06T10:47:32Z</time>
      </trkpt>
      <trkpt lat="49.15812" lon="2.26226">
        <ele>26</ele>
        <time>2011-11-06T10:47:33Z</time>
      </trkpt>
      <trkpt lat="49.15819" lon="2.26214">
        <ele>26</ele>
        <time>2011-11-06T10:47:34Z</time>
      </trkpt>
      <trkpt lat="49.15826" lon="2.26201">
        <ele>26</ele>
        <time>2011-11-06T10:47:35Z</time>
      </trkpt>
      <trkpt lat="49.15832" lon="2.26188">
        <ele>26</ele>
        <time>2011-11-06T10:47:36Z</time>
      </trkpt>
      <trkpt lat="49.15839" lon="2.26174">
        <ele>26</ele>
        <time>2011-11-06T10:47:37Z</time>
      </trkpt>
      <trkpt lat="49.15846" lon="2.26161">
        <ele>26</ele>
        <time>2011-11-06T10:47:38Z</time>
      </trkpt>
      <trkpt lat="49.15853" lon="2.26147">
        <ele>26</ele>
        <time>2011-11-06T10:47:39Z</time>
      </trkpt>
      <trkpt lat="49.1586" lon="2.26135">
        <ele>26</ele>
        <time>2011-11-06T10:47:40Z</time>
      </trkpt>
      <trkpt lat="49.15866" lon="2.26122">
        <ele>26</ele>
        <time>2011-11-06T10:47:41Z</time>
      </trkpt>
      <trkpt lat="49.15872" lon="2.26111">
        <ele>26</ele>
        <time>2011-11-06T10:47:42Z</time>
      </trkpt>
      <trkpt lat="49.15878" lon="2.261">
        <ele>26</ele>
        <time>2011-11-06T10:47:43Z</time>
      </trkpt>
      <trkpt lat="49.15884" lon="2.26088">
        <ele>26</ele>
        <time>2011-11-06T10:47:44Z</time>
      </trkpt>
      <trkpt lat="49.1589" lon="2.26075">
        <ele>26</ele>
        <time>2011-11-06T10:47:45Z</time>
      </trkpt>
      <trkpt lat="49.15896" lon="2.26064">
        <ele>26</ele>
        <time>2011-11-06T10:47:46Z</time>
      </trkpt>
      <trkpt lat="49.15905" lon="2.26046">
        <ele>26</ele>
        <time>2011-11-06T10:47:48Z</time>
      </trkpt>
      <trkpt lat="49.15912" lon="2.26032">
        <ele>26</ele>
        <time>2011-11-06T10:47:50Z</time>
      </trkpt>
      <trkpt lat="49.15921" lon="2.26016">
        <ele>26</ele>
        <time>2011-11-06T10:47:52Z</time>
      </trkpt>
      <trkpt lat="49.15929" lon="2.25997">
        <ele>26</ele>
        <time>2011-11-06T10:47:54Z</time>
      </trkpt>
      <trkpt lat="49.15938" lon="2.25981">
        <ele>26</ele>
        <time>2011-11-06T10:47:56Z</time>
      </trkpt>
      <trkpt lat="49.15944" lon="2.25963">
        <ele>26</ele>
        <time>2011-11-06T10:47:58Z</time>
      </trkpt>
      <trkpt lat="49.1595" lon="2.25949">
        <ele>26</ele>
        <time>2011-11-06T10:48:01Z</time>
      </trkpt>
      <trkpt lat="49.15962" lon="2.25943">
        <ele>26</ele>
        <time>2011-11-06T10:48:04Z</time>
      </trkpt>
      <trkpt lat="49.15973" lon="2.25947">
        <ele>26</ele>
        <time>2011-11-06T10:48:06Z</time>
      </trkpt>
      <trkpt lat="49.15982" lon="2.25946">
        <ele>26</ele>
        <time>2011-11-06T10:48:08Z</time>
      </trkpt>
      <trkpt lat="49.15988" lon="2.25928">
        <ele>26</ele>
        <time>2011-11-06T10:48:11Z</time>
      </trkpt>
      <trkpt lat="49.1599" lon="2.2591">
        <ele>26</ele>
        <time>2011-11-06T10:48:13Z</time>
      </trkpt>
      <trkpt lat="49.15998" lon="2.25892">
        <ele>26</ele>
        <time>2011-11-06T10:48:15Z</time>
      </trkpt>
      <trkpt lat="49.16008" lon="2.25872">
        <ele>26</ele>
        <time>2011-11-06T10:48:17Z</time>
      </trkpt>
      <trkpt lat="49.16019" lon="2.2585">
        <ele>26</ele>
        <time>2011-11-06T10:48:19Z</time>
      </trkpt>
      <trkpt lat="49.1603" lon="2.25829">
        <ele>26</ele>
        <time>2011-11-06T10:48:21Z</time>
      </trkpt>
      <trkpt lat="49.16038" lon="2.25812">
        <ele>26</ele>
        <time>2011-11-06T10:48:23Z</time>
      </trkpt>
      <trkpt lat="49.16045" lon="2.25802">
        <ele>26</ele>
        <time>2011-11-06T10:48:25Z</time>
      </trkpt>
      <trkpt lat="49.16057" lon="2.25809">
        <ele>26</ele>
        <time>2011-11-06T10:48:29Z</time>
      </trkpt>
      <trkpt lat="49.16067" lon="2.25806">
        <ele>26</ele>
        <time>2011-11-06T10:48:33Z</time>
      </trkpt>
    </trkseg>
  </trk>
</gpx>